[[{"header":{"parameterUnit":"m.s-1","parameterCategory":1,"la1":31.0,"la2":29.5877,"lo1":-88.7671,"lo2":-86.6584,"dy":0.0162,"dx":0.0185,"nx":115,"ny":88,"refTime":"2024-08-17T06:00:00:Z","depth":0,"parameterNumber":2,"parameterNumberName":"U-component_of_WINDS"},"data":[0.0,0.0,0.0,0.0,0.0,0.0,0.0,0.0,0.0,0.0,0.0,0.0,0.0,0.0,0.0,0.0,0.0,0.0,0.0,0.0,0.0,0.0,0.0,0.0,0.0,0.0,0.0,0.0,0.0,0.0,0.0,0.0,0.0,0.0,0.0,0.0,0.0,0.0,0.0,0.0,0.0,0.0,0.0,0.0,0.0,0.0,0.0,0.0,0.0,0.0,0.0,0.0,0.0,0.0,0.0,0.0,0.0,0.0,0.0,0.0,0.0,0.0,0.0,0.0,0.0,0.0,0.0,0.0,0.0,0.0,0.0,0.0,0.0,0.0,0.0,0.0,0.0,0.0,0.0,0.0,0.0,0.0,0.0,0.0,0.0,0.0,0.0,0.0,0.0,0.0,0.0,0.0,0.0,0.0,0.0,0.0,0.0,0.0,0.0,0.0,0.0,0.0,0.0,0.0,0.0,0.0,0.0,0.0,0.0,0.0,0.0,0.0,0.0,0.0,0.0,0.0,0.0,0.0,0.0,0.0,0.0,0.0,0.0,0.0,0.0,0.0,0.0,0.0,0.0,0.0,0.0,0.0,0.0,0.0,0.0,0.0,0.0,0.0,0.0,0.0,0.0,0.0,0.0,0.0,0.0,0.0,0.0,0.0,0.0,0.0,0.0,0.0,0.0,0.0,0.0,0.0,0.0,0.0,0.0,0.0,0.0,0.0,0.0,0.0,0.0,0.0,0.0,0.0,0.0,0.0,0.0,0.0,0.0,0.0,0.0,0.0,0.0,0.0,0.0,0.0,0.0,0.0,0.0,0.0,0.0,0.0,0.0,0.0,0.0,0.0,0.0,0.0,0.0,0.0,0.0,0.0,0.0,0.0,0.0,0.0,0.0,0.0,0.0,0.0,0.0,0.0,0.0,0.0,0.0,0.0,0.0,0.0,0.0,0.0,0.0,0.0,0.0,0.0,0.0,0.0,0.0,0.0,0.0,0.0,0.0,0.0,0.0,0.0,0.0,0.0,0.0,0.0,0.0,0.0,0.0,0.0,0.0,0.0,0.0,0.0,0.0,0.0,0.0,0.0,0.0,0.0,0.0,0.0,0.0,0.0,0.0,0.0,0.0,0.0,0.0,0.0,0.0,0.0,0.0,0.0,0.0,0.0,0.0,0.0,0.0,0.0,0.0,0.0,0.0,0.0,0.0,0.0,0.0,0.0,0.0,0.0,0.0,0.0,0.0,0.0,0.0,0.0,0.0,0.0,0.0,0.0,0.0,0.0,0.0,0.0,0.0,0.0,0.0,0.0,0.0,0.0,0.0,0.0,0.0,0.0,0.0,0.0,0.0,0.0,0.0,0.0,0.0,0.0,0.0,0.0,0.0,0.0,0.0,0.0,0.0,0.0,0.0,0.0,0.0,0.0,0.0,0.0,0.0,0.0,0.0,0.0,0.0,0.0,0.0,0.0,0.0,0.0,0.0,0.0,0.0,0.0,0.0,0.0,0.0,0.0,0.0,0.0,0.0,0.0,0.0,0.0,0.0,0.0,0.0,0.0,0.0,0.0,0.0,0.0,0.0,0.0,0.0,0.0,0.0,0.0,0.0,0.0,0.0,0.0,0.0,0.0,0.0,0.0,0.0,0.0,0.0,0.0,0.0,0.0,0.0,0.0,0.0,0.0,0.0,0.0,0.0,0.0,0.0,0.0,0.0,0.0,0.0,0.0,0.0,0.0,0.0,0.0,0.0,0.0,0.0,0.0,0.0,0.0,0.0,0.0,0.0,0.0,0.0,0.0,0.0,0.0,0.0,0.0,0.0,0.0,0.0,0.0,0.0,0.0,0.0,0.0,0.0,0.0,0.0,0.0,0.0,0.0,0.0,0.0,0.0,0.0,0.0,0.0,0.0,0.0,0.0,0.0,0.0,0.0,0.0,0.0,0.0,0.0,0.0,0.0,0.0,0.0,0.0,0.0,0.0,0.0,0.0,0.0,0.0,0.0,0.0,0.0,0.0,0.0,0.0,0.0,0.0,0.0,0.0,0.0,0.0,0.0,0.0,0.0,0.0,0.0,0.0,0.0,0.0,0.0,0.0,0.0,0.0,0.0,0.0,0.0,0.0,0.0,0.0,0.0,0.0,0.0,0.0,0.0,0.0,0.0,0.0,0.0,0.0,0.0,0.0,0.0,0.0,0.0,0.0,0.0,0.0,0.0,0.0,0.0,0.0,0.0,0.0,0.0,0.0,0.0,0.0,0.0,0.0,0.0,0.0,0.0,0.0,0.0,0.0,0.0,0.0,0.0,0.0,0.0,0.0,0.0,0.0,0.0,0.0,0.0,0.0,0.0,0.0,0.0,0.0,0.0,0.0,0.0,0.0,0.0,0.0,0.0,0.0,0.0,0.0,0.0,0.0,0.0,0.0,0.0,0.0,0.0,0.0,0.0,0.0,0.0,0.0,0.0,0.0,0.0,0.0,0.0,0.0,0.0,0.0,0.0,0.0,0.0,0.0,0.0,0.0,0.0,0.0,0.0,0.0,0.0,0.0,0.0,0.0,0.0,0.0,0.0,0.0,0.0,0.0,0.0,0.0,0.0,0.0,0.0,0.0,0.0,0.0,0.0,0.0,0.0,0.0,0.0,0.0,0.0,0.0,0.0,0.0,0.0,0.0,0.0,0.0,0.0,0.0,0.0,0.0,0.0,0.0,0.0,0.0,0.0,0.0,0.0,0.0,0.0,0.0,0.0,0.0,0.0,0.0,0.0,0.0,0.0,0.0,0.0,0.0,0.0,0.0,0.0,0.0,0.0,0.0,0.0,0.0,0.0,0.0,0.0,0.0,0.0,0.0,0.0,0.0,0.0,0.0,0.0,0.0,0.0,0.0,0.0,0.0,0.0,0.0,0.0,0.0,0.0,0.0,0.0,0.0,0.0,0.0,0.0,0.0,0.0,0.0,0.0,0.0,0.0,0.0,0.0,0.0,0.0,0.0,0.0,0.0,0.0,0.0,0.0,0.0,0.0,0.0,0.0,0.0,0.0,0.0,0.0,0.0,0.0,0.0,0.0,0.0,0.0,0.0,0.0,0.0,0.0,0.0,0.0,0.0,0.0,0.0,0.0,0.0,0.0,0.0,0.0,0.0,0.0,0.0,0.0,0.0,0.0,0.0,0.0,0.0,0.0,0.0,0.0,0.0,0.0,0.0,0.0,0.0,0.0,0.0,0.0,0.0,0.0,0.0,0.0,0.0,0.0,0.0,0.0,0.0,0.0,0.0,0.0,0.0,0.0,0.0,0.0,0.0,0.0,0.0,0.0,0.0,0.0,0.0,0.0,0.0,0.0,0.0,0.0,0.0,0.0,0.0,0.0,0.0,0.0,0.0,0.0,0.0,0.0,0.0,0.0,0.0,0.0,0.0,0.0,0.0,0.0,0.0,0.0,0.0,0.0,0.0,0.0,0.0,0.0,0.0,0.0,0.0,0.0,0.0,0.0,0.0,0.0,0.0,0.0,0.0,0.0,0.0,0.0,0.0,0.0,0.0,0.0,0.0,0.0,0.0,0.0,0.0,0.0,0.0,0.0,0.0,0.0,0.0,0.0,0.0,0.0,0.0,0.0,0.0,0.0,0.0,0.0,0.0,0.0,0.0,0.0,0.0,0.0,0.0,0.0,0.0,0.0,0.0,0.0,0.0,0.0,0.0,0.0,0.0,0.0,0.0,0.0,0.0,0.0,0.0,0.0,0.0,0.0,0.0,0.0,0.0,0.0,0.0,0.0,0.0,0.0,0.0,0.0,0.0,0.0,0.0,0.0,0.0,0.0,0.0,0.0,0.0,0.0,0.0,0.0,0.0,0.0,0.0,0.0,0.0,0.0,0.0,0.0,0.0,0.0,0.0,0.0,0.0,0.0,0.0,0.0,0.0,0.0,0.0,0.0,0.0,0.0,0.0,0.0,0.0,0.0,0.0,0.0,0.0,0.0,0.0,0.0,0.0,0.0,0.0,0.0,0.0,0.0,0.0,0.0,0.0,0.0,0.0,0.0,0.0,0.0,0.0,0.0,0.0,0.0,0.0,0.0,0.0,0.0,0.0,0.0,0.0,0.0,0.0,0.0,0.0,0.0,0.0,0.0,0.0,0.0,0.0,0.0,0.0,0.0,0.0,0.0,0.0,0.0,0.0,0.0,0.0,0.0,0.0,0.0,0.0,0.0,0.0,0.0,0.0,0.0,0.0,0.0,0.0,0.0,0.0,0.0,0.0,0.0,0.0,0.0,0.0,0.0,0.0,0.0,-0.4386,0.0,0.0,0.0,0.0,0.0,0.0,0.0,0.0,0.0,0.0,0.0,0.0,0.0,0.0,0.0,0.0,0.0,0.0,0.0,0.0,0.0,0.0,0.0,0.0,0.0,0.0,0.0,0.0,0.0,0.0,0.0,0.0,0.0,0.0,0.0,0.0,0.0,0.0,0.0,0.0,0.0,0.0,0.0,0.0,0.0,0.0,0.0,0.0,0.0,0.0,0.0,0.0,0.0,0.0,0.0,0.0,0.0,0.0,0.0,0.0,0.0,0.0,0.0,0.0,0.0,0.0,0.0,0.0,0.0,0.0,0.0,0.0,0.0,0.0,0.0,0.0,0.0,0.0,0.0,0.0,0.0,0.0,0.0,0.0,0.0,0.0,0.0,0.0,0.0,0.0,0.0,0.0,0.0,0.0,0.0,0.0,0.0,0.0,0.0,0.0,0.0,0.0,0.0,0.0,0.0,0.0,0.0,0.0,0.0,0.0,-0.7994,-0.7143,-0.6202,-0.56,-0.5291,0.0,0.0,0.0,0.0,0.0,0.0,0.0,0.0,0.0,0.0,0.0,0.0,0.0,0.0,0.0,0.0,0.0,0.0,0.0,0.0,0.0,0.0,0.0,0.0,0.0,0.0,0.0,0.0,0.0,0.0,0.0,0.0,0.0,0.0,0.0,0.0,0.0,0.0,0.0,0.0,0.0,0.0,0.0,0.0,0.0,0.0,0.0,0.0,0.0,0.0,0.0,0.0,0.0,0.0,0.0,0.0,0.0,0.0,0.0,0.0,0.0,0.0,0.0,0.0,0.0,0.0,0.0,0.0,0.0,0.0,0.0,0.0,0.0,0.0,0.0,0.0,0.0,0.0,0.0,0.0,0.0,0.0,0.0,0.0,0.0,0.0,0.0,0.0,0.0,0.0,0.0,0.0,0.0,0.0,0.0,0.0,0.0,0.0,0.0,0.0,0.0,0.0,0.0,0.0,0.0,0.0,0.0,0.0,0.0,0.0,0.0,0.0,-0.7793,-0.7001,-0.6395,0.0,0.0,0.0,0.0,0.0,0.0,0.0,0.0,0.0,0.0,0.0,0.0,0.0,0.0,0.0,0.0,0.0,0.0,0.0,0.0,0.0,0.0,0.0,0.0,0.0,0.0,0.0,0.0,0.0,0.0,0.0,0.0,0.0,0.0,0.0,0.0,0.0,0.0,0.0,0.0,0.0,0.0,0.0,0.0,0.0,0.0,0.0,0.0,0.0,0.0,0.0,0.0,0.0,0.0,0.0,0.0,0.0,0.0,0.0,0.0,0.0,0.0,0.0,0.0,0.0,0.0,0.0,0.0,0.0,0.0,0.0,0.0,0.0,0.0,0.0,0.0,0.0,0.0,0.0,0.0,0.0,0.0,0.0,0.0,0.0,0.0,0.0,0.0,0.0,0.0,0.0,0.0,0.0,0.0,0.0,0.0,0.0,0.0,0.0,0.0,0.0,0.0,0.0,0.0,0.0,0.0,0.0,0.0,0.0,0.0,-1.147,-1.0929,-0.9981,0.0,-0.7781,0.0,0.0,0.0,0.0,0.0,0.0,0.0,0.0,0.0,0.0,0.0,0.0,0.0,0.0,0.0,0.0,0.0,0.0,0.0,0.0,0.0,0.0,0.0,0.0,0.0,0.0,0.0,0.0,0.0,0.0,0.0,0.0,0.0,0.0,0.0,0.0,0.0,0.0,0.0,0.0,0.0,0.0,0.0,0.0,0.0,0.0,0.0,0.0,0.0,0.0,0.0,0.0,0.0,0.0,0.0,0.0,0.0,0.0,0.0,0.0,0.0,0.0,0.0,0.0,0.0,0.0,0.0,0.0,0.0,0.0,0.0,0.0,0.0,0.0,0.0,0.0,0.0,0.0,0.0,0.0,0.0,0.0,0.0,0.0,0.0,0.0,0.0,0.0,0.0,0.0,0.0,0.0,0.0,0.0,0.0,0.0,0.0,0.0,0.0,0.0,0.0,0.0,0.0,0.0,0.0,0.0,0.0,0.0,0.0,0.0,-1.4216,-1.3616,-1.1878,-1.0403,0.0,0.0,0.0,0.0,0.0,0.0,0.0,0.0,0.0,0.0,0.0,0.0,0.0,0.0,0.0,0.0,0.0,0.0,0.0,0.0,0.0,0.0,0.0,0.0,0.0,0.0,0.0,0.0,0.0,0.0,0.0,0.0,0.0,0.0,0.0,0.0,0.0,0.0,0.0,0.0,0.0,0.0,0.0,0.0,0.0,0.0,0.0,0.0,0.0,0.0,0.0,0.0,0.0,0.0,0.0,0.0,0.0,0.0,0.0,0.0,0.0,0.0,0.0,0.0,0.0,0.0,0.0,0.0,0.0,0.0,0.0,0.0,0.0,0.0,0.0,0.0,0.0,0.0,0.0,0.0,0.0,0.0,0.0,0.0,0.0,0.0,0.0,0.0,0.0,0.0,0.0,0.0,0.0,0.0,0.0,0.0,0.0,0.0,0.0,0.0,0.0,0.0,0.0,0.0,0.0,0.0,0.0,0.0,0.0,0.0,-1.7482,-1.677,-1.583,-1.3667,-1.1931,-1.0807,0.0,0.0,0.0,0.0,0.0,0.0,0.0,0.0,0.0,0.0,0.0,0.0,0.0,0.0,0.0,0.0,0.0,0.0,0.0,0.0,0.0,0.0,0.0,0.0,0.0,0.0,0.0,0.0,0.0,0.0,0.0,0.0,0.0,0.0,0.0,0.0,0.0,0.0,0.0,0.0,0.0,0.0,0.0,0.0,0.0,0.0,0.0,0.0,0.0,0.0,0.0,0.0,0.0,0.0,0.0,0.0,0.0,0.0,0.0,0.0,0.0,0.0,0.0,0.0,0.0,0.0,0.0,0.0,0.0,0.0,0.0,0.0,0.0,0.0,0.0,0.0,0.0,0.0,0.0,0.0,0.0,0.0,0.0,0.0,0.0,0.0,0.0,0.0,0.0,0.0,0.0,0.0,0.0,0.0,0.0,0.0,0.0,0.0,0.0,0.0,0.0,0.0,0.0,0.0,0.0,0.0,0.0,0.0,-2.0209,-1.9914,-1.8948,-1.733,-1.5361,-1.3626,0.0,0.0,0.0,0.0,0.0,0.0,0.0,0.0,0.0,0.0,0.0,0.0,0.0,0.0,0.0,0.0,0.0,0.0,0.0,0.0,0.0,0.0,0.0,0.0,0.0,0.0,0.0,0.0,0.0,0.0,0.0,0.0,0.0,0.0,0.0,0.0,0.0,0.0,0.0,0.0,0.0,0.0,0.0,0.0,0.0,0.0,0.0,0.0,0.0,0.0,0.0,0.0,0.0,0.0,0.0,0.0,0.0,0.0,0.0,0.0,0.0,0.0,0.0,0.0,0.0,0.0,0.0,0.0,0.0,0.0,0.0,0.0,0.0,0.0,0.0,0.0,0.0,0.0,0.0,0.0,0.0,0.0,0.0,0.0,0.0,0.0,0.0,0.0,0.0,0.0,0.0,0.0,0.0,0.0,0.0,0.0,0.0,0.0,0.0,0.0,0.0,0.0,0.0,0.0,0.0,0.0,0.0,0.0,0.0,-2.1996,-2.1358,-2.04,-1.9123,-1.7036,-1.5262,0.0,0.0,0.0,0.0,0.0,0.0,0.0,0.0,0.0,0.0,0.0,0.0,0.0,0.0,0.0,0.0,0.0,0.0,0.0,0.0,0.0,0.0,0.0,0.0,0.0,0.0,0.0,0.0,0.0,0.0,0.0,0.0,0.0,0.0,0.0,0.0,0.0,0.0,0.0,0.0,0.0,0.0,0.0,0.0,0.0,0.0,0.0,0.0,0.0,0.0,0.0,0.0,0.0,0.0,0.0,0.0,0.0,0.0,0.0,0.0,0.0,0.0,0.0,0.0,0.0,0.0,0.0,0.0,0.0,0.0,0.0,0.0,0.0,0.0,0.0,0.0,0.0,0.0,0.0,0.0,0.0,0.0,0.0,0.0,0.0,0.0,0.0,0.0,0.0,0.0,0.0,0.0,0.0,0.0,0.0,0.0,0.0,0.0,0.0,0.0,0.0,0.0,0.0,0.0,0.0,0.0,0.0,0.0,0.0,-2.3705,0.0,-2.1776,-2.0991,-1.8616,-1.6607,0.0,0.0,0.0,0.0,0.0,0.0,0.0,0.0,0.0,0.0,0.0,0.0,0.0,0.0,0.0,0.0,0.0,0.0,0.0,0.0,0.0,0.0,0.0,0.0,0.0,0.0,0.0,0.0,0.0,0.0,0.0,0.0,0.0,0.0,0.0,0.0,0.0,0.0,0.0,0.0,0.0,0.0,0.0,0.0,0.0,0.0,0.0,0.0,0.0,0.0,0.0,0.0,0.0,0.0,0.0,0.0,0.0,0.0,0.0,0.0,0.0,0.0,0.0,0.0,0.0,0.0,0.0,0.0,0.0,0.0,0.0,0.0,0.0,0.0,0.0,0.0,0.0,0.0,0.0,0.0,0.0,0.0,0.0,0.0,0.0,0.0,0.0,0.0,0.0,0.0,0.0,0.0,0.0,0.0,0.0,0.0,0.0,0.0,0.0,0.0,0.0,0.0,0.0,0.0,0.0,0.0,0.0,0.0,-2.4716,-2.5296,-2.4051,-2.3276,-2.2962,-2.0016,-1.7666,0.0,0.0,0.0,0.0,0.0,0.0,0.0,0.0,0.0,0.0,0.0,0.0,0.0,0.0,0.0,0.0,0.0,0.0,0.0,0.0,0.0,0.0,0.0,0.0,0.0,0.0,0.0,0.0,0.0,0.0,0.0,0.0,0.0,0.0,0.0,0.0,0.0,0.0,0.0,0.0,0.0,0.0,0.0,0.0,0.0,0.0,0.0,0.0,0.0,0.0,0.0,0.0,0.0,0.0,0.0,0.0,0.0,0.0,0.0,0.0,0.0,0.0,0.0,0.0,0.0,0.0,0.0,0.0,0.0,0.0,0.0,0.0,0.0,0.0,0.0,0.0,0.0,0.0,0.0,0.0,0.0,0.0,0.0,0.0,0.0,0.0,0.0,0.0,0.0,0.0,0.0,0.0,0.0,0.0,0.0,0.0,0.0,0.0,0.0,0.0,0.0,0.0,0.0,0.0,0.0,0.0,0.0,0.0,0.0,-2.5952,-2.5806,-2.5442,-2.4752,-2.2141,-1.9807,0.0,0.0,0.0,0.0,0.0,0.0,0.0,0.0,0.0,0.0,0.0,0.0,0.0,0.0,0.0,0.0,0.0,0.0,0.0,0.0,0.0,0.0,0.0,0.0,0.0,0.0,0.0,0.0,0.0,0.0,0.0,0.0,0.0,0.0,0.0,0.0,0.0,0.0,0.0,0.0,0.0,0.0,0.0,0.0,0.0,0.0,0.0,0.0,0.0,0.0,0.0,0.0,0.0,0.0,0.0,0.0,0.0,0.0,0.0,0.0,0.0,0.0,0.0,0.0,0.0,0.0,0.0,0.0,0.0,0.0,0.0,0.0,0.0,0.0,0.0,0.0,0.0,0.0,0.0,0.0,0.0,0.0,0.0,0.0,0.0,0.0,0.0,0.0,0.0,0.0,0.0,0.0,0.0,0.0,0.0,0.0,0.0,0.0,0.0,0.0,0.0,0.0,0.0,0.0,0.0,0.0,0.0,0.0,0.0,-2.8325,-2.8147,-2.7791,-2.7272,-2.4593,-2.1989,-1.9481,0.0,0.0,0.0,0.0,0.0,0.0,0.0,0.0,0.0,0.0,0.0,0.0,0.0,0.0,0.0,0.0,0.0,0.0,0.0,0.0,0.0,0.0,0.0,0.0,0.0,0.0,0.0,0.0,0.0,0.0,0.0,0.0,0.0,0.0,0.0,0.0,0.0,0.0,0.0,0.0,0.0,0.0,0.0,0.0,0.0,0.0,0.0,0.0,0.0,0.0,0.0,0.0,0.0,0.0,0.0,0.0,0.0,0.0,0.0,0.0,0.0,0.0,0.0,0.0,0.0,0.0,0.0,0.0,0.0,0.0,0.0,0.0,0.0,0.0,0.0,0.0,0.0,0.0,0.0,0.0,0.0,0.0,0.0,0.0,0.0,0.0,0.0,0.0,0.0,0.0,0.0,0.0,0.0,0.0,0.0,0.0,0.0,0.0,0.0,0.0,0.0,0.0,0.0,0.0,0.0,0.0,0.0,0.0,-3.203,-3.1006,-3.0452,-3.0294,-2.7284,-2.4173,0.0,0.0,0.0,0.0,0.0,0.0,0.0,0.0,0.0,0.0,0.0,0.0,0.0,0.0,0.0,0.0,0.0,0.0,0.0,0.0,0.0,0.0,0.0,0.0,0.0,0.0,0.0,0.0,0.0,0.0,0.0,0.0,0.0,0.0,0.0,0.0,0.0,0.0,0.0,0.0,0.0,0.0,0.0,0.0,0.0,0.0,0.0,0.0,0.0,0.0,0.0,0.0,0.0,0.0,0.0,0.0,0.0,0.0,0.0,0.0,0.0,0.0,0.0,0.0,0.0,0.0,0.0,0.0,0.0,0.0,0.0,0.0,0.0,0.0,0.0,0.0,0.0,0.0,0.0,0.0,0.0,0.0,0.0,0.0,0.0,0.0,0.0,0.0,0.0,0.0,0.0,0.0,0.0,0.0,0.0,0.0,0.0,0.0,0.0,0.0,0.0,0.0,0.0,0.0,0.0,0.0,0.0,0.0,0.0,-3.3672,-3.4695,-3.4589,-3.3261,-3.006,-2.6959,0.0,0.0,0.0,0.0,0.0,0.0,0.0,0.0,0.0,0.0,0.0,0.0,0.0,0.0,0.0,0.0,0.0,0.0,0.0,0.0,0.0,0.0,0.0,0.0,0.0,0.0,0.0,0.0,0.0,0.0,0.0,0.0,0.0,0.0,0.0,0.0,0.0,0.0,0.0,0.0,0.0,0.0,0.0,0.0,0.0,0.0,0.0,0.0,0.0,0.0,0.0,0.0,0.0,0.0,0.0,0.0,0.0,0.0,0.0,0.0,0.0,0.0,0.0,0.0,0.0,0.0,0.0,0.0,0.0,0.0,0.0,0.0,0.0,0.0,0.0,0.0,0.0,0.0,0.0,0.0,0.0,0.0,0.0,0.0,0.0,0.0,0.0,0.0,0.0,0.0,0.0,0.0,0.0,0.0,0.0,0.0,0.0,0.0,0.0,0.0,0.0,0.0,0.0,0.0,0.0,0.0,0.0,0.0,-3.3057,-3.4937,-3.7009,-3.7371,-3.5852,-3.2236,-2.8764,0.0,0.0,0.0,0.0,0.0,0.0,0.0,0.0,0.0,0.0,0.0,0.0,0.0,0.0,0.0,0.0,0.0,0.0,0.0,0.0,0.0,0.0,0.0,0.0,0.0,0.0,0.0,0.0,0.0,0.0,0.0,0.0,0.0,0.0,0.0,0.0,0.0,0.0,0.0,0.0,0.0,0.0,0.0,0.0,0.0,0.0,0.0,0.0,0.0,0.0,0.0,0.0,0.0,0.0,0.0,0.0,0.0,0.0,0.0,0.0,0.0,0.0,0.0,0.0,0.0,0.0,0.0,0.0,0.0,0.0,0.0,0.0,0.0,0.0,0.0,0.0,0.0,0.0,0.0,0.0,0.0,0.0,0.0,0.0,0.0,0.0,0.0,0.0,0.0,0.0,0.0,0.0,0.0,0.0,0.0,0.0,0.0,0.0,0.0,0.0,0.0,0.0,0.0,0.0,0.0,0.0,0.0,0.0,-3.4757,-3.5704,-3.8163,-3.8846,-3.7549,-3.3726,-2.9956,0.0,0.0,0.0,0.0,0.0,0.0,0.0,0.0,0.0,0.0,0.0,0.0,0.0,0.0,0.0,0.0,0.0,0.0,0.0,0.0,0.0,0.0,0.0,0.0,0.0,0.0,0.0,0.0,0.0,0.0,0.0,0.0,0.0,0.0,0.0,0.0,0.0,0.0,0.0,0.0,0.0,0.0,0.0,0.0,0.0,0.0,0.0,0.0,0.0,0.0,0.0,0.0,0.0,0.0,0.0,0.0,0.0,0.0,0.0,0.0,0.0,0.0,0.0,0.0,0.0,0.0,0.0,0.0,0.0,0.0,0.0,0.0,0.0,0.0,0.0,0.0,0.0,0.0,0.0,0.0,0.0,0.0,0.0,0.0,0.0,0.0,0.0,0.0,0.0,0.0,0.0,0.0,0.0,0.0,0.0,0.0,0.0,0.0,0.0,0.0,0.0,0.0,0.0,0.0,0.0,0.0,0.0,0.0,-3.4654,-3.5684,-3.7585,-3.7803,-3.6188,-3.3906,-3.1235,0.0,0.0,0.0,0.0,0.0,0.0,0.0,0.0,0.0,0.0,0.0,0.0,0.0,0.0,0.0,0.0,0.0,0.0,0.0,0.0,0.0,0.0,0.0,0.0,0.0,0.0,0.0,0.0,0.0,0.0,0.0,0.0,0.0,0.0,0.0,0.0,0.0,0.0,0.0,0.0,0.0,0.0,0.0,0.0,0.0,0.0,0.0,0.0,-2.4039,0.0,0.0,0.0,0.0,0.0,0.0,0.0,0.0,0.0,0.0,0.0,0.0,0.0,0.0,0.0,0.0,0.0,0.0,0.0,0.0,0.0,0.0,0.0,0.0,0.0,0.0,0.0,0.0,0.0,0.0,0.0,0.0,0.0,0.0,0.0,0.0,0.0,0.0,0.0,0.0,0.0,0.0,0.0,0.0,0.0,0.0,0.0,0.0,0.0,0.0,0.0,0.0,0.0,0.0,0.0,0.0,0.0,0.0,0.0,-3.5573,-3.6258,-3.7607,-3.7471,-3.5736,-3.4109,-3.192,0.0,0.0,0.0,0.0,0.0,0.0,0.0,0.0,0.0,0.0,0.0,0.0,0.0,0.0,0.0,0.0,0.0,0.0,0.0,0.0,0.0,0.0,0.0,0.0,0.0,0.0,0.0,0.0,0.0,0.0,0.0,0.0,0.0,0.0,0.0,0.0,0.0,0.0,0.0,0.0,0.0,0.0,0.0,0.0,0.0,0.0,0.0,0.0,0.0,0.0,0.0,0.0,0.0,0.0,0.0,0.0,0.0,0.0,0.0,0.0,0.0,0.0,0.0,0.0,0.0,0.0,0.0,0.0,0.0,0.0,0.0,0.0,0.0,0.0,0.0,0.0,0.0,0.0,0.0,0.0,0.0,0.0,0.0,0.0,0.0,0.0,0.0,0.0,0.0,0.0,0.0,0.0,0.0,0.0,0.0,0.0,0.0,0.0,0.0,0.0,0.0,0.0,0.0,0.0,0.0,0.0,0.0,-3.5315,-3.6708,-3.7128,-3.7891,-3.7451,-3.5736,-3.4348,-3.2245,-2.9345,0.0,0.0,0.0,0.0,0.0,0.0,0.0,0.0,0.0,0.0,0.0,0.0,0.0,0.0,0.0,0.0,0.0,0.0,0.0,0.0,0.0,0.0,0.0,0.0,0.0,0.0,0.0,0.0,0.0,0.0,0.0,0.0,0.0,0.0,0.0,0.0,0.0,0.0,-2.4699,-2.6072,0.0,0.0,0.0,0.0,0.0,0.0,0.0,0.0,-3.0106,0.0,0.0,0.0,0.0,0.0,0.0,0.0,0.0,0.0,0.0,0.0,0.0,0.0,0.0,0.0,0.0,0.0,0.0,0.0,0.0,0.0,0.0,0.0,0.0,0.0,0.0,0.0,0.0,0.0,0.0,0.0,0.0,0.0,0.0,0.0,0.0,0.0,0.0,0.0,0.0,0.0,0.0,0.0,0.0,0.0,0.0,0.0,0.0,0.0,0.0,0.0,0.0,0.0,0.0,0.0,0.0,-3.3757,-3.5583,-3.703,-3.8027,-3.821,-3.7471,-3.5743,-3.4348,-3.23,-2.9496,0.0,0.0,0.0,0.0,0.0,0.0,0.0,0.0,0.0,0.0,0.0,0.0,0.0,0.0,0.0,0.0,0.0,0.0,0.0,0.0,0.0,0.0,0.0,0.0,0.0,0.0,0.0,0.0,0.0,0.0,0.0,0.0,0.0,0.0,0.0,0.0,0.0,0.0,0.0,-2.7514,-2.7695,0.0,0.0,0.0,0.0,0.0,0.0,0.0,0.0,-3.2702,0.0,0.0,0.0,0.0,0.0,0.0,0.0,0.0,0.0,0.0,0.0,0.0,0.0,0.0,0.0,0.0,0.0,0.0,0.0,0.0,0.0,0.0,0.0,0.0,0.0,0.0,0.0,0.0,0.0,0.0,0.0,0.0,0.0,0.0,0.0,0.0,0.0,0.0,0.0,0.0,0.0,0.0,0.0,0.0,0.0,0.0,0.0,0.0,0.0,0.0,0.0,0.0,0.0,0.0,0.0,-3.4561,-3.6814,-3.8073,-3.828,-3.8319,-3.7511,-3.5756,-3.4328,-3.2317,0.0,0.0,0.0,0.0,0.0,0.0,0.0,0.0,0.0,0.0,0.0,0.0,0.0,0.0,0.0,0.0,0.0,0.0,0.0,0.0,0.0,0.0,0.0,0.0,0.0,0.0,0.0,0.0,0.0,0.0,0.0,0.0,0.0,0.0,0.0,0.0,0.0,0.0,0.0,0.0,-3.0462,-3.1404,-3.304,0.0,0.0,0.0,0.0,0.0,0.0,-3.5678,-3.4724,0.0,0.0,0.0,0.0,0.0,0.0,0.0,0.0,0.0,0.0,0.0,0.0,0.0,0.0,0.0,0.0,0.0,0.0,0.0,0.0,0.0,0.0,0.0,0.0,0.0,0.0,0.0,0.0,0.0,0.0,0.0,0.0,0.0,0.0,0.0,0.0,0.0,0.0,0.0,0.0,0.0,0.0,0.0,0.0,0.0,0.0,0.0,0.0,0.0,0.0,0.0,0.0,0.0,0.0,0.0,-3.52,-3.7737,-3.8806,-3.8327,-3.8185,-3.7343,-3.5736,-3.4174,-3.2086,0.0,0.0,0.0,0.0,0.0,0.0,0.0,0.0,0.0,0.0,0.0,0.0,0.0,0.0,0.0,0.0,0.0,0.0,0.0,0.0,0.0,0.0,0.0,0.0,0.0,0.0,0.0,0.0,0.0,0.0,0.0,0.0,0.0,0.0,0.0,0.0,0.0,0.0,0.0,0.0,0.0,-3.5326,-3.5877,-3.5659,0.0,0.0,0.0,0.0,-3.7126,-3.7199,0.0,0.0,0.0,0.0,0.0,0.0,0.0,0.0,0.0,0.0,0.0,0.0,0.0,0.0,0.0,0.0,0.0,0.0,0.0,0.0,0.0,0.0,0.0,0.0,0.0,0.0,0.0,0.0,0.0,0.0,0.0,0.0,0.0,0.0,0.0,0.0,0.0,0.0,0.0,0.0,0.0,0.0,0.0,0.0,0.0,0.0,0.0,0.0,0.0,0.0,0.0,0.0,0.0,0.0,0.0,0.0,-3.5162,-3.7126,-3.8194,-3.8268,-3.7595,-3.6757,-3.5717,-3.3644,-3.1329,0.0,0.0,0.0,0.0,0.0,0.0,0.0,0.0,0.0,0.0,0.0,0.0,0.0,0.0,0.0,0.0,0.0,0.0,0.0,0.0,0.0,0.0,0.0,0.0,0.0,0.0,0.0,0.0,0.0,0.0,0.0,0.0,0.0,0.0,0.0,0.0,0.0,0.0,0.0,0.0,0.0,-3.7463,-3.7829,-3.7297,-3.6895,0.0,0.0,-3.8606,-3.9751,-3.98,0.0,0.0,0.0,0.0,0.0,0.0,0.0,0.0,0.0,0.0,0.0,0.0,0.0,0.0,0.0,0.0,0.0,0.0,0.0,0.0,0.0,0.0,0.0,0.0,0.0,0.0,0.0,0.0,0.0,0.0,0.0,0.0,0.0,0.0,0.0,0.0,0.0,0.0,0.0,0.0,0.0,0.0,0.0,0.0,0.0,0.0,0.0,0.0,0.0,0.0,0.0,0.0,0.0,0.0,0.0,-3.3313,-3.5347,-3.7699,-3.873,-3.8369,-3.7569,-3.6684,-3.573,-3.355,-3.1217,0.0,0.0,0.0,0.0,0.0,0.0,0.0,0.0,0.0,0.0,0.0,0.0,0.0,0.0,0.0,0.0,0.0,0.0,0.0,0.0,0.0,0.0,0.0,0.0,0.0,0.0,0.0,0.0,0.0,0.0,0.0,0.0,0.0,0.0,0.0,0.0,0.0,0.0,0.0,0.0,0.0,0.0,-3.8254,-3.9179,0.0,0.0,0.0,-3.9123,-3.8617,0.0,0.0,0.0,0.0,0.0,0.0,0.0,0.0,0.0,0.0,0.0,0.0,0.0,0.0,0.0,0.0,0.0,0.0,0.0,0.0,0.0,0.0,0.0,0.0,0.0,0.0,0.0,0.0,0.0,0.0,0.0,0.0,0.0,0.0,0.0,0.0,0.0,0.0,0.0,0.0,0.0,0.0,0.0,0.0,0.0,0.0,0.0,0.0,0.0,0.0,0.0,0.0,0.0,0.0,0.0,0.0,0.0,-3.5198,-3.7907,-3.8884,-3.8085,-3.7283,-3.6504,-3.5703,-3.3797,0.0,0.0,0.0,0.0,0.0,0.0,0.0,0.0,0.0,0.0,0.0,0.0,0.0,0.0,0.0,0.0,0.0,0.0,0.0,0.0,0.0,0.0,0.0,0.0,0.0,0.0,0.0,-1.8676,0.0,0.0,0.0,0.0,0.0,0.0,0.0,0.0,0.0,0.0,0.0,0.0,0.0,0.0,-3.8238,-3.8299,-4.0187,-4.1105,0.0,0.0,-3.9344,-3.8145,-3.8409,-3.7463,0.0,0.0,0.0,0.0,0.0,0.0,0.0,0.0,0.0,0.0,0.0,0.0,0.0,0.0,0.0,0.0,0.0,0.0,0.0,0.0,0.0,0.0,0.0,0.0,0.0,0.0,0.0,0.0,0.0,0.0,0.0,0.0,0.0,0.0,0.0,0.0,0.0,0.0,0.0,0.0,0.0,0.0,0.0,0.0,0.0,0.0,0.0,0.0,0.0,0.0,0.0,0.0,0.0,0.0,-3.3467,-3.4429,-3.7023,-3.8007,-3.7203,-3.6404,-3.5895,-3.5691,-3.4513,-3.2783,0.0,0.0,0.0,0.0,0.0,0.0,0.0,0.0,0.0,0.0,0.0,0.0,0.0,0.0,0.0,0.0,0.0,0.0,0.0,0.0,0.0,0.0,0.0,0.0,0.0,0.0,0.0,0.0,0.0,0.0,0.0,0.0,0.0,0.0,0.0,0.0,0.0,0.0,0.0,0.0,0.0,-3.7484,-3.8194,-3.9614,-4.0688,0.0,-4.0024,-3.9556,-4.0233,-3.9265,-3.7488,-3.4636,0.0,0.0,0.0,0.0,0.0,0.0,0.0,0.0,0.0,0.0,0.0,0.0,0.0,0.0,0.0,0.0,0.0,0.0,0.0,0.0,0.0,0.0,0.0,0.0,0.0,0.0,0.0,0.0,0.0,0.0,0.0,0.0,0.0,0.0,0.0,0.0,0.0,0.0,0.0,0.0,0.0,0.0,0.0,0.0,0.0,0.0,0.0,0.0,0.0,0.0,0.0,0.0,0.0,-3.3576,-3.4503,-3.7058,-3.7975,-3.7167,-3.6267,-3.573,-3.5648,-3.4532,-3.2877,0.0,0.0,0.0,0.0,0.0,0.0,0.0,0.0,0.0,0.0,0.0,0.0,0.0,0.0,0.0,0.0,0.0,0.0,0.0,0.0,0.0,0.0,0.0,0.0,0.0,0.0,0.0,0.0,-2.7065,-2.7266,-2.6691,0.0,0.0,0.0,0.0,0.0,0.0,0.0,0.0,0.0,0.0,-3.8205,-3.8992,-4.0215,0.0,0.0,-4.0403,-3.9859,-3.9704,-3.8563,-3.6956,-3.4695,-3.3508,0.0,0.0,0.0,0.0,0.0,0.0,0.0,0.0,0.0,0.0,0.0,0.0,0.0,0.0,0.0,0.0,0.0,0.0,0.0,0.0,0.0,0.0,0.0,0.0,0.0,0.0,0.0,0.0,0.0,0.0,0.0,0.0,0.0,0.0,0.0,0.0,0.0,0.0,0.0,0.0,0.0,0.0,0.0,0.0,0.0,0.0,0.0,0.0,0.0,0.0,0.0,0.0,-3.3776,-3.4259,-3.697,-3.7849,-3.6824,-3.6054,-3.5646,-3.5591,-3.4808,-3.3468,0.0,0.0,0.0,0.0,0.0,0.0,0.0,0.0,0.0,0.0,0.0,0.0,0.0,0.0,0.0,0.0,0.0,0.0,0.0,0.0,0.0,0.0,0.0,0.0,0.0,0.0,0.0,0.0,-2.808,-2.761,-2.6691,0.0,0.0,0.0,0.0,0.0,0.0,0.0,0.0,0.0,0.0,-3.8844,-3.912,-4.0235,-4.092,-4.0628,-4.0251,-3.9727,-3.8878,-3.7775,-3.6418,-3.4687,0.0,0.0,0.0,0.0,0.0,0.0,0.0,0.0,0.0,0.0,0.0,0.0,0.0,0.0,0.0,0.0,0.0,0.0,0.0,0.0,0.0,0.0,0.0,0.0,0.0,0.0,0.0,-2.5096,0.0,0.0,-2.4486,0.0,0.0,0.0,0.0,0.0,0.0,0.0,0.0,0.0,0.0,0.0,0.0,0.0,0.0,0.0,0.0,0.0,0.0,0.0,0.0,0.0,0.0,-3.406,-3.3476,-3.666,-3.7537,-3.5997,-3.5718,-3.5591,-3.5562,-3.5489,-3.4725,-3.3221,0.0,0.0,0.0,0.0,0.0,0.0,0.0,0.0,0.0,0.0,0.0,0.0,0.0,0.0,0.0,0.0,0.0,0.0,0.0,0.0,0.0,0.0,0.0,0.0,0.0,0.0,-2.7666,-2.9287,-2.972,0.0,0.0,0.0,0.0,0.0,0.0,0.0,0.0,0.0,0.0,-3.7962,-3.9217,-3.831,-3.9314,-4.0061,-3.9735,-3.9471,-3.899,-3.8135,-3.7057,-3.5932,0.0,0.0,0.0,0.0,0.0,0.0,0.0,0.0,0.0,0.0,0.0,0.0,0.0,0.0,0.0,0.0,0.0,0.0,0.0,0.0,0.0,0.0,0.0,0.0,0.0,0.0,0.0,-2.7,-2.6849,0.0,0.0,0.0,0.0,0.0,0.0,0.0,0.0,0.0,0.0,0.0,-3.309,-3.3408,0.0,0.0,0.0,0.0,0.0,0.0,0.0,0.0,0.0,0.0,0.0,0.0,-3.4018,-3.3453,-3.6594,-3.7453,-3.5767,-3.565,-3.5298,-3.4673,-3.4477,-3.3652,-3.2132,0.0,0.0,0.0,0.0,0.0,0.0,0.0,0.0,0.0,0.0,0.0,0.0,0.0,0.0,0.0,0.0,0.0,0.0,0.0,0.0,0.0,0.0,0.0,0.0,0.0,-2.8484,0.0,0.0,0.0,0.0,0.0,0.0,0.0,0.0,0.0,0.0,0.0,-3.6889,-3.8284,-3.8578,-3.8763,-3.901,-3.8658,-3.8877,0.0,0.0,0.0,0.0,0.0,0.0,0.0,0.0,0.0,0.0,0.0,0.0,0.0,0.0,-2.9855,-2.9547,-2.9726,-2.9689,-2.8905,0.0,0.0,0.0,0.0,0.0,0.0,0.0,0.0,0.0,0.0,0.0,0.0,0.0,0.0,-2.8503,0.0,-2.8297,0.0,0.0,0.0,0.0,0.0,0.0,0.0,0.0,-3.3923,-3.4977,-3.5416,-3.5826,-3.5947,0.0,-3.604,-3.435,0.0,0.0,0.0,0.0,0.0,0.0,0.0,0.0,-3.4085,-3.3737,-3.6382,-3.7083,-3.567,-3.527,-3.4769,-3.4059,-3.3432,-3.2769,-3.2034,-3.0775,-2.9536,0.0,0.0,0.0,0.0,0.0,0.0,0.0,0.0,0.0,0.0,0.0,0.0,0.0,0.0,0.0,0.0,0.0,0.0,0.0,0.0,0.0,0.0,0.0,-2.9483,0.0,0.0,0.0,0.0,0.0,0.0,0.0,0.0,0.0,-3.4574,-3.6849,-3.8789,-3.9546,-3.9332,-3.8983,-3.8566,0.0,0.0,0.0,0.0,0.0,0.0,0.0,-3.5403,-3.5722,-3.5129,-3.4688,-3.4711,-3.3229,-3.1783,-3.1127,0.0,0.0,-3.0492,-3.0544,-3.054,-3.0191,-3.0282,-3.0817,-3.2005,-3.1565,-3.0689,0.0,0.0,0.0,0.0,0.0,0.0,0.0,0.0,-3.0174,-3.0216,0.0,-2.947,0.0,0.0,0.0,0.0,0.0,-3.0595,0.0,0.0,-3.5845,-3.7242,-3.7627,-3.7521,-3.7448,-3.7387,-3.6644,-3.623,-3.6103,-3.6188,0.0,0.0,0.0,0.0,0.0,0.0,-3.4274,-3.4381,-3.6038,-3.6482,-3.562,-3.4692,-3.4054,-3.3669,-3.2448,-3.2157,-3.2854,-3.1701,-3.08,-3.0198,-2.8034,0.0,0.0,0.0,0.0,0.0,0.0,0.0,0.0,0.0,0.0,0.0,0.0,0.0,0.0,0.0,0.0,0.0,0.0,0.0,0.0,-2.9849,0.0,0.0,0.0,0.0,0.0,0.0,0.0,0.0,0.0,0.0,-3.66,-3.908,-4.0479,-3.9507,0.0,0.0,0.0,0.0,-3.8246,-3.6464,-3.654,-3.6456,-3.5465,-3.4954,-3.4782,-3.5133,0.0,0.0,-3.5122,-3.3471,-3.1907,-3.1241,-3.1055,-3.1123,-3.1055,-3.1099,-3.1159,-3.1151,-3.1342,-3.1305,-3.0475,-3.0929,-3.1154,-3.0948,0.0,0.0,0.0,0.0,-3.0996,-3.1359,-3.1891,-3.1873,-3.1891,-3.1916,-3.1696,0.0,0.0,0.0,0.0,0.0,0.0,-3.1525,-3.4005,-3.4741,-3.5918,-3.7558,-3.7507,-3.779,-3.8328,-3.8658,-3.9067,-3.9617,-3.9653,-3.7576,-3.3629,0.0,0.0,0.0,0.0,-3.5039,-3.5206,-3.6215,-3.6357,-3.5534,-3.4668,-3.3408,-3.1857,-3.1393,-3.14,-3.185,-3.2019,-3.1809,-3.1058,-2.9737,0.0,0.0,0.0,0.0,0.0,0.0,0.0,0.0,0.0,0.0,0.0,0.0,0.0,0.0,0.0,0.0,0.0,0.0,0.0,-2.9998,-3.0601,-3.0325,0.0,0.0,0.0,0.0,0.0,0.0,0.0,0.0,0.0,-3.5772,-3.7753,-3.9141,0.0,0.0,-3.6798,-3.5951,-3.5196,-3.4829,-3.5208,-3.4301,0.0,-3.4413,-3.3301,-3.2574,-3.3154,-3.3099,-3.2778,-3.2284,-3.1147,-3.0155,-2.9726,-2.9617,-2.9655,-2.9651,-3.0095,-3.0598,-3.1011,-3.066,-3.0213,-3.0166,-3.0624,-3.0657,-3.1621,-3.1517,-3.1701,-3.1676,-3.1538,-3.1574,-3.1789,-3.21,-3.1788,-3.1825,-3.21,-3.1788,-3.1409,-3.0967,-2.9791,0.0,0.0,0.0,-3.1044,-3.3743,-3.3738,-3.4881,-3.6938,-3.7,-3.7276,-3.7753,-3.8248,-3.8891,-3.9662,-3.968,-3.8077,-3.5018,0.0,0.0,-3.4547,-3.4737,-3.5038,-3.5468,-3.5968,-3.5988,-3.5507,-3.4131,-3.2461,-3.0561,-3.0245,-3.0408,-3.0913,-3.1678,-3.1892,-3.1377,-3.0709,-2.9162,0.0,0.0,0.0,0.0,0.0,0.0,0.0,0.0,0.0,0.0,0.0,-2.4224,-2.5806,0.0,0.0,0.0,-3.0,-3.0506,-3.0898,-3.0888,0.0,0.0,0.0,0.0,0.0,0.0,0.0,-3.155,-3.2333,-3.3203,-3.4312,-3.5454,-3.6577,-3.7765,-3.6257,-3.4892,-3.4526,0.0,-3.3417,-3.3554,-3.2587,-3.209,-3.2705,-3.1848,-3.1286,-3.1905,-3.1663,-3.1249,-3.0956,-3.0264,-2.9606,-2.9299,-2.9299,-2.9283,-2.8835,-2.9265,-2.9782,-3.023,-3.004,-2.9572,-2.8924,-2.9283,-2.9476,-3.1467,-3.1366,-3.1102,-3.0985,-3.0978,-3.1584,-3.1677,-3.1354,-3.0632,-3.0705,-3.1311,-3.0613,-3.0289,-3.0249,-2.9662,0.0,-2.9378,-2.9382,-3.0613,-3.2813,-3.2836,-3.3969,-3.5983,-3.6121,-3.6148,-3.6211,-3.6193,-3.6615,-3.7386,-3.7452,-3.7022,-3.6353,-3.659,-3.6404,-3.5769,-3.4664,-3.4539,-3.5393,-3.5402,-3.5378,-3.5359,-3.332,-3.1447,-2.9883,-2.931,-2.9407,-3.0191,-3.098,-3.1374,-3.131,-3.1238,-3.0161,-2.7883,0.0,0.0,0.0,0.0,0.0,0.0,0.0,0.0,0.0,0.0,0.0,0.0,0.0,0.0,0.0,-3.1411,0.0,-3.1766,-3.0785,0.0,0.0,0.0,-3.0436,-3.1219,-3.0831,-3.0926,-3.1977,0.0,0.0,-3.2563,-3.2635,-3.3179,-3.4795,-3.436,-3.3583,-3.2718,-3.3058,-3.3018,-3.1424,-3.1083,-3.088,-3.0565,-3.0316,-3.0253,-3.0698,-3.0719,-3.0333,-3.0232,-2.9911,-2.9572,-2.9067,-2.9449,-2.9347,-2.8337,-2.8395,-2.8787,-2.8908,-2.9394,-2.9154,-2.7317,-2.7546,-2.7893,-2.8878,-2.8783,-2.8568,-2.9763,-3.1826,-3.1611,-3.1483,-3.1366,-3.1182,-3.1219,-3.1384,-3.1225,-3.0785,-3.0215,-3.0055,-2.966,-2.9079,-2.8643,-2.9392,-3.1061,-3.1311,-3.2241,-3.3704,-3.4389,-3.4892,-3.5293,-3.533,-3.5752,-3.656,-3.6578,-3.6213,-3.5504,-3.5198,-3.5058,-3.5038,-3.4432,-3.4539,-3.5474,-3.4834,-3.4507,-3.4468,-3.32,-3.1925,-3.0712,-2.9791,-2.9591,-3.0173,-3.0962,-3.1374,-3.1345,-3.185,-3.1237,-2.9254,-2.7553,0.0,0.0,0.0,0.0,0.0,0.0,0.0,0.0,0.0,-2.6577,-2.7383,0.0,-3.0463,0.0,-3.1519,-3.1507,-3.0688,-3.0349,0.0,0.0,-2.9379,-2.9407,-2.966,-3.0189,-3.0522,-3.0319,-3.0163,-3.0276,-3.0855,-3.0398,-3.016,-3.0583,-3.1037,-3.0999,-3.016,-2.9602,-2.9244,-2.8875,-2.8619,-2.8389,-2.8324,-2.7974,-2.7862,-2.7739,-2.7679,-2.7487,-2.7211,-2.7051,-2.6853,-2.6521,-2.6511,-2.6468,-2.6325,-2.6499,-2.7107,-2.7895,-2.8038,-2.7653,-2.6759,-2.683,-2.684,-2.8001,-2.7923,-2.7675,-2.8551,-3.008,-2.9617,-2.9333,-2.9274,-2.9255,-2.9274,-2.9255,-2.9255,-2.9017,-2.8613,-2.8688,-2.8448,-2.7938,-2.7772,-2.8334,-2.9465,-3.0452,-3.1427,-3.2409,-3.3613,-3.4309,-3.4468,-3.444,-3.4541,-3.4651,-3.4669,-3.4091,-3.3018,-3.2929,-3.258,-3.2033,-3.2981,-3.3791,-3.4326,-3.4243,-3.4199,-3.416,-3.3035,-3.1794,-3.0481,-2.9343,-2.8867,-2.9173,-2.994,-3.0374,-3.0439,-3.1111,-3.0801,-2.9278,-2.7808,-2.6274,0.0,0.0,0.0,0.0,0.0,0.0,0.0,0.0,0.0,0.0,0.0,-3.0474,-3.0283,-3.0791,-3.0761,-2.9803,-2.9701,-2.9641,-2.9549,-2.9549,-2.9677,-3.0073,-3.0397,-3.049,-3.0263,-2.9687,-2.9421,-2.9697,-2.9071,-2.842,-2.8063,-2.8409,-2.8679,-2.8582,-2.8159,-2.7775,-2.7409,-2.7198,-2.7039,-2.6873,-2.6885,-2.6822,-2.6675,-2.6817,-2.6808,-2.6354,-2.6068,-2.5863,-2.5779,-2.5882,-2.5931,-2.5783,-2.6027,-2.654,-2.6976,-2.6918,-2.6354,-2.5691,-2.5826,-2.5926,-2.7731,-2.7638,-2.7316,-2.7165,-2.7151,-2.6789,-2.6656,-2.6677,-2.6657,-2.6615,-2.6612,-2.6633,-2.6636,-2.6657,-2.6802,-2.6783,-2.6659,-2.6913,-2.732,-2.7884,-2.9681,-3.0735,-3.1173,-3.2866,-3.3515,-3.3269,-3.3217,-3.2868,-3.2187,-3.2137,-3.1384,-3.0,-3.0353,-2.9792,-2.8431,-3.0858,-3.2237,-3.243,-3.3378,-3.3872,-3.3853,-3.2597,-3.1236,-2.9834,-2.8462,-2.7767,-2.7764,-2.8452,-2.8889,-2.9024,-2.9804,-2.9688,-2.8608,-2.7504,-2.635,0.0,-2.3927,0.0,0.0,0.0,0.0,0.0,0.0,0.0,0.0,-2.9765,-2.999,-2.9198,-2.9687,-2.9738,-2.8993,-2.8966,-2.9292,-2.9953,-3.0044,-3.0283,-3.084,-3.052,-3.0295,-3.0414,-2.9383,-2.8727,-2.8868,-2.8236,-2.7428,-2.6832,-2.6621,-2.6832,-2.7371,-2.7486,-2.7178,-2.6524,-2.6447,-2.6301,-2.602,-2.6303,-2.6507,-2.6407,-2.6569,-2.6864,-2.6264,-2.5834,-2.56,-2.5715,-2.5921,-2.6063,-2.5837,-2.5998,-2.6248,-2.6217,-2.5866,-2.5328,-2.4624,-2.4791,-2.4979,-2.597,-2.5867,-2.5584,-2.5456,-2.5463,-2.5281,-2.5922,-2.7078,-2.6898,-2.6742,-2.6615,-2.6762,-2.6859,-2.6841,-2.6879,-2.6879,-2.6823,-2.6401,-2.6212,-2.6227,-2.7747,-2.8313,-2.8178,-2.9933,-3.0656,-3.0392,-3.0225,-3.0083,-2.9935,-2.977,-2.9265,-2.8436,-2.867,-2.8365,-2.7588,0.0,0.0,0.0,-3.1371,-3.2128,-3.2045,-3.0996,-3.0219,-2.9777,-2.8035,0.0,-2.6958,-2.7629,-2.7856,-2.7582,-2.8927,0.0,0.0,0.0,0.0,0.0,0.0,0.0,0.0,0.0,0.0,0.0,-2.4874,-2.6005,-2.7085,-2.8611,-2.9169,-2.8307,-2.885,-2.8975,-2.814,-2.8631,-2.909,-2.9195,-2.9237,-2.9053,-2.858,-2.841,-2.8241,-2.7926,-2.7808,-2.7835,-2.8022,-2.7371,-2.6794,-2.6544,-2.5986,-2.563,-2.5813,-2.588,-2.5745,-2.5563,-2.562,-2.5482,-2.5234,-2.5329,-2.537,-2.501,-2.4928,-2.4968,-2.4799,-2.4667,-2.4537,-2.4586,-2.4609,-2.4704,-2.4588,-2.4609,-2.4759,-2.4669,-2.4595,-2.4428,-2.4244,-2.4299,-2.4373,-2.5488,0.0,-2.5245,-2.5152,0.0,-2.5091,-2.552,-2.623,-2.5876,-2.5671,-2.5578,-2.5671,-2.5777,-2.586,-2.5938,-2.5938,-2.5876,-2.5712,-2.5549,-2.5446,-2.712,-2.7694,-2.7392,-2.9167,-2.9848,-2.9588,-2.9397,-2.8886,-2.8143,-2.8003,-2.7329,-2.6145,-2.6447,-2.6403,-2.6095,-2.6395,-2.7396,-2.9094,-2.9948,-3.041,-3.0328,-2.974,-2.8998,-2.8137,-2.694,0.0,0.0,0.0,0.0,0.0,0.0,0.0,0.0,0.0,0.0,-2.5223,-2.4444,-2.3929,-2.3728,-2.3774,-2.3858,-2.4034,-2.4805,-2.569,-2.6581,-2.7453,-2.7767,-2.7316,-2.7647,-2.7702,-2.7273,-2.7585,-2.7801,-2.7824,-2.7896,-2.7793,-2.7466,-2.753,-2.7563,-2.7365,-2.7166,-2.711,-2.7225,-2.6505,-2.6005,-2.5947,-2.561,-2.5313,-2.5313,-2.5313,-2.5313,-2.5313,-2.5313,-2.5224,-2.5046,-2.4991,-2.4879,-2.4588,-2.442,-2.4317,-2.4209,-2.419,-2.419,-2.419,-2.419,-2.419,-2.419,-2.419,-2.419,-2.419,-2.419,-2.419,-2.419,-2.419,-2.419,-2.5507,-2.5493,-2.5368,-2.5322,-2.5322,-2.5293,-2.5274,-2.5214,0.0,0.0,0.0,-2.4575,-2.4682,-2.4842,-2.4949,-2.4937,-2.4855,-2.5107,-2.5141,-2.5031,-2.6672,-2.7301,-2.7132,-2.8493,-2.9053,-2.8846,-2.8633,-2.7867,-2.6596,-2.6542,-2.5782,-2.445,-2.4651,-2.4842,-2.4896,-2.516,-2.6332,-2.8313,-2.8582,-2.8582,-2.8437,-2.8268,-2.7555,-2.6211,-2.5649,-2.5429,-2.5546,-2.5338,-2.5474,-2.6012,-2.5914,-2.5801,-2.5742,-2.5082,-2.4721,-2.4747,-2.4154,-2.3858,-2.4016,-2.4036,-2.4074,-2.4208,-2.4795,-2.5605,-2.6521,-2.6612,-2.6557,-2.641,-2.6521,-2.6557,-2.641,-2.6539,-2.6633,-2.6657,-2.6801,-2.6879,-2.6767,-2.7044,-2.717,-2.7039,-2.6588,-2.637,-2.6351,-2.5774,-2.5313,-2.5303,-2.5322,-2.5313,-2.5313,-2.5313,-2.5313,-2.5313,-2.5313,-2.5253,-2.5099,-2.5057,-2.4924,-2.4663,-2.4444,-2.4312,-2.4248,-2.4228,-2.419,-2.419,-2.419,-2.419,-2.419,-2.419,-2.419,-2.419,-2.408,-2.3988,-2.3951,-2.3896,-2.3952,-2.5576,-2.5567,-2.5428,-2.5391,-2.5383,-2.5331,-2.5203,-2.5053,-2.4943,-2.4864,-2.4775,-2.4872,-2.493,-2.4993,-2.4998,-2.4998,-2.4955,-2.5041,-2.4968,-2.4861,-2.5398,-2.5568,-2.5373,-2.5776,-2.5943,-2.5891,-2.5691,-2.5494,-2.5272,-2.5173,-2.4938,-2.4764,-2.4891,-2.5053,-2.5222,-2.5264,-2.5476,-2.5851,-2.6563,-2.6591,-2.5878,-2.5808,-2.565,-2.5282,-2.4486,-2.4372,-2.4979,-2.4778,-2.4649,-2.4671,-2.4501,-2.4379,-2.4381,-2.4326,-2.4293,-2.4296,-2.4186,-2.4151,-2.417,-2.417,-2.4189,-2.419,-2.4318,-2.4997,-2.6447,-2.6612,-2.6319,-2.5697,-2.6135,-2.63,-2.5713,-2.6174,-2.6569,-2.6766,-2.686,-2.6692,-2.6185,-2.6266,-2.6168,-2.5583,-2.5461,-2.5524,-2.5534,-2.538,-2.5313,-2.5313,-2.5313,-2.5274,-2.5159,-2.5313,-2.5313,-2.5313,-2.5313,-2.5274,-2.5138,-2.5225,-2.5045,-2.4974,-2.4714,-2.4516,-2.4236,-2.41,-2.4026,-2.4154,-2.4044,-2.4061,-2.408,-2.419,-2.408,-2.3988,-2.3603,-2.3144,-2.296,-2.2922,-2.3142,-2.5308,-2.489,-2.4798,-2.4502,-2.4121,-2.449,-2.4851,-2.5163,-2.5163,-2.5065,-2.493,-2.4955,-2.5057,-2.5163,-2.5163,-2.5163,-2.5182,-2.5163,-2.5138,-2.5091,-2.5252,-2.5234,-2.5135,-2.4803,-2.4659,-2.463,-2.4438,-2.435,-2.4357,-2.4696,-2.4864,-2.4818,-2.4924,-2.5046,-2.5141,-2.5253,-2.5313,-2.5313,-2.5274,-2.4832,-2.3986,-2.3947,-2.3909,-2.385,-2.3785,-2.4174,-2.4917,-2.4771,-2.4654,-2.462,-2.4445,-2.434,-2.4358,-2.4284,-2.4207,-2.419,-2.419,-2.419,-2.419,-2.419,-2.419,-2.419,-2.419,-2.4523,-2.5393,-2.537,-2.5144,-2.4797,-2.5206,-2.5319,-2.4949,-2.5336,-2.5682,-2.5747,-2.5822,-2.5758,-2.5555,-2.5602,-2.5562,-2.5239,-2.5234,-2.5303,-2.5313,-2.5313,-2.5313,-2.5313,-2.5293,-2.4986,-2.4139,-2.4207,-2.4611,-2.512,-2.4947,-2.4678,-2.4639,-2.4659,-2.4389,-2.3782,-2.4004,-2.3933,-2.3454,-2.3124,-2.3044,-2.2992,-2.2976,-2.2905,-2.2905,-2.2868,-2.2923,-2.2973,-2.2701,-2.2351,-2.2354,-2.239,-2.2622,-2.4829,-2.4024,-2.3968,-2.3601,-2.3052,-2.3605,-2.4215,-2.4761,-2.4761,-2.4793,-2.4849,-2.499,-2.5165,-2.5284,-2.5322,-2.5313,-2.5293,-2.5313,-2.5303,-2.5313,-2.5313,-2.5216,-2.4986,-2.4379,-2.3995,-2.3812,-2.3647,-2.367,-2.3919,-2.4503,-2.4846,-2.4917,-2.5018,-2.5077,-2.5077,-2.5214,-2.5313,-2.5236,-2.4312,-2.3475,-2.2831,-2.2985,-2.3032,-2.2851,-2.3485,-2.4255,-2.5008,-2.4917,-2.4842,-2.4842,-2.467,-2.4578,-2.4615,-2.4446,-2.4321,-2.4339,-2.4339,-2.4321,-2.4339,-2.4321,-2.4339,-2.4321,-2.4321,-2.441,-2.4545,-2.4445,-2.4339,-2.4358,-2.4534,-2.4615,-2.4631,-2.4738,-2.4818,-2.4842,-2.4924,-2.5087,-2.5077,-2.5214,-2.5313,-2.5313,-2.5313,-2.5313,-2.5313,-2.5313,-2.5216,-2.5024,-2.4889,-2.4159,-2.312,-2.3178,-2.3812,-2.4312,-2.4197,-2.3841,-2.3802,-2.3802,-2.3487,-2.2658,-2.3073,-2.3106,-2.2577,-2.2191,-2.2061,-2.2107,-2.1976,-2.1967,-2.1839,-2.184,-2.1946,-2.2048,-2.1797,-2.1553,-2.1587,-2.1567,-2.184,-2.4004,-2.3261,-2.3205,-2.3127,-2.2984,-2.3072,-2.3178,-2.327,-2.3231,-2.3625,-2.4288,-2.5033,-2.5288,-2.5313,-2.5352,-2.5343,-2.5265,-2.5293,-2.5293,-2.5284,-2.5313,-2.4928,-2.4292,-2.411,-2.3687,-2.3013,-2.2899,-2.3236,-2.3899,-2.413,-2.4563,-2.5177,-2.5264,-2.5254,-2.5274,-2.5303,-2.5293,-2.5264,-2.3716,-2.2889,-2.2859,-2.3571,-2.359,-2.2812,-2.363,-2.4438,-2.5225,-2.5077,-2.4986,-2.4974,-2.4855,-2.4775,-2.4775,-2.4746,-2.4746,-2.4731,-2.4746,-2.4746,-2.4746,-2.4746,-2.4731,-2.4746,-2.4749,-2.4712,-2.4775,-2.476,-2.4746,-2.4727,-2.4741,-2.4775,-2.4775,-2.4804,-2.4883,-2.4981,-2.501,-2.5057,-2.5224,-2.5293,-2.5313,-2.5313,-2.5313,-2.5313,-2.5313,-2.5226,-2.4928,-2.4138,-2.3676,-2.3127,-2.2654,-2.2711,-2.2799,-2.2994,-2.2917,-2.2898,-2.2898,-2.2908,-2.2765,-2.2661,-2.2631,-2.2471,-2.2239,-2.202,-2.1953,-2.1596,-2.1729,-2.1594,-2.1634,-2.1784,-2.1708,-2.1522,-2.1121,-2.0594,-2.0318,-2.0208,-2.0527,-2.3118,-2.2358,-2.2382,-2.2346,-2.2293,-2.2289,-2.2567,-2.3004,-2.3018,-2.3198,-2.3514,-2.3898,-2.4549,-2.5415,-2.5453,-2.5169,-2.4703,-2.5175,-2.5117,-2.4723,-2.5156,-2.4981,-2.4187,-2.3644,-2.2966,-2.2137,-2.2091,-2.2265,-2.2743,-2.3637,-2.4594,-2.5337,-2.5415,-2.5415,-2.5434,-2.5415,-2.5434,-2.5395,-2.4225,-2.3412,-2.2959,-2.2667,-2.2898,-2.3543,-2.3937,-2.4485,-2.5207,-2.5214,-2.5173,-2.5163,-2.5005,-2.4968,-2.5082,-2.4917,-2.4804,-2.4842,-2.4823,-2.4804,-2.4804,-2.4804,-2.4804,-2.4804,-2.4804,-2.4828,-2.4917,-2.4911,-2.4956,-2.5049,-2.5,-2.4911,-2.493,-2.5024,-2.5107,-2.5163,-2.5192,-2.5214,-2.5284,-2.5313,-2.5313,-2.5313,-2.5313,-2.5293,-2.5236,-2.487,-2.4051,-2.3052,-2.2632,-2.2511,-2.1688,-2.1797,-2.1875,-2.1475,-2.1359,-2.1571,-2.1902,-2.2023,-2.185,-2.1534,-2.1653,-2.1828,-2.1321,-2.101,-2.0795,-2.084,-2.08,-2.0723,-2.0546,-2.0606,-2.062,-2.0637,-2.0745,-2.0304,-2.0036,-1.9639,-1.9669,-2.2216,-2.1496,-2.1474,-2.1465,-2.1459,-2.1438,-2.1776,-2.2289,-2.2344,-2.2461,-2.2682,-2.2749,-2.353,-2.4716,-2.4838,-2.4568,-2.4316,-2.4846,-2.4827,-2.4316,-2.4866,-2.4574,-2.3538,-2.2935,-2.2158,-2.1413,-2.1266,-2.1402,-2.1795,-2.3353,-2.453,-2.5099,-2.5372,-2.5513,-2.5474,-2.5294,-2.5274,-2.5372,-2.4453,-2.3674,-2.3276,-2.263,-2.2774,-2.3732,-2.4242,-2.4756,-2.5316,-2.5354,-2.5346,-2.5346,-2.5178,-2.5173,-2.5297,-2.4872,-2.4632,-2.4689,-2.4847,-2.4942,-2.4923,-2.4942,-2.4942,-2.4942,-2.4942,-2.4975,-2.5053,-2.5088,-2.5152,-2.5253,-2.5163,-2.5088,-2.5099,-2.5214,-2.5284,-2.5313,-2.5313,-2.5313,-2.5313,-2.5313,-2.5313,-2.5313,-2.5052,-2.4887,-2.4615,-2.3906,-2.2912,-2.2049,-2.1964,-2.1917,-2.0802,-2.0966,-2.1104,-2.0448,-2.04,-2.0623,-2.107,-2.117,-2.0824,-2.0677,-2.0881,-2.0949,-2.0392,-2.0153,-2.0003,-2.0356,-1.9971,-1.9847,-2.007,-1.9955,-1.9824,-1.9886,-1.9888,-1.9807,-1.944,-1.9003,-1.8712,-2.1235,-2.0531,-2.0457,-2.0561,-2.057,-2.0591,-2.0659,-2.0859,-2.0801,-2.1191,-2.1875,-2.1933,-2.2422,-2.3164,-2.3171,-2.3566,-2.4088,-2.4209,-2.4189,-2.4073,-2.4204,-2.3402,-2.188,-2.1764,-2.134,-2.062,-2.0581,-2.0947,-2.1759,-2.3305,-2.42,-2.4302,-2.5031,-2.5479,-2.5366,-2.4758,-2.471,-2.5269,-2.4023,-2.3431,-2.4029,-2.4112,-2.3737,-2.3383,-2.4603,-2.5396,-2.5473,-2.5479,-2.5498,-2.5479,-2.5356,-2.5345,-2.5298,-2.4589,-2.4159,-2.4245,-2.4851,-2.5264,-2.5254,-2.5254,-2.5254,-2.5274,-2.5254,-2.5254,-2.5255,-2.5284,-2.5284,-2.5293,-2.5293,-2.5274,-2.5274,-2.5303,-2.5313,-2.5322,-2.5303,-2.5313,-2.5226,-2.5149,-2.5274,-2.5062,-2.4535,-2.3927,-2.3226,-2.2333,-2.1979,-2.1526,-2.1025,-2.0546,-2.0558,-2.0535,-2.0531,-2.0469,-2.0406,-2.041,-2.039,-2.0546,-2.0476,-2.0378,-2.0448,-2.045,-2.028,-2.0161,-2.004,-1.9888,-1.9629,-1.9566,-1.9719,-1.9756,-1.9669,-1.9533,-1.9125,-1.8924,-1.816,-1.7984,-1.7823,-2.0648,-2.0406,-2.0366,-2.0366,-2.0432,-2.0435,-2.0464,-2.0475,-2.0455,-2.0633,-2.0906,-2.0945,-2.1101,-2.1377,-2.1388,-2.1874,-2.2722,-2.3287,-2.3267,-2.2857,-2.3247,-2.2898,-2.1922,-2.1824,-2.1347,-2.057,-2.0492,-2.0921,-2.1723,-2.2459,-2.2994,-2.3581,-2.4381,-2.4791,-2.483,-2.5047,-2.532,-2.5476,-2.4442,-2.4032,-2.4284,-2.4344,-2.4207,-2.3971,-2.4923,-2.5513,-2.5513,-2.5513,-2.5513,-2.5493,-2.4977,-2.4624,-2.4599,-2.4314,-2.4138,-2.4225,-2.4919,-2.5383,-2.5415,-2.5409,-2.5428,-2.5447,-2.5421,-2.5402,-2.5428,-2.5428,-2.5428,-2.5421,-2.5421,-2.5428,-2.5415,-2.5391,-2.5376,-2.5415,-2.5421,-2.5085,-2.4523,-2.4439,-2.4303,-2.3579,-2.3294,-2.3095,-2.2362,-2.19,-2.1504,-2.1029,-2.0645,-2.0519,-2.0527,-2.0547,-2.0531,-2.0482,-2.0506,-2.0499,-2.0381,-2.0381,-2.0366,-2.0376,-2.0404,-2.0404,-2.0324,-1.9838,-1.9624,-1.9776,-1.9498,-1.9026,-1.9094,-1.8856,-1.8922,-1.9509,-1.9077,-1.7689,-1.6521,-1.6772,-1.6894,-2.0157,-2.0205,-2.0169,-2.0178,-2.0235,-2.0235,-2.0253,-2.0274,-2.0254,-2.0274,-2.0274,-2.0274,-2.0284,-2.0342,-2.0322,-2.0701,-2.1455,-2.2317,-2.2395,-2.1907,-2.2395,-2.2219,-2.1516,-2.1417,-2.1111,-2.0585,-2.0505,-2.0819,-2.1328,-2.1676,-2.2124,-2.2693,-2.3807,-2.4413,-2.4512,-2.5,-2.5371,-2.5428,-2.4821,-2.4351,-2.4347,-2.4599,-2.4619,-2.4485,-2.5096,-2.5525,-2.5564,-2.5561,-2.558,-2.5444,-2.4725,-2.3965,-2.3495,-2.3875,-2.3888,-2.3582,-2.4411,-2.489,-2.4734,-2.4705,-2.4783,-2.506,-2.508,-2.5177,-2.5435,-2.5513,-2.5513,-2.5513,-2.5513,-2.5513,-2.5526,-2.5498,-2.5482,-2.545,-2.5255,-2.4764,-2.3923,-2.3801,-2.3261,-2.2492,-2.2442,-2.2181,-2.1533,-2.1363,-2.1084,-2.0576,-2.0518,-2.0543,-2.0586,-2.0605,-2.0586,-2.0542,-2.0527,-2.0526,-2.0471,-2.0447,-2.0396,-2.0383,-2.0402,-2.0395,-2.02,-1.9677,-1.9381,-1.9541,-1.9267,-1.8672,-1.8248,-1.7997,-1.8415,-1.9192,-1.8413,-1.6974,-1.6256,-1.5809,-1.6027,-1.979,-1.9794,-1.9771,-1.9815,-1.9879,-1.9907,-1.9924,-1.9988,-1.9996,-1.9961,-1.9926,-1.9977,-2.0053,-2.016,-2.018,-2.0302,-2.0599,-2.1312,-2.164,-2.1597,-2.1675,-2.1282,-2.0561,-2.0542,-2.0581,-2.049,-2.051,-2.0475,-2.0568,-2.123,-2.1695,-2.2125,-2.3497,-2.4266,-2.4394,-2.457,-2.4917,-2.5295,-2.4801,-2.4352,-2.4306,-2.5011,-2.5055,-2.4486,-2.5079,-2.5551,-2.5683,-2.5684,-2.5664,-2.5586,-2.4796,-2.3497,-2.2392,-2.3188,-2.3402,-2.2399,-2.3324,-2.3728,-2.3246,-2.3212,-2.3629,-2.4198,-2.4287,-2.4689,-2.5379,-2.5531,-2.5531,-2.5531,-2.552,-2.5527,-2.5581,-2.5583,-2.5512,-2.541,-2.4806,-2.4241,-2.3781,-2.3285,-2.2656,-2.192,-2.1754,-2.1452,-2.0878,-2.0703,-2.0644,-2.0586,-2.0546,-2.0546,-2.0565,-2.0566,-2.0586,-2.0585,-2.054,-2.048,-2.0502,-2.0524,-2.0425,-2.036,-2.0405,-2.0419,-2.013,-1.9705,-1.9204,-1.9193,-1.8624,-1.8019,-1.7277,-1.7064,-1.7161,-1.7558,-1.6712,-1.6327,-1.5874,-1.5447,-1.5389,-1.9258,-1.9258,-1.9258,-1.9372,-1.9544,-1.9557,-1.9574,-1.9571,-1.9571,-1.9475,-1.9364,-1.9505,-1.9594,-1.9698,-1.9848,-1.9955,-2.0012,-2.0298,-2.0542,-2.0793,-2.0815,-2.0698,-2.0441,-2.0387,-2.0418,-2.0429,-2.0432,-2.0425,-2.0488,-2.0718,-2.1083,-2.185,-2.287,-2.3715,-2.4268,-2.4836,-2.5317,-2.5442,-2.5262,-2.5118,-2.5075,-2.5207,-2.5201,-2.5148,-2.5251,-2.5385,-2.5554,-2.5561,-2.5593,-2.5633,-2.4779,-2.3554,-2.2298,-2.2274,-2.2313,-2.2037,-2.2823,-2.3388,-2.3132,-2.3077,-2.3368,-2.4111,-2.4307,-2.4756,-2.5479,-2.5616,-2.5636,-2.5618,-2.5585,-2.5585,-2.5603,-2.5602,-2.5332,-2.4797,-2.4502,-2.3836,-2.286,-2.1961,-2.1305,-2.0976,-2.0897,-2.0755,-2.056,-2.0453,-2.0458,-2.0458,-2.0475,-2.0455,-2.0453,-2.0477,-2.047,-2.0467,-2.0435,-2.0412,-2.0422,-2.0305,-2.0126,-2.0017,-2.0058,-1.9913,-1.9715,-1.9477,-1.9021,-1.8444,-1.7883,-1.7271,-1.6528,-1.6255,-1.6378,-1.6243,-1.589,-1.5583,-1.5299,-1.5217,-1.5265,-1.8747,-1.8815,-1.8573,-1.8642,-1.8879,-1.8776,-1.8776,-1.8895,-1.8913,-1.8881,-1.8899,-1.9127,-1.9261,-1.9379,-1.9613,-1.975,-1.9797,-1.9809,-2.0087,-2.0484,-2.0269,-2.0192,-2.0179,-2.0211,-2.0224,-2.0326,-2.0615,-2.0781,-2.082,-2.1075,-2.1475,-2.2101,-2.2836,-2.3482,-2.407,-2.4904,-2.5356,-2.5277,-2.5311,-2.5316,-2.5239,-2.5129,-2.5101,-2.5194,-2.5101,-2.511,-2.5239,-2.5271,-2.5389,-2.5368,-2.4719,-2.3386,-2.1649,-2.1873,-2.201,-2.1596,-2.2049,-2.2441,-2.2179,-2.2001,-2.2665,-2.3583,-2.3876,-2.444,-2.5299,-2.5633,-2.5633,-2.5629,-2.5598,-2.5561,-2.5542,-2.5252,-2.4757,-2.397,-2.3902,-2.3218,-2.1867,-2.0985,-2.059,-2.0516,-2.0492,-2.0438,-2.0398,-2.0391,-2.0391,-2.0391,-2.0391,-2.0391,-2.0391,-2.0391,-2.0387,-2.037,-2.0303,-2.0303,-2.0313,-2.0099,-1.9834,-1.9675,-1.9573,-1.9245,-1.8921,-1.8709,-1.8339,-1.7519,-1.6855,-1.6406,-1.5723,-1.5625,-1.5625,-1.5324,-1.5329,-1.5327,-1.5316,-1.5323,-1.5345,-1.8223,-1.8395,-1.7821,-1.7766,-1.7994,-1.7719,-1.7761,-1.8031,-1.811,-1.8266,-1.8512,-1.8789,-1.898,-1.9154,-1.9343,-1.9532,-1.9707,-1.9695,-2.0032,-2.0433,-2.0226,-1.9998,-2.0251,-2.0345,-2.0375,-2.0403,-2.1061,-2.1404,-2.1416,-2.197,-2.2541,-2.27,-2.3233,-2.3689,-2.4034,-2.4759,-2.5052,-2.4908,-2.5011,-2.5004,-2.485,-2.4799,-2.4795,-2.4842,-2.479,-2.4809,-2.4872,-2.4967,-2.5159,-2.5329,-2.4607,-2.313,-2.1409,-2.2075,-2.201,-2.064,-2.1189,-2.1158,-2.0644,-2.0869,-2.1473,-2.289,-2.3283,-2.3718,-2.5167,-2.5488,-2.5483,-2.5445,-2.5454,-2.5449,-2.5307,-2.4763,-2.3952,-2.313,-2.2845,-2.2074,-2.0714,-2.0437,-2.0418,-2.0391,-2.0387,-2.0379,-2.0366,-2.0361,-2.0332,-2.0332,-2.0303,-2.0283,-2.0283,-2.0261,-2.0332,-2.0272,-2.0125,-2.0111,-2.0104,-2.0054,-1.9668,-1.8813,-1.8758,-1.8546,-1.7997,-1.7682,-1.737,-1.6568,-1.6096,-1.5579,-1.5312,-1.529,-1.5316,-1.5326,-1.5367,-1.5405,-1.539,-1.5364,-1.5335,-1.7412,-1.7263,-1.7093,-1.719,-1.7415,-1.7313,-1.7336,-1.7467,-1.7703,-1.7715,-1.7793,-1.8173,-1.8469,-1.8512,-1.8771,-1.8894,-1.9086,-1.92,-1.9481,-1.9993,-2.0079,-2.0655,-2.1384,-2.1538,-2.1405,-2.1292,-2.1632,-2.1865,-2.1703,-2.2147,-2.2646,-2.324,-2.3415,-2.3844,-2.4486,-2.4721,-2.4854,-2.4812,-2.4826,-2.4826,-2.4737,-2.4623,-2.4654,-2.4775,-2.462,-2.4636,-2.4775,-2.4847,-2.4948,-2.5108,-2.4306,-2.3323,-2.2026,-2.1913,-2.1436,-2.0527,-2.0468,-2.0599,-2.0379,-2.0856,-2.1779,-2.2691,-2.3293,-2.4116,-2.5143,-2.5404,-2.5337,-2.5178,-2.5142,-2.5146,-2.4918,-2.4255,-2.3312,-2.2257,-2.1582,-2.1013,-2.0538,-2.0387,-2.0374,-2.0332,-2.0316,-2.0307,-2.0276,-2.0188,-2.0104,-2.0068,-2.0035,-1.9973,-1.999,-1.9981,-2.0007,-1.9964,-1.9865,-1.9895,-1.9884,-1.9871,-1.9349,-1.8137,-1.7824,-1.7809,-1.7098,-1.6408,-1.6013,-1.5439,-1.559,-1.5265,-1.5258,-1.5285,-1.5326,-1.5307,-1.5302,-1.5287,-1.5321,-1.5312,-1.5273,-1.5918,-1.6204,-1.5732,-1.594,-1.6459,-1.637,-1.6507,-1.6795,-1.7011,-1.7199,-1.7375,-1.7788,-1.8237,-1.8658,-1.8749,-1.9102,-1.9485,-1.9505,-1.9964,-2.0693,-2.1047,-2.1341,-2.1587,-2.1618,-2.1547,-2.1512,-2.1998,-2.2159,-2.2162,-2.249,-2.3041,-2.3376,-2.3417,-2.3657,-2.3989,-2.4226,-2.4226,-2.4155,-2.4208,-2.4226,-2.4118,-2.4155,-2.41,-2.4173,-2.4118,-2.4229,-2.4243,-2.4173,-2.4244,-2.4341,-2.4171,-2.3637,-2.2492,-2.2038,-2.1359,-2.0509,-2.0277,-2.0219,-2.0507,-2.1075,-2.1889,-2.2834,-2.3514,-2.4034,-2.4683,-2.5034,-2.5033,-2.4726,-2.4846,-2.4891,-2.4651,-2.379,-2.2467,-2.1168,-2.0355,-2.005,-2.0176,-2.0169,-2.0135,-2.0096,-2.009,-2.0101,-2.0079,-1.9982,-1.9863,-1.9782,-1.9801,-1.9734,-1.968,-1.9638,-1.9613,-1.9588,-1.9465,-1.9401,-1.9225,-1.9129,-1.8458,-1.7318,-1.6391,-1.6498,-1.6146,-1.5336,-1.5278,-1.5068,-1.5102,-1.5129,-1.513,-1.5154,-1.5182,-1.5171,-1.5173,-1.5123,-1.5109,-1.5121,-1.5082,-1.4153,-1.5169,-1.4192,-1.4408,-1.5316,-1.5298,-1.5772,-1.6243,-1.6495,-1.6865,-1.7378,-1.7642,-1.8272,-1.9224,-1.8988,-1.951,-2.0396,-1.9951,-2.0638,-2.1326,-2.1779,-2.1769,-2.1034,-2.1203,-2.1194,-2.1281,-2.1932,-2.2222,-2.2427,-2.298,-2.3364,-2.3404,-2.3294,-2.3223,-2.3406,-2.3444,-2.3374,-2.3365,-2.3505,-2.3527,-2.345,-2.3552,-2.3574,-2.3446,-2.3595,-2.362,-2.3505,-2.3356,-2.3259,-2.3419,-2.4204,-2.3558,-2.2293,-2.2089,-2.1639,-2.087,-2.022,-2.022,-2.0845,-2.1146,-2.1768,-2.2971,-2.3385,-2.3705,-2.4182,-2.4441,-2.4422,-2.4166,-2.4479,-2.4376,-2.3858,-2.288,-2.1587,-2.0238,-1.9555,-1.9497,-1.9657,-1.9719,-1.9705,-1.9705,-1.9705,-1.9705,-1.9705,-1.9681,-1.9601,-1.9351,-1.9379,-1.9313,-1.9251,-1.9239,-1.9236,-1.9232,-1.9065,-1.8855,-1.8588,-1.8304,-1.7394,-1.6362,-1.5157,-1.4794,-1.4933,-1.4588,-1.4766,-1.4811,-1.4768,-1.479,-1.484,-1.4889,-1.4914,-1.4987,-1.495,-1.4855,-1.4768,-1.48,-1.4788,-1.3513,-1.3546,-1.3736,-1.3958,-1.4347,-1.5375,-1.5949,-1.6167,-1.6815,-1.7279,-1.782,-1.7823,-1.8189,-1.8919,-1.8859,-1.9017,-1.9361,-1.9416,-1.9837,-2.0611,-2.1157,-2.1234,-2.1019,-2.1222,-2.1475,-2.1508,-2.1771,-2.2048,-2.2272,-2.2534,-2.294,-2.3153,-2.3017,-2.3165,-2.3124,-2.3041,-2.3247,-2.3194,-2.32,-2.3177,-2.3124,-2.3189,-2.3212,-2.31,-2.3171,-2.3241,-2.3182,-2.2909,-2.2761,-2.2911,-2.3137,-2.2818,-2.1635,-2.1352,-2.0971,-2.0336,-2.0164,-2.0327,-2.0861,-2.1571,-2.2226,-2.2593,-2.3235,-2.3768,-2.3649,-2.3639,-2.3597,-2.3479,-2.3617,-2.3283,-2.2165,-2.1526,-2.0642,-1.9669,-1.9004,-1.8628,-1.8482,-1.8831,-1.9154,-1.9169,-1.9169,-1.915,-1.915,-1.9057,-1.8997,-1.8917,-1.8871,-1.8806,-1.8771,-1.8735,-1.8681,-1.8627,-1.8483,-1.8233,-1.8091,-1.7611,-1.6561,-1.5605,-1.4415,-1.3556,-1.3683,-1.3885,-1.4114,-1.427,-1.4372,-1.4397,-1.4373,-1.4418,-1.4404,-1.4558,-1.4664,-1.4352,-1.4193,-1.4322,-1.4387,-1.2189,-1.246,-1.2763,-1.327,-1.402,-1.5012,-1.57,-1.6126,-1.6554,-1.7025,-1.7396,-1.7347,-1.7776,-1.8515,-1.837,-1.8492,-1.901,-1.917,-1.961,-2.0115,-2.0198,-2.01,-2.0283,-2.0508,-2.0639,-2.1116,-2.139,-2.1513,-2.1619,-2.1778,-2.1933,-2.2146,-2.2201,-2.2062,-2.2173,-2.2201,-2.2245,-2.2371,-2.2451,-2.2468,-2.2451,-2.2609,-2.2565,-2.2373,-2.2255,-2.2173,-2.2118,-2.1961,-2.1848,-2.1938,-2.2141,-2.1961,-2.1142,-2.0894,-2.0483,-1.9926,-2.0019,-2.048,-2.1115,-2.1609,-2.2082,-2.2397,-2.2815,-2.2729,-2.2768,-2.2753,-2.2747,-2.2623,-2.267,-2.2464,-2.101,-2.0431,-1.9894,-1.9103,-1.834,-1.7783,-1.7591,-1.8191,-1.8732,-1.868,-1.8733,-1.8556,-1.8449,-1.8393,-1.8222,-1.8084,-1.813,-1.8081,-1.791,-1.7889,-1.7885,-1.7826,-1.7747,-1.7614,-1.7547,-1.6903,-1.5792,-1.4841,-1.3878,-1.3184,-1.2941,-1.3207,-1.3476,-1.364,-1.3796,-1.3783,-1.3757,-1.3828,-1.3966,-1.423,-1.4213,-1.377,-1.351,-1.3538,-1.364,-1.0774,-1.1479,-1.1704,-1.2498,-1.3656,-1.443,-1.5144,-1.5771,-1.5972,-1.6354,-1.6662,-1.6642,-1.7029,-1.7819,-1.7588,-1.8047,-1.8622,-1.8957,-1.9093,-1.931,-1.9053,-1.9067,-1.9229,-1.9229,-1.9432,-2.0501,-2.0699,-2.0781,-2.0878,-2.091,-2.1118,-2.1039,-2.1055,-2.1243,-2.1102,-2.1055,-2.1305,-2.1595,-2.1609,-2.1595,-2.1625,-2.1828,-2.172,-2.136,-2.0989,-2.0831,-2.0815,-2.0686,-2.062,-2.0638,-2.0813,-2.0661,-2.0439,-2.0508,-2.0247,-1.9613,-1.9883,-2.0476,-2.1062,-2.1378,-2.1652,-2.2321,-2.2044,-2.1735,-2.1682,-2.1939,-2.195,-2.1866,-2.1844,-2.182,-2.0693,-1.9973,-1.9234,-1.8409,-1.7552,-1.7044,-1.6913,-1.7603,-1.7885,-1.7983,-1.7948,-1.7851,-1.7727,-1.7657,-1.7445,-1.7283,-1.7332,-1.7299,-1.7131,-1.7044,-1.7068,-1.6987,-1.6881,-1.6977,-1.6944,-1.6216,-1.509,-1.4584,-1.3581,-1.2764,-1.2293,-1.2246,-1.2523,-1.3024,-1.3176,-1.3141,-1.3074,-1.3058,-1.331,-1.3781,-1.3496,-1.2807,-1.2654,-1.2738,-1.2805,-1.0108,-0.9971,-1.1203,-1.1876,-1.2366,-1.394,-1.478,-1.4988,-1.5299,-1.6086,-1.6811,-1.6061,-1.6257,-1.693,-1.6766,-1.6708,-1.6993,-1.7357,-1.7678,-1.7928,-1.7918,-1.8182,-1.8235,-1.8327,-1.843,-1.8736,-1.9383,-2.0019,-2.028,-2.0416,-2.04,-2.0813,-2.0813,-2.0813,-2.0829,-2.0959,-2.0813,-2.0943,-2.0959,-2.0927,-2.0959,-2.0943,-2.0799,-2.0358,-1.9901,-1.9747,-1.9607,-1.9358,-1.9108,-1.9008,-1.8669,-1.8149,-1.8069,-1.8791,-1.9156,-1.9244,-1.9686,-2.0345,-2.0833,-2.103,-2.1111,-2.121,-2.1053,-2.1069,-2.1038,-2.1133,-2.1053,-2.1069,-2.0958,-2.0857,-2.0118,-1.9324,-1.8443,-1.7527,-1.695,-1.6574,-1.6223,-1.6342,-1.6756,-1.6838,-1.697,-1.7077,-1.6888,-1.6806,-1.6696,-1.6543,-1.6511,-1.6463,-1.6323,-1.6265,-1.628,-1.6142,-1.6018,-1.616,-1.6342,-1.5421,-1.4501,-1.4442,-1.3602,-1.2287,-1.1799,-1.1386,-1.1497,-1.1948,-1.2348,-1.2463,-1.2409,-1.2313,-1.242,-1.2748,-1.2285,-1.1713,-1.1515,-1.1419,-1.1719,-1.0124,-0.9958,-1.1176,-1.1995,-1.2563,-1.3712,-1.4223,-1.4272,-1.4746,-1.5112,-1.5262,-1.5112,-1.5298,-1.5731,-1.5636,-1.5448,-1.5592,-1.5736,-1.6225,-1.665,-1.6844,-1.7011,-1.7272,-1.749,-1.7436,-1.7626,-1.8313,-1.8977,-1.9119,-1.9119,-1.9375,-1.9396,-1.9519,-1.9641,-1.9763,-1.957,-1.9838,-2.0062,-2.0012,-1.9843,-1.9808,-1.9682,-1.9309,-1.9126,-1.889,-1.8763,-1.8702,-1.8603,-1.8257,-1.7906,-1.7382,-1.6902,-1.6861,-1.7223,-1.7996,-1.8391,-1.9373,-2.0059,-2.0255,-2.0249,-2.015,-1.9858,-1.9682,-1.9519,-1.9576,-1.9632,-1.9893,-1.9858,-1.9576,-1.9349,-1.893,-1.838,-1.7781,-1.7279,-1.6562,-1.5773,-1.533,-1.5286,-1.5418,-1.5677,-1.5869,-1.5952,-1.5905,-1.5834,-1.5877,-1.5821,-1.5751,-1.562,-1.5504,-1.5316,-1.5228,-1.4962,-1.4738,-1.4704,-1.4831,-1.4237,-1.3438,-1.3427,-1.3296,-1.1985,-1.1293,-1.0886,-1.0671,-1.0801,-1.1158,-1.1542,-1.1585,-1.1446,-1.1592,-1.1641,-1.1242,-1.0786,-1.0298,-1.0141,-1.05,-1.0017,-0.9916,-1.0977,-1.1837,-1.2509,-1.3069,-1.3186,-1.3229,-1.3601,-1.3637,-1.3412,-1.3695,-1.3986,-1.4272,-1.4329,-1.4329,-1.4329,-1.4468,-1.5073,-1.554,-1.5664,-1.5708,-1.6133,-1.6562,-1.6689,-1.6549,-1.7244,-1.7894,-1.8249,-1.8274,-1.8171,-1.8352,-1.821,-1.8302,-1.8636,-1.8416,-1.8593,-1.8679,-1.8612,-1.8331,-1.819,-1.7865,-1.7666,-1.772,-1.7639,-1.7545,-1.7491,-1.745,-1.7143,-1.6676,-1.6189,-1.5847,-1.5908,-1.6112,-1.6601,-1.7514,-1.8972,-1.9435,-1.9426,-1.9317,-1.9156,-1.8844,-1.8377,-1.821,-1.8249,-1.8655,-1.8717,-1.8579,-1.8271,-1.8051,-1.7924,-1.7215,-1.7208,-1.7261,-1.6139,-1.4742,-1.4189,-1.4001,-1.4119,-1.4377,-1.4736,-1.4916,-1.4927,-1.5151,-1.5227,-1.5078,-1.5002,-1.4715,-1.4533,-1.4124,-1.3899,-1.3585,-1.3352,-1.3171,-1.3082,-1.2815,-1.2087,-1.1648,-1.1736,-1.1172,-1.0713,-1.0385,-1.0232,-1.0026,-1.007,-1.0405,-1.0491,-1.0608,-1.0675,-1.059,-1.0261,-0.9666,-0.8827,-0.8874,-0.9362,-0.9324,-0.8936,-0.9966,-1.0449,-1.0654,-1.1025,-1.1189,-1.119,-1.134,-1.1531,-1.1908,-1.163,-1.2083,-1.2822,-1.3074,-1.3104,-1.3228,-1.3579,-1.3946,-1.4286,-1.4641,-1.488,-1.5005,-1.5543,-1.574,-1.5696,-1.6299,-1.7216,-1.7612,-1.7814,-1.7973,-1.7933,-1.78,-1.8052,-1.7866,-1.7356,-1.7383,-1.7356,-1.6935,-1.6632,-1.659,-1.6175,-1.6255,-1.6366,-1.625,-1.6046,-1.6089,-1.6065,-1.5721,-1.5066,-1.4821,-1.4655,-1.4656,-1.5139,-1.5722,-1.6557,-1.7493,-1.8313,-1.8313,-1.8352,-1.8274,-1.8104,-1.7973,-1.8052,-1.784,-1.7786,-1.7892,-1.8171,-1.7572,-1.7192,-1.6922,-1.6209,-1.6546,-1.6335,-1.55,-1.3788,-1.2826,-1.339,-1.3461,-1.3191,-1.3565,-1.3894,-1.4063,-1.4347,-1.455,-1.4379,-1.4205,-1.3874,-1.3532,-1.306,-1.26,-1.2295,-1.2081,-1.1902,-1.1527,-1.1237,-1.0825,-1.0133,-1.0293,-1.0337,-0.9987,-0.968,-0.9572,-0.9412,-0.9351,-0.9269,-0.9391,-0.9509,-0.9671,-0.9707,-0.9651,-0.8496,-0.7054,-0.7486,-0.821,-0.8475,-0.8525,-0.9272,-0.9471,-0.9386,-0.9526,-0.96,-0.971,-1.0018,-1.0332,-1.0645,-1.0805,-1.1157,-1.1657,-1.1724,-1.1733,-1.1832,-1.2414,-1.289,-1.3331,-1.3852,-1.419,-1.4329,-1.4744,-1.496,-1.4812,-1.5152,-1.5531,-1.6293,-1.6815,-1.705,-1.676,-1.6705,-1.6566,-1.6722,-1.6096,-1.604,-1.5972,-1.5712,-1.5416,-1.5339,-1.5184,-1.5151,-1.5431,-1.5219,-1.5141,-1.5096,-1.5096,-1.4798,-1.4255,-1.4152,-1.4135,-1.4143,-1.4397,-1.4754,-1.5336,-1.5819,-1.6608,-1.7436,-1.7585,-1.7463,-1.7216,-1.7133,-1.6995,-1.6773,-1.6451,-1.628,-1.6151,-1.5922,-1.5835,-1.5823,-1.5282,-1.5331,-1.5156,-1.4473,-1.3642,-1.2596,-1.2785,-1.3008,-1.2663,-1.2373,-1.2615,-1.2742,-1.2738,-1.2979,-1.323,-1.2889,-1.2472,-1.2188,-1.1852,-1.1413,-1.1004,-1.0816,-1.0674,-1.0186,-0.9797,-0.9518,-0.9124,-0.9518,-0.9479,-0.9143,-0.8874,-0.8894,-0.8573,-0.8237,-0.8192,-0.8289,-0.8694,-0.909,-0.9155,-0.9152,-0.7907,-0.6712,-0.6395,-0.6922,-0.7483,-0.7638,-0.8233,-0.8351,-0.8162,-0.8162,-0.8292,-0.8528,-0.8985,-0.9311,-0.9703,-1.0218,-1.0517,-1.0618,-1.0762,-1.0965,-1.0906,-1.1507,-1.1994,-1.2638,-1.3188,-1.3542,-1.3732,-1.4107,-1.4179,-1.3569,-1.425,-1.4402,-1.4528,-1.4993,-1.5339,-1.532,-1.5531,-1.5419,-1.5184,-1.488,-1.4755,-1.4676,-1.4435,-1.4226,-1.4236,-1.4236,-1.4329,-1.4468,-1.4468,-1.4468,-1.4468,-1.4468,-1.4236,-1.3755,-1.3635,-1.3613,-1.3626,-1.3669,-1.3969,-1.4381,-1.471,-1.5252,-1.6077,-1.6446,-1.6429,-1.6225,-1.6051,-1.5896,-1.5531,-1.4926,-1.4744,-1.5005,-1.4675,-1.4595,-1.4422,-1.4365,-1.3963,-1.377,-1.3366,-1.2956,-1.2648,-1.2635,-1.2242,-1.164,-1.1292,-1.1098,-1.1162,-1.0981,-1.1228,-1.1793,-1.1634,-1.1148,-1.0847,-1.0619,-1.0312,-0.9914,-0.9836,-0.9609,-0.9102,-0.8594,-0.8228,-0.8105,-0.8496,-0.8659,-0.8355,-0.8425,-0.8593,-0.8077,-0.7321,-0.7264,-0.7441,-0.8026,-0.8577,-0.8708,-0.8593,-0.7657,-0.6762,-0.618,-0.5727,-0.6298,-0.5738,-0.6494,-0.6768,-0.674,-0.6745,-0.7122,-0.7652,-0.7759,-0.8249,-0.8896,-0.951,-0.9806,-0.9961,-1.032,-1.0618,-1.0771,-1.1466,-1.1665,-1.1972,-1.254,-1.2754,-1.2987,-1.3198,-1.3416,-1.2966,-1.3185,-1.3145,-1.2972,-1.3067,-1.3803,-1.4584,-1.4332,-1.4584,-1.4389,-1.3726,-1.3437,-1.3331,-1.3074,-1.3035,-1.3035,-1.3084,-1.3218,-1.3627,-1.3758,-1.3862,-1.3815,-1.3768,-1.3558,-1.2954,-1.3097,-1.3107,-1.3172,-1.303,-1.3233,-1.3538,-1.3511,-1.3961,-1.4494,-1.5061,-1.4971,-1.488,-1.4732,-1.4664,-1.4573,-1.4641,-1.4606,-1.4272,-1.3737,-1.3606,-1.3494,-1.3341,-1.2666,-1.2397,-1.2223,-1.2012,-1.1882,-1.2063,-1.1624,-1.0719,-1.0289,-1.0103,-0.9594,-0.9465,-0.9942,-1.054,-1.0606,-1.0147,-0.9679,-0.9412,-0.9182,-0.895,-0.891,-0.8626,-0.8103,-0.7724,-0.7419,-0.7287,-0.7447,-0.7663,-0.7713,-0.7843,-0.7594,-0.741,-0.6683,-0.6605,-0.6578,-0.7018,-0.7521,-0.8166,-0.8007,-0.7079,-0.6071,-0.5305,-0.4923,-0.4812,-0.4204,-0.4491,-0.4886,-0.5281,-0.5281,-0.5714,-0.6303,-0.6357,-0.7063,-0.8156,-0.8408,-0.8778,-0.9152,-0.9368,-0.9562,-0.9666,-1.0261,-1.0509,-1.0762,-1.1225,-1.1534,-1.1724,-1.1864,-1.1796,-1.1688,-1.1877,-1.1868,-1.1563,-1.1545,-1.1711,-1.2269,-1.2696,-1.2503,-1.2318,-1.2327,-1.2159,-1.2178,-1.194,-1.1783,-1.2089,-1.1783,-1.1724,-1.1904,-1.1953,-1.1944,-1.1994,-1.2346,-1.2365,-1.2384,-1.2608,-1.2725,-1.2676,-1.2403,-1.2374,-1.2541,-1.2346,-1.2327,-1.2812,-1.3632,-1.4514,-1.3914,-1.3412,-1.3022,-1.3385,-1.2908,-1.2667,-1.2522,-1.2473,-1.2248,-1.1953,-1.1765,-1.1481,-1.1213,-1.1068,-1.1005,-1.0989,-1.1154,-1.0837,-0.9905,-0.9471,-0.9258,-0.861,-0.7983,-0.8615,-0.9279,-0.9231,-0.9102,-0.8569,-0.83,-0.8136,-0.7972,-0.7882,-0.7592,-0.7105,-0.6852,-0.6641,-0.6513,-0.6428,-0.6459,-0.6489,-0.5993,-0.5786,-0.5819,-0.5926,-0.5696,-0.5627,-0.5897,-0.642,-0.7079,-0.7044,-0.6481,-0.5509,-0.4364,-0.3999,-0.3437,-0.3049,-0.3171,-0.3622,-0.4181,-0.4405,-0.4897,-0.5433,-0.5538,-0.6195,-0.7396,-0.7563,-0.7937,-0.8427,-0.8758,-0.8857,-0.9113,-0.9562,-0.9769,-1.0115,-1.0568,-1.0762,-1.0813,-1.0864,-1.0956,-1.0618,-1.0466,-1.0517,-1.021,-1.0218,-1.0261,-1.0399,-1.0586,-1.0695,-1.1099,-1.0813,-1.1065,-1.1266,-1.1166,-1.0965,-1.1366,-1.1116,-1.0864,-1.0956,-1.1015,-1.1015,-1.1107,-1.1416,-1.1566,-1.1683,-1.1891,-1.2157,-1.2049,-1.1841,-1.1575,-1.1316,-1.1116,-1.0762,-1.1299,-1.2132,-1.329,-1.2599,-1.2113,-1.1877,-1.1778,-1.1308,-1.1458,-1.1507,-1.1166,-1.0762,-1.0712,-1.0965,-1.0821,-1.0612,-1.0479,-1.034,-1.0054,-1.0003,-0.9585,-0.9055,-0.8636,-0.8065,-0.732,-0.6678,-0.7009,-0.769,-0.8054,-0.7784,-0.7231,-0.7078,-0.7224,-0.7007,-0.6881,-0.6507,-0.6087,-0.5996,-0.5813,-0.546,-0.5331,-0.5115,-0.4976,-0.4496,-0.4357,-0.4577,-0.4663,-0.4578,-0.4423,-0.4231,-0.5032,-0.6029,-0.5561,-0.4889,-0.398,-0.2935,-0.2816,-0.223,-0.2286,-0.2954,-0.3345,-0.3514,-0.4184,-0.4838,-0.5324,-0.5433,-0.5869,-0.6637,-0.723,-0.7563,-0.783,-0.8209,-0.8374,-0.8586,-0.9197,-0.9555,-0.9651,-1.0056,-1.0559,-1.0618,-1.0466,-1.0167,-0.9917,-0.9821,-0.9569,-0.9008,-0.9159,-0.9113,-0.8949,-0.919,-0.9607,-1.0661,-1.0762,-1.0762,-1.0821,-1.0771,-1.0669,-1.0762,-1.0618,-1.0517,-1.0466,-1.0466,-1.0415,-1.0466,-1.0661,-1.0813,-1.0922,-1.1074,-1.1225,-1.1124,-1.0973,-1.0813,-1.0653,-1.061,-1.0559,-1.0712,-1.0855,-1.0889,-1.104,-1.0797,-1.0746,-1.0805,-1.0661,-1.0399,-1.0273,-1.0238,-1.034,-1.0551,-1.0501,-0.9997,-0.9681,-0.9438,-0.9341,-0.9044,-0.8476,-0.8005,-0.7668,-0.7217,-0.6641,-0.5918,-0.5425,-0.5551,-0.5987,-0.666,-0.6513,-0.5856,-0.5711,-0.5839,-0.5797,-0.5578,-0.5283,-0.4942,-0.512,-0.499,-0.4591,-0.4196,-0.3934,-0.3756,-0.349,-0.3443,-0.3487,-0.3403,-0.3322,-0.2838,-0.2348,-0.3178,-0.3821,-0.3524,-0.2867,-0.2065,-0.1581,-0.1526,-0.1173,-0.0839,-0.2065,-0.2563,-0.2788,-0.3956,-0.4625,-0.4787,-0.4893,-0.5218,-0.5814,-0.6195,-0.6578,-0.6907,-0.7235,-0.745,-0.7557,-0.8037,-0.8402,-0.856,-0.9131,-0.9354,-0.9458,-0.9451,-0.9361,-0.9211,-0.9106,-0.9001,-0.8857,-0.8646,-0.8368,-0.8209,-0.8209,-0.8573,-0.9204,-0.9517,-0.9614,-0.9969,-0.9814,-0.9666,-1.002,-0.9769,-0.9569,-0.9562,-0.9562,-0.9555,-0.9555,-0.9799,-0.9946,-1.0005,-1.0151,-1.045,-1.0399,-1.0305,-0.9843,-0.9415,-0.9103,-0.8488,-0.8218,-0.8106,-0.879,-0.9377,-0.9703,-0.9488,-0.9415,-0.896,-0.879,-0.8665,-0.8574,-0.8416,-0.7953,-0.7953,-0.7694,-0.7641,-0.7581,-0.7765,-0.7551,-0.6854,-0.6303,-0.5975,-0.5575,-0.4558,-0.3733,-0.3883,-0.4096,-0.4051,-0.4574,-0.4819,-0.4391,-0.4235,-0.4267,-0.4267,-0.4136,-0.3883,-0.3756,-0.3891,-0.3628,-0.3102,-0.2794,-0.2532,-0.2399,-0.2352,-0.2352,-0.2352,-0.2222,-0.2047,-0.1567,-0.1212,-0.12,-0.1371,-0.1375,-0.173,-0.168,-0.0972,-0.0264,-0.0559,-0.0504,-0.1675,-0.2341,-0.2732,-0.3959,-0.4463,-0.4463,-0.4519,-0.4787,-0.5164,-0.5378,-0.576,-0.6204,-0.648,-0.6588,-0.6642,-0.7074,-0.7343,-0.7396,-0.7771,-0.7984,-0.8043,-0.8103,-0.7984,-0.8043,-0.8049,-0.799,-0.7883,-0.799,-0.7937,-0.7777,-0.767,-0.8043,-0.8421,-0.8738,-0.9061,-0.9309,-0.9159,-0.9106,-0.9263,-0.9106,-0.8857,-0.8798,-0.8692,-0.8474,-0.8474,-0.862,-0.8758,-0.8908,-0.911,-0.9408,-0.9259,-0.8954,-0.8435,-0.7906,-0.7593,-0.7122,-0.6907,-0.6804,-0.7593,-0.833,-0.8196,-0.8143,-0.8078,-0.7818,-0.7368,-0.7036,-0.6627,-0.6578,-0.6529,-0.6426,-0.6308,-0.6308,-0.5973,-0.6199,-0.5928,-0.5237,-0.4348,-0.4081,-0.3974,-0.2853,-0.2076,-0.2241,-0.2619,-0.2551,-0.2485,-0.2699,-0.2948,-0.2892,-0.2831,-0.2909,-0.2901,-0.2768,-0.2632,-0.262,-0.2268,-0.1607,-0.1391,-0.1264,-0.1162,-0.116,-0.1162,-0.1118,-0.0851,-0.0584,-0.0318,-0.0091,0.0137,0.0226,0.0179,-0.0313,-0.1023,-0.0222,0.0931,-0.0392,-0.1117,-0.1896,-0.2508,-0.3231,-0.3901,-0.4349,-0.4463,-0.4463,-0.4519,-0.457,-0.5218,-0.5433,-0.5597,-0.615,-0.6317,-0.6372,-0.648,-0.6583,-0.6637,-0.6853,-0.6853,-0.6858,-0.6858,-0.702,-0.6804,-0.6804,-0.7074,-0.6696,-0.6745,-0.7015,-0.7396,-0.7289,-0.745,-0.7717,-0.8103,-0.8421,-0.8415,-0.8415,-0.8368,-0.8415,-0.8527,-0.8321,-0.8215,-0.7943,-0.7723,-0.7563,-0.7391,-0.7069,-0.6961,-0.6907,-0.6853,-0.675,-0.6642,-0.6588,-0.6583,-0.6583,-0.6253,-0.6091,-0.5928,-0.5923,-0.623,-0.6239,-0.6652,-0.6874,-0.6583,-0.6072,-0.5679,-0.5362,-0.581,-0.6091,-0.5864,-0.5697,-0.5194,-0.4532,-0.4375,-0.4161,-0.344,-0.2443,-0.2149,-0.2324,-0.187,-0.1654,-0.1655,-0.1616,-0.1386,-0.1374,-0.1437,-0.1646,-0.1519,-0.1554,-0.1707,-0.1743,-0.1727,-0.1634,-0.1422,-0.1138,-0.0552,-0.0322,-0.0185,-0.0046,0.0091,0.0185,0.0325,0.0638,0.0823,0.0892,0.1234,0.1712,0.174,0.1537,0.119,0.0502,0.1383,0.2406,-0.0112,-0.0392,-0.1118,-0.1563,-0.1842,-0.2563,-0.3456,-0.4405,-0.4463,-0.4463,-0.4519,-0.468,-0.4842,-0.4842,-0.5007,-0.5117,-0.5332,-0.5546,-0.576,-0.5928,-0.6204,-0.648,-0.6534,-0.648,-0.6534,-0.6534,-0.6534,-0.6426,-0.6421,-0.615,-0.6204,-0.675,-0.6524,-0.6578,-0.6853,-0.7133,-0.7241,-0.7295,-0.7343,-0.745,-0.7396,-0.745,-0.7402,-0.7295,-0.7128,-0.6912,-0.6804,-0.6642,-0.648,-0.648,-0.6534,-0.6588,-0.6588,-0.6588,-0.6475,-0.5706,-0.5046,-0.4278,-0.4168,-0.3779,-0.3666,-0.3828,-0.3718,-0.4268,-0.4765,-0.5039,-0.4539,-0.4152,-0.399,-0.4213,-0.4381,-0.4326,-0.41,-0.3602,-0.3051,-0.283,-0.2615,-0.2173,-0.1228,-0.0998,-0.1195,-0.1298,-0.1079,-0.1062,-0.0993,-0.0538,0.0,0.0,0.0,0.0,-0.0441,-0.0624,-0.0621,-0.0617,-0.0289,-0.0049,0.0191,0.0426,0.0665,0.0903,0.1087,0.1282,0.145,0.16,0.1679,0.1789,0.192,0.2325,0.2721,0.2815,0.2691,0.2394,0.2299,0.2866,0.3318,-0.0168,-0.0448,-0.0895,-0.1228,-0.1619,-0.2007,-0.2954,-0.3904,-0.407,-0.407,-0.407,-0.4401,-0.4463,-0.4515,-0.457,-0.457,-0.4625,-0.4897,-0.5113,-0.5222,-0.5605,-0.5605,-0.5719,-0.5828,-0.5664,-0.5769,-0.5769,-0.5605,-0.5714,-0.555,-0.5496,-0.6036,-0.5592,-0.5819,-0.6095,-0.6199,-0.5982,-0.6095,-0.6263,-0.648,-0.6534,-0.6534,-0.6588,-0.648,-0.6367,-0.6204,-0.6095,-0.6041,-0.5828,-0.5773,-0.5773,-0.5546,-0.5324,-0.4988,-0.471,-0.3941,-0.3558,-0.3063,-0.2952,-0.2674,-0.2341,-0.2176,-0.212,-0.2504,-0.2945,-0.3219,-0.2832,-0.25,-0.2395,-0.2343,-0.24,-0.2456,-0.2176,-0.1898,-0.1673,-0.1394,-0.1173,-0.095,-0.0614,-0.0278,-0.0333,-0.0497,-0.0548,0.0,0.0,0.0,0.0,0.0,0.0,0.0,0.0,0.0248,0.0348,0.0448,0.0809,0.1016,0.1246,0.1374,0.1523,0.1768,0.2104,0.216,0.2133,0.2311,0.2585,0.2706,0.2875,0.3184,0.3544,0.3589,0.3521,0.3205,0.305,0.3308,0.3662,-0.0392,-0.0951,-0.1006,-0.1285,-0.1952,-0.1953,-0.2287,-0.301,-0.3065,-0.3289,-0.3566,-0.4184,-0.4463,-0.4463,-0.4349,-0.4349,-0.4349,-0.446,-0.4512,-0.4463,-0.4736,-0.4846,-0.4791,-0.457,-0.4897,-0.468,-0.4625,-0.4897,-0.4625,-0.468,-0.4948,-0.5378,-0.5378,-0.5382,-0.5382,-0.5437,-0.5273,-0.5117,-0.5605,-0.6095,-0.6209,-0.6317,-0.6426,-0.6204,-0.5819,-0.5437,-0.5273,-0.4952,-0.4463,-0.4463,-0.4349,-0.4122,-0.3508,-0.3005,-0.2619,-0.2397,-0.2341,-0.2174,-0.2063,-0.1786,-0.1785,-0.184,-0.2007,-0.1505,-0.1448,-0.2004,-0.1839,-0.1449,-0.134,-0.1396,-0.1509,-0.1172,-0.0837,-0.0781,-0.0614,-0.0559,-0.0503,0.0,0.0,0.0,0.0,0.0,0.0,0.0,0.0,0.0,0.0,0.0,0.0,0.0,0.0,0.0825,0.1143,0.12,0.1405,0.1666,0.2104,0.229,0.2446,0.2592,0.289,0.2842,0.2642,0.3005,0.3434,0.3658,0.3884,0.3993,0.4042,0.4039,0.3958,0.3858,0.3866,0.3884,0.4012,-0.0112,-0.028,-0.028,-0.0392,0.0,-0.0504,-0.0672,-0.0839,-0.1396,-0.2621,-0.4015,-0.4349,-0.4405,-0.4294,-0.379,-0.379,-0.4181,-0.379,-0.4012,-0.4181,-0.4294,-0.4125,-0.4405,-0.4236,-0.4349,-0.4463,-0.4463,-0.4405,-0.4463,-0.4515,-0.4515,-0.4732,-0.4787,-0.4842,-0.4842,-0.4838,-0.4732,-0.457,-0.4842,-0.5226,-0.5226,-0.5062,-0.5011,-0.5007,-0.4732,-0.4728,-0.4622,-0.4567,-0.407,-0.3735,-0.368,-0.3234,-0.2565,-0.2286,-0.2174,-0.212,-0.1619,-0.1396,-0.1228,-0.095,-0.0671,-0.0559,-0.0448,-0.0056,-0.0112,-0.0894,-0.1061,-0.0615,-0.0448,-0.0559,-0.0447,0.0,0.0391,0.0391,0.0335,0.0224,0.0112,0.0,0.0,0.0,0.0,0.0,0.0,0.0,0.0,0.0,0.0,0.0,0.0,0.0,0.0,0.092,0.1634,0.1856,0.211,0.2412,0.2913,0.3182,0.3353,0.3547,0.3626,0.3594,0.3562,0.3899,0.429,0.427,0.4263,0.4348,0.4399,0.4372,0.4304,0.4197,0.4214,0.4251,0.4334,0.0,0.0,0.0,0.0,0.0,0.0,-0.0168,-0.0503,-0.095,-0.2009,-0.3345,-0.3511,-0.3511,-0.3511,-0.301,-0.301,-0.3456,-0.3012,-0.301,-0.3345,-0.3624,-0.34,-0.3511,-0.3622,-0.34,-0.3511,-0.3901,-0.4015,-0.4405,-0.446,-0.4515,-0.4463,-0.4463,-0.4463,-0.4463,-0.4463,-0.4463,-0.4463,-0.446,-0.446,-0.446,-0.446,-0.4519,-0.446,-0.4181,-0.4067,-0.3843,-0.3732,-0.3231,-0.2788,-0.2565,-0.2232,-0.1675,-0.1284,-0.1174,-0.1062,-0.0839,-0.0615,-0.0392,-0.0056,0.0392,0.0504,0.0895,0.1228,0.1284,0.0669,0.0669,0.0949,0.0503,0.0391,0.067,0.1059,0.1506,0.173,0.1452,0.1228,0.0894,0.0,0.0,0.0,0.0,0.0,0.0,0.0,0.0,0.0,0.0,0.0,0.0,0.1396,0.1174,0.1174,0.1953,0.2788,0.3309,0.3517,0.373,0.402,0.4133,0.4104,0.4069,0.429,0.4457,0.445,0.445,0.4446,0.4453,0.4463,0.4463,0.4429,0.4433,0.444,0.4463,0.4519,0.4553,0.0,0.0,0.0,0.0,0.0,0.0,-0.0336,-0.0839,-0.095,-0.1285,-0.1842,-0.1953,-0.1953,-0.2176,-0.2065,-0.212,-0.2176,-0.2176,-0.2176,-0.2343,-0.2399,-0.2565,-0.2565,-0.2343,-0.2565,-0.2954,-0.34,-0.3956,-0.446,-0.4463,-0.4463,-0.4463,-0.4463,-0.4463,-0.4463,-0.4463,-0.4463,-0.4405,-0.4349,-0.4294,-0.4294,-0.4349,-0.4236,-0.4015,-0.3624,-0.3178,-0.2954,-0.2674,-0.2286,-0.1786,-0.1509,-0.1174,-0.0894,0.0,0.0,0.0,0.0,0.0,0.0224,0.0615,0.1006,0.134,0.1898,0.2232,0.2232,0.2176,0.2176,0.2176,0.1675,0.1452,0.1729,0.2063,0.2512,0.2681,0.2343,0.2063,0.1619,0.1229,0.0839,0.0336,0.0727,0.1229,0.1507,0.1896,0.2063,0.2232,0.2287,0.2343,0.2341,0.2399,0.2289,0.2287,0.2621,0.3456,0.4015,0.4236,0.4226,0.4281,0.4326,0.4398,0.4463,0.4463,0.4463,0.446,0.446,0.4463,0.4463,0.4463,0.4463,0.4463,0.4463,0.4463,0.4463,0.4519,0.4739,0.0,0.0,0.0,0.0,0.0,0.0,-0.0056,0.0,0.0,-0.0336,0.0,0.0,-0.095,-0.212,-0.1509,-0.1453,-0.173,-0.1507,-0.1786,-0.212,-0.1898,-0.2009,-0.2009,-0.1786,-0.2508,-0.2954,-0.3398,-0.4181,-0.4181,-0.4294,-0.4467,-0.4421,-0.4463,-0.4408,-0.4411,-0.4411,-0.4294,-0.4128,-0.3749,-0.3532,-0.353,-0.3524,-0.3511,-0.3231,-0.2785,-0.2563,-0.2341,-0.2286,-0.1842,-0.1285,0.0,0.0,0.0,0.0,0.0,0.0,0.0,0.0,0.056,0.1007,0.134,0.184,0.2341,0.2732,0.2732,0.2621,0.2843,0.3511,0.3067,0.251,0.2676,0.2954,0.3292,0.3014,0.2734,0.2454,0.212,0.2009,0.1786,0.1675,0.173,0.1953,0.2065,0.2341,0.2452,0.2621,0.2845,0.2901,0.3121,0.3236,0.335,0.3347,0.3345,0.3289,0.3511,0.4239,0.4401,0.446,0.4463,0.4463,0.4463,0.4463,0.4463,0.4463,0.4463,0.4463,0.4463,0.4463,0.4463,0.4463,0.4463,0.4463,0.4515,0.4791,0.5175]},{"header":{"parameterUnit":"m.s-1","parameterCategory":1,"la1":31.0,"la2":29.5877,"lo1":-88.7671,"lo2":-86.6584,"dy":0.0162,"dx":0.0185,"nx":115,"ny":88,"refTime":"2024-08-17T06:00:00:Z","depth":0,"parameterNumber":3,"parameterNumberName":"V-component_of_WINDS"},"data":[0.0,0.0,0.0,0.0,0.0,0.0,0.0,0.0,0.0,0.0,0.0,0.0,0.0,0.0,0.0,0.0,0.0,0.0,0.0,0.0,0.0,0.0,0.0,0.0,0.0,0.0,0.0,0.0,0.0,0.0,0.0,0.0,0.0,0.0,0.0,0.0,0.0,0.0,0.0,0.0,0.0,0.0,0.0,0.0,0.0,0.0,0.0,0.0,0.0,0.0,0.0,0.0,0.0,0.0,0.0,0.0,0.0,0.0,0.0,0.0,0.0,0.0,0.0,0.0,0.0,0.0,0.0,0.0,0.0,0.0,0.0,0.0,0.0,0.0,0.0,0.0,0.0,0.0,0.0,0.0,0.0,0.0,0.0,0.0,0.0,0.0,0.0,0.0,0.0,0.0,0.0,0.0,0.0,0.0,0.0,0.0,0.0,0.0,0.0,0.0,0.0,0.0,0.0,0.0,0.0,0.0,0.0,0.0,0.0,0.0,0.0,0.0,0.0,0.0,0.0,0.0,0.0,0.0,0.0,0.0,0.0,0.0,0.0,0.0,0.0,0.0,0.0,0.0,0.0,0.0,0.0,0.0,0.0,0.0,0.0,0.0,0.0,0.0,0.0,0.0,0.0,0.0,0.0,0.0,0.0,0.0,0.0,0.0,0.0,0.0,0.0,0.0,0.0,0.0,0.0,0.0,0.0,0.0,0.0,0.0,0.0,0.0,0.0,0.0,0.0,0.0,0.0,0.0,0.0,0.0,0.0,0.0,0.0,0.0,0.0,0.0,0.0,0.0,0.0,0.0,0.0,0.0,0.0,0.0,0.0,0.0,0.0,0.0,0.0,0.0,0.0,0.0,0.0,0.0,0.0,0.0,0.0,0.0,0.0,0.0,0.0,0.0,0.0,0.0,0.0,0.0,0.0,0.0,0.0,0.0,0.0,0.0,0.0,0.0,0.0,0.0,0.0,0.0,0.0,0.0,0.0,0.0,0.0,0.0,0.0,0.0,0.0,0.0,0.0,0.0,0.0,0.0,0.0,0.0,0.0,0.0,0.0,0.0,0.0,0.0,0.0,0.0,0.0,0.0,0.0,0.0,0.0,0.0,0.0,0.0,0.0,0.0,0.0,0.0,0.0,0.0,0.0,0.0,0.0,0.0,0.0,0.0,0.0,0.0,0.0,0.0,0.0,0.0,0.0,0.0,0.0,0.0,0.0,0.0,0.0,0.0,0.0,0.0,0.0,0.0,0.0,0.0,0.0,0.0,0.0,0.0,0.0,0.0,0.0,0.0,0.0,0.0,0.0,0.0,0.0,0.0,0.0,0.0,0.0,0.0,0.0,0.0,0.0,0.0,0.0,0.0,0.0,0.0,0.0,0.0,0.0,0.0,0.0,0.0,0.0,0.0,0.0,0.0,0.0,0.0,0.0,0.0,0.0,0.0,0.0,0.0,0.0,0.0,0.0,0.0,0.0,0.0,0.0,0.0,0.0,0.0,0.0,0.0,0.0,0.0,0.0,0.0,0.0,0.0,0.0,0.0,0.0,0.0,0.0,0.0,0.0,0.0,0.0,0.0,0.0,0.0,0.0,0.0,0.0,0.0,0.0,0.0,0.0,0.0,0.0,0.0,0.0,0.0,0.0,0.0,0.0,0.0,0.0,0.0,0.0,0.0,0.0,0.0,0.0,0.0,0.0,0.0,0.0,0.0,0.0,0.0,0.0,0.0,0.0,0.0,0.0,0.0,0.0,0.0,0.0,0.0,0.0,0.0,0.0,0.0,0.0,0.0,0.0,0.0,0.0,0.0,0.0,0.0,0.0,0.0,0.0,0.0,0.0,0.0,0.0,0.0,0.0,0.0,0.0,0.0,0.0,0.0,0.0,0.0,0.0,0.0,0.0,0.0,0.0,0.0,0.0,0.0,0.0,0.0,0.0,0.0,0.0,0.0,0.0,0.0,0.0,0.0,0.0,0.0,0.0,0.0,0.0,0.0,0.0,0.0,0.0,0.0,0.0,0.0,0.0,0.0,0.0,0.0,0.0,0.0,0.0,0.0,0.0,0.0,0.0,0.0,0.0,0.0,0.0,0.0,0.0,0.0,0.0,0.0,0.0,0.0,0.0,0.0,0.0,0.0,0.0,0.0,0.0,0.0,0.0,0.0,0.0,0.0,0.0,0.0,0.0,0.0,0.0,0.0,0.0,0.0,0.0,0.0,0.0,0.0,0.0,0.0,0.0,0.0,0.0,0.0,0.0,0.0,0.0,0.0,0.0,0.0,0.0,0.0,0.0,0.0,0.0,0.0,0.0,0.0,0.0,0.0,0.0,0.0,0.0,0.0,0.0,0.0,0.0,0.0,0.0,0.0,0.0,0.0,0.0,0.0,0.0,0.0,0.0,0.0,0.0,0.0,0.0,0.0,0.0,0.0,0.0,0.0,0.0,0.0,0.0,0.0,0.0,0.0,0.0,0.0,0.0,0.0,0.0,0.0,0.0,0.0,0.0,0.0,0.0,0.0,0.0,0.0,0.0,0.0,0.0,0.0,0.0,0.0,0.0,0.0,0.0,0.0,0.0,0.0,0.0,0.0,0.0,0.0,0.0,0.0,0.0,0.0,0.0,0.0,0.0,0.0,0.0,0.0,0.0,0.0,0.0,0.0,0.0,0.0,0.0,0.0,0.0,0.0,0.0,0.0,0.0,0.0,0.0,0.0,0.0,0.0,0.0,0.0,0.0,0.0,0.0,0.0,0.0,0.0,0.0,0.0,0.0,0.0,0.0,0.0,0.0,0.0,0.0,0.0,0.0,0.0,0.0,0.0,0.0,0.0,0.0,0.0,0.0,0.0,0.0,0.0,0.0,0.0,0.0,0.0,0.0,0.0,0.0,0.0,0.0,0.0,0.0,0.0,0.0,0.0,0.0,0.0,0.0,0.0,0.0,0.0,0.0,0.0,0.0,0.0,0.0,0.0,0.0,0.0,0.0,0.0,0.0,0.0,0.0,0.0,0.0,0.0,0.0,0.0,0.0,0.0,0.0,0.0,0.0,0.0,0.0,0.0,0.0,0.0,0.0,0.0,0.0,0.0,0.0,0.0,0.0,0.0,0.0,0.0,0.0,0.0,0.0,0.0,0.0,0.0,0.0,0.0,0.0,0.0,0.0,0.0,0.0,0.0,0.0,0.0,0.0,0.0,0.0,0.0,0.0,0.0,0.0,0.0,0.0,0.0,0.0,0.0,0.0,0.0,0.0,0.0,0.0,0.0,0.0,0.0,0.0,0.0,0.0,0.0,0.0,0.0,0.0,0.0,0.0,0.0,0.0,0.0,0.0,0.0,0.0,0.0,0.0,0.0,0.0,0.0,0.0,0.0,0.0,0.0,0.0,0.0,0.0,0.0,0.0,0.0,0.0,0.0,0.0,0.0,0.0,0.0,0.0,0.0,0.0,0.0,0.0,0.0,0.0,0.0,0.0,0.0,0.0,0.0,0.0,0.0,0.0,0.0,0.0,0.0,0.0,0.0,0.0,0.0,0.0,0.0,0.0,0.0,0.0,0.0,0.0,0.0,0.0,0.0,0.0,0.0,0.0,0.0,0.0,0.0,0.0,0.0,0.0,0.0,0.0,0.0,0.0,0.0,0.0,0.0,0.0,0.0,0.0,0.0,0.0,0.0,0.0,0.0,0.0,0.0,0.0,0.0,0.0,0.0,0.0,0.0,0.0,0.0,0.0,0.0,0.0,0.0,0.0,0.0,0.0,0.0,0.0,0.0,0.0,0.0,0.0,0.0,0.0,0.0,0.0,0.0,0.0,0.0,0.0,0.0,0.0,0.0,0.0,0.0,0.0,0.0,0.0,0.0,0.0,0.0,0.0,0.0,0.0,0.0,0.0,0.0,0.0,0.0,0.0,0.0,0.0,0.0,0.0,0.0,0.0,0.0,0.0,0.0,0.0,0.0,0.0,0.0,0.0,0.0,0.0,0.0,0.0,0.0,0.0,0.0,0.0,0.0,0.0,0.0,0.0,0.0,0.0,0.0,0.0,0.0,0.0,0.0,0.0,0.0,0.0,0.0,0.0,0.0,0.0,0.0,0.0,0.0,0.0,0.0,0.0,0.0,0.0,0.0,0.0,0.0,0.0,0.0,0.0,0.0,0.0,0.0,0.0,0.0,0.0,0.0,0.0,0.0,0.0,0.0,0.0,0.0,0.0,0.0,0.0,0.0,0.0,0.0,0.0,0.0,0.0,0.0,0.0,0.0,0.0,0.0,0.0,0.0,0.0,0.0,0.0,0.0,-2.2566,0.0,0.0,0.0,0.0,0.0,0.0,0.0,0.0,0.0,0.0,0.0,0.0,0.0,0.0,0.0,0.0,0.0,0.0,0.0,0.0,0.0,0.0,0.0,0.0,0.0,0.0,0.0,0.0,0.0,0.0,0.0,0.0,0.0,0.0,0.0,0.0,0.0,0.0,0.0,0.0,0.0,0.0,0.0,0.0,0.0,0.0,0.0,0.0,0.0,0.0,0.0,0.0,0.0,0.0,0.0,0.0,0.0,0.0,0.0,0.0,0.0,0.0,0.0,0.0,0.0,0.0,0.0,0.0,0.0,0.0,0.0,0.0,0.0,0.0,0.0,0.0,0.0,0.0,0.0,0.0,0.0,0.0,0.0,0.0,0.0,0.0,0.0,0.0,0.0,0.0,0.0,0.0,0.0,0.0,0.0,0.0,0.0,0.0,0.0,0.0,0.0,0.0,0.0,0.0,0.0,0.0,0.0,0.0,0.0,0.0,-2.4243,-2.4507,-2.442,-2.3783,-2.2471,0.0,0.0,0.0,0.0,0.0,0.0,0.0,0.0,0.0,0.0,0.0,0.0,0.0,0.0,0.0,0.0,0.0,0.0,0.0,0.0,0.0,0.0,0.0,0.0,0.0,0.0,0.0,0.0,0.0,0.0,0.0,0.0,0.0,0.0,0.0,0.0,0.0,0.0,0.0,0.0,0.0,0.0,0.0,0.0,0.0,0.0,0.0,0.0,0.0,0.0,0.0,0.0,0.0,0.0,0.0,0.0,0.0,0.0,0.0,0.0,0.0,0.0,0.0,0.0,0.0,0.0,0.0,0.0,0.0,0.0,0.0,0.0,0.0,0.0,0.0,0.0,0.0,0.0,0.0,0.0,0.0,0.0,0.0,0.0,0.0,0.0,0.0,0.0,0.0,0.0,0.0,0.0,0.0,0.0,0.0,0.0,0.0,0.0,0.0,0.0,0.0,0.0,0.0,0.0,0.0,0.0,0.0,0.0,0.0,0.0,0.0,0.0,-2.4165,-2.3633,-2.2121,0.0,0.0,0.0,0.0,0.0,0.0,0.0,0.0,0.0,0.0,0.0,0.0,0.0,0.0,0.0,0.0,0.0,0.0,0.0,0.0,0.0,0.0,0.0,0.0,0.0,0.0,0.0,0.0,0.0,0.0,0.0,0.0,0.0,0.0,0.0,0.0,0.0,0.0,0.0,0.0,0.0,0.0,0.0,0.0,0.0,0.0,0.0,0.0,0.0,0.0,0.0,0.0,0.0,0.0,0.0,0.0,0.0,0.0,0.0,0.0,0.0,0.0,0.0,0.0,0.0,0.0,0.0,0.0,0.0,0.0,0.0,0.0,0.0,0.0,0.0,0.0,0.0,0.0,0.0,0.0,0.0,0.0,0.0,0.0,0.0,0.0,0.0,0.0,0.0,0.0,0.0,0.0,0.0,0.0,0.0,0.0,0.0,0.0,0.0,0.0,0.0,0.0,0.0,0.0,0.0,0.0,0.0,0.0,0.0,0.0,-2.2389,-2.2658,-2.3092,0.0,-2.1673,0.0,0.0,0.0,0.0,0.0,0.0,0.0,0.0,0.0,0.0,0.0,0.0,0.0,0.0,0.0,0.0,0.0,0.0,0.0,0.0,0.0,0.0,0.0,0.0,0.0,0.0,0.0,0.0,0.0,0.0,0.0,0.0,0.0,0.0,0.0,0.0,0.0,0.0,0.0,0.0,0.0,0.0,0.0,0.0,0.0,0.0,0.0,0.0,0.0,0.0,0.0,0.0,0.0,0.0,0.0,0.0,0.0,0.0,0.0,0.0,0.0,0.0,0.0,0.0,0.0,0.0,0.0,0.0,0.0,0.0,0.0,0.0,0.0,0.0,0.0,0.0,0.0,0.0,0.0,0.0,0.0,0.0,0.0,0.0,0.0,0.0,0.0,0.0,0.0,0.0,0.0,0.0,0.0,0.0,0.0,0.0,0.0,0.0,0.0,0.0,0.0,0.0,0.0,0.0,0.0,0.0,0.0,0.0,0.0,0.0,-2.0493,-2.0967,-2.0994,-2.098,0.0,0.0,0.0,0.0,0.0,0.0,0.0,0.0,0.0,0.0,0.0,0.0,0.0,0.0,0.0,0.0,0.0,0.0,0.0,0.0,0.0,0.0,0.0,0.0,0.0,0.0,0.0,0.0,0.0,0.0,0.0,0.0,0.0,0.0,0.0,0.0,0.0,0.0,0.0,0.0,0.0,0.0,0.0,0.0,0.0,0.0,0.0,0.0,0.0,0.0,0.0,0.0,0.0,0.0,0.0,0.0,0.0,0.0,0.0,0.0,0.0,0.0,0.0,0.0,0.0,0.0,0.0,0.0,0.0,0.0,0.0,0.0,0.0,0.0,0.0,0.0,0.0,0.0,0.0,0.0,0.0,0.0,0.0,0.0,0.0,0.0,0.0,0.0,0.0,0.0,0.0,0.0,0.0,0.0,0.0,0.0,0.0,0.0,0.0,0.0,0.0,0.0,0.0,0.0,0.0,0.0,0.0,0.0,0.0,0.0,-1.7789,-1.8462,-1.9375,-1.916,-1.9375,-2.0112,0.0,0.0,0.0,0.0,0.0,0.0,0.0,0.0,0.0,0.0,0.0,0.0,0.0,0.0,0.0,0.0,0.0,0.0,0.0,0.0,0.0,0.0,0.0,0.0,0.0,0.0,0.0,0.0,0.0,0.0,0.0,0.0,0.0,0.0,0.0,0.0,0.0,0.0,0.0,0.0,0.0,0.0,0.0,0.0,0.0,0.0,0.0,0.0,0.0,0.0,0.0,0.0,0.0,0.0,0.0,0.0,0.0,0.0,0.0,0.0,0.0,0.0,0.0,0.0,0.0,0.0,0.0,0.0,0.0,0.0,0.0,0.0,0.0,0.0,0.0,0.0,0.0,0.0,0.0,0.0,0.0,0.0,0.0,0.0,0.0,0.0,0.0,0.0,0.0,0.0,0.0,0.0,0.0,0.0,0.0,0.0,0.0,0.0,0.0,0.0,0.0,0.0,0.0,0.0,0.0,0.0,0.0,0.0,-1.475,-1.5211,-1.6399,-1.8262,-1.7985,-1.8247,0.0,0.0,0.0,0.0,0.0,0.0,0.0,0.0,0.0,0.0,0.0,0.0,0.0,0.0,0.0,0.0,0.0,0.0,0.0,0.0,0.0,0.0,0.0,0.0,0.0,0.0,0.0,0.0,0.0,0.0,0.0,0.0,0.0,0.0,0.0,0.0,0.0,0.0,0.0,0.0,0.0,0.0,0.0,0.0,0.0,0.0,0.0,0.0,0.0,0.0,0.0,0.0,0.0,0.0,0.0,0.0,0.0,0.0,0.0,0.0,0.0,0.0,0.0,0.0,0.0,0.0,0.0,0.0,0.0,0.0,0.0,0.0,0.0,0.0,0.0,0.0,0.0,0.0,0.0,0.0,0.0,0.0,0.0,0.0,0.0,0.0,0.0,0.0,0.0,0.0,0.0,0.0,0.0,0.0,0.0,0.0,0.0,0.0,0.0,0.0,0.0,0.0,0.0,0.0,0.0,0.0,0.0,0.0,0.0,-1.1881,-1.3217,-1.4753,-1.6405,-1.638,-1.6876,0.0,0.0,0.0,0.0,0.0,0.0,0.0,0.0,0.0,0.0,0.0,0.0,0.0,0.0,0.0,0.0,0.0,0.0,0.0,0.0,0.0,0.0,0.0,0.0,0.0,0.0,0.0,0.0,0.0,0.0,0.0,0.0,0.0,0.0,0.0,0.0,0.0,0.0,0.0,0.0,0.0,0.0,0.0,0.0,0.0,0.0,0.0,0.0,0.0,0.0,0.0,0.0,0.0,0.0,0.0,0.0,0.0,0.0,0.0,0.0,0.0,0.0,0.0,0.0,0.0,0.0,0.0,0.0,0.0,0.0,0.0,0.0,0.0,0.0,0.0,0.0,0.0,0.0,0.0,0.0,0.0,0.0,0.0,0.0,0.0,0.0,0.0,0.0,0.0,0.0,0.0,0.0,0.0,0.0,0.0,0.0,0.0,0.0,0.0,0.0,0.0,0.0,0.0,0.0,0.0,0.0,0.0,0.0,0.0,-0.9577,0.0,-1.302,-1.4766,-1.4874,-1.5554,0.0,0.0,0.0,0.0,0.0,0.0,0.0,0.0,0.0,0.0,0.0,0.0,0.0,0.0,0.0,0.0,0.0,0.0,0.0,0.0,0.0,0.0,0.0,0.0,0.0,0.0,0.0,0.0,0.0,0.0,0.0,0.0,0.0,0.0,0.0,0.0,0.0,0.0,0.0,0.0,0.0,0.0,0.0,0.0,0.0,0.0,0.0,0.0,0.0,0.0,0.0,0.0,0.0,0.0,0.0,0.0,0.0,0.0,0.0,0.0,0.0,0.0,0.0,0.0,0.0,0.0,0.0,0.0,0.0,0.0,0.0,0.0,0.0,0.0,0.0,0.0,0.0,0.0,0.0,0.0,0.0,0.0,0.0,0.0,0.0,0.0,0.0,0.0,0.0,0.0,0.0,0.0,0.0,0.0,0.0,0.0,0.0,0.0,0.0,0.0,0.0,0.0,0.0,0.0,0.0,0.0,0.0,0.0,-0.6912,-0.7976,-0.9232,-1.104,-1.3391,-1.3565,-1.4434,0.0,0.0,0.0,0.0,0.0,0.0,0.0,0.0,0.0,0.0,0.0,0.0,0.0,0.0,0.0,0.0,0.0,0.0,0.0,0.0,0.0,0.0,0.0,0.0,0.0,0.0,0.0,0.0,0.0,0.0,0.0,0.0,0.0,0.0,0.0,0.0,0.0,0.0,0.0,0.0,0.0,0.0,0.0,0.0,0.0,0.0,0.0,0.0,0.0,0.0,0.0,0.0,0.0,0.0,0.0,0.0,0.0,0.0,0.0,0.0,0.0,0.0,0.0,0.0,0.0,0.0,0.0,0.0,0.0,0.0,0.0,0.0,0.0,0.0,0.0,0.0,0.0,0.0,0.0,0.0,0.0,0.0,0.0,0.0,0.0,0.0,0.0,0.0,0.0,0.0,0.0,0.0,0.0,0.0,0.0,0.0,0.0,0.0,0.0,0.0,0.0,0.0,0.0,0.0,0.0,0.0,0.0,0.0,0.0,-0.5932,-0.7644,-0.9639,-1.1939,-1.2783,-1.3869,0.0,0.0,0.0,0.0,0.0,0.0,0.0,0.0,0.0,0.0,0.0,0.0,0.0,0.0,0.0,0.0,0.0,0.0,0.0,0.0,0.0,0.0,0.0,0.0,0.0,0.0,0.0,0.0,0.0,0.0,0.0,0.0,0.0,0.0,0.0,0.0,0.0,0.0,0.0,0.0,0.0,0.0,0.0,0.0,0.0,0.0,0.0,0.0,0.0,0.0,0.0,0.0,0.0,0.0,0.0,0.0,0.0,0.0,0.0,0.0,0.0,0.0,0.0,0.0,0.0,0.0,0.0,0.0,0.0,0.0,0.0,0.0,0.0,0.0,0.0,0.0,0.0,0.0,0.0,0.0,0.0,0.0,0.0,0.0,0.0,0.0,0.0,0.0,0.0,0.0,0.0,0.0,0.0,0.0,0.0,0.0,0.0,0.0,0.0,0.0,0.0,0.0,0.0,0.0,0.0,0.0,0.0,0.0,0.0,-0.329,-0.5663,-0.8232,-1.1019,-1.1862,-1.3082,-1.4747,0.0,0.0,0.0,0.0,0.0,0.0,0.0,0.0,0.0,0.0,0.0,0.0,0.0,0.0,0.0,0.0,0.0,0.0,0.0,0.0,0.0,0.0,0.0,0.0,0.0,0.0,0.0,0.0,0.0,0.0,0.0,0.0,0.0,0.0,0.0,0.0,0.0,0.0,0.0,0.0,0.0,0.0,0.0,0.0,0.0,0.0,0.0,0.0,0.0,0.0,0.0,0.0,0.0,0.0,0.0,0.0,0.0,0.0,0.0,0.0,0.0,0.0,0.0,0.0,0.0,0.0,0.0,0.0,0.0,0.0,0.0,0.0,0.0,0.0,0.0,0.0,0.0,0.0,0.0,0.0,0.0,0.0,0.0,0.0,0.0,0.0,0.0,0.0,0.0,0.0,0.0,0.0,0.0,0.0,0.0,0.0,0.0,0.0,0.0,0.0,0.0,0.0,0.0,0.0,0.0,0.0,0.0,0.0,-0.028,-0.3396,-0.6751,-1.0284,-1.0885,-1.2184,0.0,0.0,0.0,0.0,0.0,0.0,0.0,0.0,0.0,0.0,0.0,0.0,0.0,0.0,0.0,0.0,0.0,0.0,0.0,0.0,0.0,0.0,0.0,0.0,0.0,0.0,0.0,0.0,0.0,0.0,0.0,0.0,0.0,0.0,0.0,0.0,0.0,0.0,0.0,0.0,0.0,0.0,0.0,0.0,0.0,0.0,0.0,0.0,0.0,0.0,0.0,0.0,0.0,0.0,0.0,0.0,0.0,0.0,0.0,0.0,0.0,0.0,0.0,0.0,0.0,0.0,0.0,0.0,0.0,0.0,0.0,0.0,0.0,0.0,0.0,0.0,0.0,0.0,0.0,0.0,0.0,0.0,0.0,0.0,0.0,0.0,0.0,0.0,0.0,0.0,0.0,0.0,0.0,0.0,0.0,0.0,0.0,0.0,0.0,0.0,0.0,0.0,0.0,0.0,0.0,0.0,0.0,0.0,0.0,0.0073,-0.0909,-0.3865,-0.8834,-1.0719,-1.2571,0.0,0.0,0.0,0.0,0.0,0.0,0.0,0.0,0.0,0.0,0.0,0.0,0.0,0.0,0.0,0.0,0.0,0.0,0.0,0.0,0.0,0.0,0.0,0.0,0.0,0.0,0.0,0.0,0.0,0.0,0.0,0.0,0.0,0.0,0.0,0.0,0.0,0.0,0.0,0.0,0.0,0.0,0.0,0.0,0.0,0.0,0.0,0.0,0.0,0.0,0.0,0.0,0.0,0.0,0.0,0.0,0.0,0.0,0.0,0.0,0.0,0.0,0.0,0.0,0.0,0.0,0.0,0.0,0.0,0.0,0.0,0.0,0.0,0.0,0.0,0.0,0.0,0.0,0.0,0.0,0.0,0.0,0.0,0.0,0.0,0.0,0.0,0.0,0.0,0.0,0.0,0.0,0.0,0.0,0.0,0.0,0.0,0.0,0.0,0.0,0.0,0.0,0.0,0.0,0.0,0.0,0.0,0.0,0.311,0.1296,0.0404,-0.2286,-0.6969,-0.9244,-1.1549,0.0,0.0,0.0,0.0,0.0,0.0,0.0,0.0,0.0,0.0,0.0,0.0,0.0,0.0,0.0,0.0,0.0,0.0,0.0,0.0,0.0,0.0,0.0,0.0,0.0,0.0,0.0,0.0,0.0,0.0,0.0,0.0,0.0,0.0,0.0,0.0,0.0,0.0,0.0,0.0,0.0,0.0,0.0,0.0,0.0,0.0,0.0,0.0,0.0,0.0,0.0,0.0,0.0,0.0,0.0,0.0,0.0,0.0,0.0,0.0,0.0,0.0,0.0,0.0,0.0,0.0,0.0,0.0,0.0,0.0,0.0,0.0,0.0,0.0,0.0,0.0,0.0,0.0,0.0,0.0,0.0,0.0,0.0,0.0,0.0,0.0,0.0,0.0,0.0,0.0,0.0,0.0,0.0,0.0,0.0,0.0,0.0,0.0,0.0,0.0,0.0,0.0,0.0,0.0,0.0,0.0,0.0,0.0,0.4114,0.2888,0.1249,-0.1272,-0.4777,-0.7323,-0.9878,0.0,0.0,0.0,0.0,0.0,0.0,0.0,0.0,0.0,0.0,0.0,0.0,0.0,0.0,0.0,0.0,0.0,0.0,0.0,0.0,0.0,0.0,0.0,0.0,0.0,0.0,0.0,0.0,0.0,0.0,0.0,0.0,0.0,0.0,0.0,0.0,0.0,0.0,0.0,0.0,0.0,0.0,0.0,0.0,0.0,0.0,0.0,0.0,0.0,0.0,0.0,0.0,0.0,0.0,0.0,0.0,0.0,0.0,0.0,0.0,0.0,0.0,0.0,0.0,0.0,0.0,0.0,0.0,0.0,0.0,0.0,0.0,0.0,0.0,0.0,0.0,0.0,0.0,0.0,0.0,0.0,0.0,0.0,0.0,0.0,0.0,0.0,0.0,0.0,0.0,0.0,0.0,0.0,0.0,0.0,0.0,0.0,0.0,0.0,0.0,0.0,0.0,0.0,0.0,0.0,0.0,0.0,0.0,0.5179,0.3122,0.2876,0.0825,-0.3405,-0.6744,-0.9923,0.0,0.0,0.0,0.0,0.0,0.0,0.0,0.0,0.0,0.0,0.0,0.0,0.0,0.0,0.0,0.0,0.0,0.0,0.0,0.0,0.0,0.0,0.0,0.0,0.0,0.0,0.0,0.0,0.0,0.0,0.0,0.0,0.0,0.0,0.0,0.0,0.0,0.0,0.0,0.0,0.0,0.0,0.0,0.0,0.0,0.0,0.0,0.0,-1.6367,0.0,0.0,0.0,0.0,0.0,0.0,0.0,0.0,0.0,0.0,0.0,0.0,0.0,0.0,0.0,0.0,0.0,0.0,0.0,0.0,0.0,0.0,0.0,0.0,0.0,0.0,0.0,0.0,0.0,0.0,0.0,0.0,0.0,0.0,0.0,0.0,0.0,0.0,0.0,0.0,0.0,0.0,0.0,0.0,0.0,0.0,0.0,0.0,0.0,0.0,0.0,0.0,0.0,0.0,0.0,0.0,0.0,0.0,0.0,0.5873,0.3491,0.3538,0.1472,-0.2969,-0.5861,-0.8852,0.0,0.0,0.0,0.0,0.0,0.0,0.0,0.0,0.0,0.0,0.0,0.0,0.0,0.0,0.0,0.0,0.0,0.0,0.0,0.0,0.0,0.0,0.0,0.0,0.0,0.0,0.0,0.0,0.0,0.0,0.0,0.0,0.0,0.0,0.0,0.0,0.0,0.0,0.0,0.0,0.0,0.0,0.0,0.0,0.0,0.0,0.0,0.0,0.0,0.0,0.0,0.0,0.0,0.0,0.0,0.0,0.0,0.0,0.0,0.0,0.0,0.0,0.0,0.0,0.0,0.0,0.0,0.0,0.0,0.0,0.0,0.0,0.0,0.0,0.0,0.0,0.0,0.0,0.0,0.0,0.0,0.0,0.0,0.0,0.0,0.0,0.0,0.0,0.0,0.0,0.0,0.0,0.0,0.0,0.0,0.0,0.0,0.0,0.0,0.0,0.0,0.0,0.0,0.0,0.0,0.0,0.0,0.7265,0.6308,0.382,0.3648,0.1471,-0.2969,-0.498,-0.7667,-1.1191,0.0,0.0,0.0,0.0,0.0,0.0,0.0,0.0,0.0,0.0,0.0,0.0,0.0,0.0,0.0,0.0,0.0,0.0,0.0,0.0,0.0,0.0,0.0,0.0,0.0,0.0,0.0,0.0,0.0,0.0,0.0,0.0,0.0,0.0,0.0,0.0,0.0,0.0,-0.6215,-0.644,0.0,0.0,0.0,0.0,0.0,0.0,0.0,0.0,-1.534,0.0,0.0,0.0,0.0,0.0,0.0,0.0,0.0,0.0,0.0,0.0,0.0,0.0,0.0,0.0,0.0,0.0,0.0,0.0,0.0,0.0,0.0,0.0,0.0,0.0,0.0,0.0,0.0,0.0,0.0,0.0,0.0,0.0,0.0,0.0,0.0,0.0,0.0,0.0,0.0,0.0,0.0,0.0,0.0,0.0,0.0,0.0,0.0,0.0,0.0,0.0,0.0,0.0,0.0,0.0,0.0,0.6791,0.732,0.628,0.3662,0.3595,0.1472,-0.2891,-0.498,-0.7606,-1.0955,0.0,0.0,0.0,0.0,0.0,0.0,0.0,0.0,0.0,0.0,0.0,0.0,0.0,0.0,0.0,0.0,0.0,0.0,0.0,0.0,0.0,0.0,0.0,0.0,0.0,0.0,0.0,0.0,0.0,0.0,0.0,0.0,0.0,0.0,0.0,0.0,0.0,0.0,0.0,-0.3928,-0.5008,0.0,0.0,0.0,0.0,0.0,0.0,0.0,0.0,-1.5686,0.0,0.0,0.0,0.0,0.0,0.0,0.0,0.0,0.0,0.0,0.0,0.0,0.0,0.0,0.0,0.0,0.0,0.0,0.0,0.0,0.0,0.0,0.0,0.0,0.0,0.0,0.0,0.0,0.0,0.0,0.0,0.0,0.0,0.0,0.0,0.0,0.0,0.0,0.0,0.0,0.0,0.0,0.0,0.0,0.0,0.0,0.0,0.0,0.0,0.0,0.0,0.0,0.0,0.0,0.0,0.6953,0.6823,0.569,0.3686,0.3016,0.0818,-0.2971,-0.4977,-0.7535,0.0,0.0,0.0,0.0,0.0,0.0,0.0,0.0,0.0,0.0,0.0,0.0,0.0,0.0,0.0,0.0,0.0,0.0,0.0,0.0,0.0,0.0,0.0,0.0,0.0,0.0,0.0,0.0,0.0,0.0,0.0,0.0,0.0,0.0,0.0,0.0,0.0,0.0,0.0,0.0,-0.1997,-0.3162,-0.5012,0.0,0.0,0.0,0.0,0.0,0.0,-1.3875,-1.5551,0.0,0.0,0.0,0.0,0.0,0.0,0.0,0.0,0.0,0.0,0.0,0.0,0.0,0.0,0.0,0.0,0.0,0.0,0.0,0.0,0.0,0.0,0.0,0.0,0.0,0.0,0.0,0.0,0.0,0.0,0.0,0.0,0.0,0.0,0.0,0.0,0.0,0.0,0.0,0.0,0.0,0.0,0.0,0.0,0.0,0.0,0.0,0.0,0.0,0.0,0.0,0.0,0.0,0.0,0.0,0.7242,0.6315,0.5109,0.3606,0.2419,0.0244,-0.2969,-0.4955,-0.7408,0.0,0.0,0.0,0.0,0.0,0.0,0.0,0.0,0.0,0.0,0.0,0.0,0.0,0.0,0.0,0.0,0.0,0.0,0.0,0.0,0.0,0.0,0.0,0.0,0.0,0.0,0.0,0.0,0.0,0.0,0.0,0.0,0.0,0.0,0.0,0.0,0.0,0.0,0.0,0.0,0.0,-0.1774,-0.3771,-0.5329,0.0,0.0,0.0,0.0,-1.2332,-1.4001,0.0,0.0,0.0,0.0,0.0,0.0,0.0,0.0,0.0,0.0,0.0,0.0,0.0,0.0,0.0,0.0,0.0,0.0,0.0,0.0,0.0,0.0,0.0,0.0,0.0,0.0,0.0,0.0,0.0,0.0,0.0,0.0,0.0,0.0,0.0,0.0,0.0,0.0,0.0,0.0,0.0,0.0,0.0,0.0,0.0,0.0,0.0,0.0,0.0,0.0,0.0,0.0,0.0,0.0,0.0,0.0,0.7234,0.6296,0.5113,0.3601,0.2464,0.0241,-0.2968,-0.4654,-0.6945,0.0,0.0,0.0,0.0,0.0,0.0,0.0,0.0,0.0,0.0,0.0,0.0,0.0,0.0,0.0,0.0,0.0,0.0,0.0,0.0,0.0,0.0,0.0,0.0,0.0,0.0,0.0,0.0,0.0,0.0,0.0,0.0,0.0,0.0,0.0,0.0,0.0,0.0,0.0,0.0,0.0,-0.1145,-0.3476,-0.4745,-0.6257,0.0,0.0,-1.0616,-1.2533,-1.4683,0.0,0.0,0.0,0.0,0.0,0.0,0.0,0.0,0.0,0.0,0.0,0.0,0.0,0.0,0.0,0.0,0.0,0.0,0.0,0.0,0.0,0.0,0.0,0.0,0.0,0.0,0.0,0.0,0.0,0.0,0.0,0.0,0.0,0.0,0.0,0.0,0.0,0.0,0.0,0.0,0.0,0.0,0.0,0.0,0.0,0.0,0.0,0.0,0.0,0.0,0.0,0.0,0.0,0.0,0.0,0.6099,0.6153,0.5131,0.39,0.2599,0.082,-0.1041,-0.3047,-0.5164,-0.7351,0.0,0.0,0.0,0.0,0.0,0.0,0.0,0.0,0.0,0.0,0.0,0.0,0.0,0.0,0.0,0.0,0.0,0.0,0.0,0.0,0.0,0.0,0.0,0.0,0.0,0.0,0.0,0.0,0.0,0.0,0.0,0.0,0.0,0.0,0.0,0.0,0.0,0.0,0.0,0.0,0.0,0.0,-0.3095,-0.4118,0.0,0.0,0.0,-1.0575,-1.3109,0.0,0.0,0.0,0.0,0.0,0.0,0.0,0.0,0.0,0.0,0.0,0.0,0.0,0.0,0.0,0.0,0.0,0.0,0.0,0.0,0.0,0.0,0.0,0.0,0.0,0.0,0.0,0.0,0.0,0.0,0.0,0.0,0.0,0.0,0.0,0.0,0.0,0.0,0.0,0.0,0.0,0.0,0.0,0.0,0.0,0.0,0.0,0.0,0.0,0.0,0.0,0.0,0.0,0.0,0.0,0.0,0.0,0.5104,0.4068,0.306,0.1746,-0.0407,-0.2073,-0.3124,-0.5353,0.0,0.0,0.0,0.0,0.0,0.0,0.0,0.0,0.0,0.0,0.0,0.0,0.0,0.0,0.0,0.0,0.0,0.0,0.0,0.0,0.0,0.0,0.0,0.0,0.0,0.0,0.0,-1.1501,0.0,0.0,0.0,0.0,0.0,0.0,0.0,0.0,0.0,0.0,0.0,0.0,0.0,0.0,-0.0584,-0.3014,-0.4047,-0.5594,0.0,0.0,-1.1096,-1.3978,-1.5518,-1.7172,0.0,0.0,0.0,0.0,0.0,0.0,0.0,0.0,0.0,0.0,0.0,0.0,0.0,0.0,0.0,0.0,0.0,0.0,0.0,0.0,0.0,0.0,0.0,0.0,0.0,0.0,0.0,0.0,0.0,0.0,0.0,0.0,0.0,0.0,0.0,0.0,0.0,0.0,0.0,0.0,0.0,0.0,0.0,0.0,0.0,0.0,0.0,0.0,0.0,0.0,0.0,0.0,0.0,0.0,0.4927,0.4533,0.3891,0.2991,0.1787,-0.0397,-0.2117,-0.3044,-0.4927,-0.6968,0.0,0.0,0.0,0.0,0.0,0.0,0.0,0.0,0.0,0.0,0.0,0.0,0.0,0.0,0.0,0.0,0.0,0.0,0.0,0.0,0.0,0.0,0.0,0.0,0.0,0.0,0.0,0.0,0.0,0.0,0.0,0.0,0.0,0.0,0.0,0.0,0.0,0.0,0.0,0.0,0.0,-0.1637,-0.3342,-0.4952,-0.69,0.0,-1.0912,-1.2567,-1.5143,-1.6667,-1.8082,-1.9496,0.0,0.0,0.0,0.0,0.0,0.0,0.0,0.0,0.0,0.0,0.0,0.0,0.0,0.0,0.0,0.0,0.0,0.0,0.0,0.0,0.0,0.0,0.0,0.0,0.0,0.0,0.0,0.0,0.0,0.0,0.0,0.0,0.0,0.0,0.0,0.0,0.0,0.0,0.0,0.0,0.0,0.0,0.0,0.0,0.0,0.0,0.0,0.0,0.0,0.0,0.0,0.0,0.0,0.3011,0.2715,0.2591,0.1575,-0.0243,-0.1742,-0.3047,-0.4062,-0.5701,-0.7364,0.0,0.0,0.0,0.0,0.0,0.0,0.0,0.0,0.0,0.0,0.0,0.0,0.0,0.0,0.0,0.0,0.0,0.0,0.0,0.0,0.0,0.0,0.0,0.0,0.0,0.0,0.0,0.0,-1.1419,-1.1086,-0.998,0.0,0.0,0.0,0.0,0.0,0.0,0.0,0.0,0.0,0.0,-0.2086,-0.3411,-0.5473,0.0,0.0,-1.1585,-1.3337,-1.554,-1.6768,-1.7925,-1.963,-2.0938,0.0,0.0,0.0,0.0,0.0,0.0,0.0,0.0,0.0,0.0,0.0,0.0,0.0,0.0,0.0,0.0,0.0,0.0,0.0,0.0,0.0,0.0,0.0,0.0,0.0,0.0,0.0,0.0,0.0,0.0,0.0,0.0,0.0,0.0,0.0,0.0,0.0,0.0,0.0,0.0,0.0,0.0,0.0,0.0,0.0,0.0,0.0,0.0,0.0,0.0,0.0,0.0,0.1475,0.1122,0.1291,0.0413,-0.1527,-0.2917,-0.3904,-0.4686,-0.6059,-0.7496,0.0,0.0,0.0,0.0,0.0,0.0,0.0,0.0,0.0,0.0,0.0,0.0,0.0,0.0,0.0,0.0,0.0,0.0,0.0,0.0,0.0,0.0,0.0,0.0,0.0,0.0,0.0,0.0,-1.1417,-1.1015,-0.9583,0.0,0.0,0.0,0.0,0.0,0.0,0.0,0.0,0.0,0.0,-0.2801,-0.4112,-0.6283,-0.8418,-1.0224,-1.1828,-1.3485,-1.5609,-1.6425,-1.7468,-1.9525,0.0,0.0,0.0,0.0,0.0,0.0,0.0,0.0,0.0,0.0,0.0,0.0,0.0,0.0,0.0,0.0,0.0,0.0,0.0,0.0,0.0,0.0,0.0,0.0,0.0,0.0,0.0,-0.9885,0.0,0.0,-0.8193,0.0,0.0,0.0,0.0,0.0,0.0,0.0,0.0,0.0,0.0,0.0,0.0,0.0,0.0,0.0,0.0,0.0,0.0,0.0,0.0,0.0,0.0,0.0446,0.0073,0.008,-0.0409,-0.165,-0.3597,-0.4686,-0.4761,-0.578,-0.7223,-0.9057,0.0,0.0,0.0,0.0,0.0,0.0,0.0,0.0,0.0,0.0,0.0,0.0,0.0,0.0,0.0,0.0,0.0,0.0,0.0,0.0,0.0,0.0,0.0,0.0,0.0,0.0,-1.0551,-1.0732,-1.0451,0.0,0.0,0.0,0.0,0.0,0.0,0.0,0.0,0.0,0.0,-0.3071,-0.4122,-0.5555,-0.7375,-0.9065,-1.0554,-1.1505,-1.2857,-1.5311,-1.5921,-1.6851,0.0,0.0,0.0,0.0,0.0,0.0,0.0,0.0,0.0,0.0,0.0,0.0,0.0,0.0,0.0,0.0,0.0,0.0,0.0,0.0,0.0,0.0,0.0,0.0,0.0,0.0,0.0,-1.0432,-1.0172,0.0,0.0,0.0,0.0,0.0,0.0,0.0,0.0,0.0,0.0,0.0,-1.0275,-1.1259,0.0,0.0,0.0,0.0,0.0,0.0,0.0,0.0,0.0,0.0,0.0,0.0,-0.2081,-0.1241,-0.1838,-0.2537,-0.3287,-0.4219,-0.4961,-0.5569,-0.6468,-0.8001,-1.0131,0.0,0.0,0.0,0.0,0.0,0.0,0.0,0.0,0.0,0.0,0.0,0.0,0.0,0.0,0.0,0.0,0.0,0.0,0.0,0.0,0.0,0.0,0.0,0.0,0.0,-1.065,0.0,0.0,0.0,0.0,0.0,0.0,0.0,0.0,0.0,0.0,0.0,-0.1369,-0.1672,-0.3206,-0.4502,-0.5049,-0.7165,-0.9244,0.0,0.0,0.0,0.0,0.0,0.0,0.0,0.0,0.0,0.0,0.0,0.0,0.0,0.0,-1.8116,-1.7491,-1.699,-1.6457,-1.5776,0.0,0.0,0.0,0.0,0.0,0.0,0.0,0.0,0.0,0.0,0.0,0.0,0.0,0.0,-1.0657,0.0,-1.0369,0.0,0.0,0.0,0.0,0.0,0.0,0.0,0.0,-0.8615,-1.003,-1.1593,-1.2336,-1.2818,0.0,-1.3475,-1.3358,0.0,0.0,0.0,0.0,0.0,0.0,0.0,0.0,-0.3808,-0.2729,-0.3423,-0.4061,-0.438,-0.4878,-0.5585,-0.6466,-0.7565,-0.8934,-1.0563,-1.166,-1.2842,0.0,0.0,0.0,0.0,0.0,0.0,0.0,0.0,0.0,0.0,0.0,0.0,0.0,0.0,0.0,0.0,0.0,0.0,0.0,0.0,0.0,0.0,0.0,-1.0877,0.0,0.0,0.0,0.0,0.0,0.0,0.0,0.0,0.0,-0.2797,-0.2496,-0.2457,-0.2852,-0.3961,-0.4959,-0.542,0.0,0.0,0.0,0.0,0.0,0.0,0.0,-1.4665,-1.6092,-1.7039,-1.7961,-1.9241,-1.9281,-1.9003,-1.8427,0.0,0.0,-1.7693,-1.7369,-1.7016,-1.6478,-1.6101,-1.5449,-1.4166,-1.3807,-1.3423,0.0,0.0,0.0,0.0,0.0,0.0,0.0,0.0,-1.1206,-1.1147,0.0,-1.0799,0.0,0.0,0.0,0.0,0.0,-0.6364,0.0,0.0,-0.9605,-1.112,-1.2681,-1.3287,-1.3722,-1.3886,-1.37,-1.3636,-1.3859,-1.3801,0.0,0.0,0.0,0.0,0.0,0.0,-0.4664,-0.4298,-0.4585,-0.4803,-0.4768,-0.5572,-0.6388,-0.731,-0.8922,-0.9985,-1.0438,-1.1695,-1.2916,-1.4082,-1.4671,0.0,0.0,0.0,0.0,0.0,0.0,0.0,0.0,0.0,0.0,0.0,0.0,0.0,0.0,0.0,0.0,0.0,0.0,0.0,0.0,-1.0497,0.0,0.0,0.0,0.0,0.0,0.0,0.0,0.0,0.0,0.0,-0.4494,-0.3935,-0.4076,-0.5464,0.0,0.0,0.0,0.0,-0.8042,-0.8754,-0.9876,-1.0885,-1.1695,-1.2636,-1.3701,-1.5004,0.0,0.0,-1.8186,-1.8458,-1.8329,-1.8037,-1.793,-1.7969,-1.793,-1.7775,-1.7629,-1.7445,-1.7017,-1.6296,-1.4863,-1.4177,-1.3627,-0.6296,0.0,0.0,0.0,0.0,-1.0824,-1.1491,-1.1686,-1.168,-1.1686,-1.1617,-1.1536,0.0,0.0,0.0,0.0,0.0,0.0,-0.8743,-1.0153,-1.0621,-1.1757,-1.33,-1.3559,-1.3754,-1.4045,-1.4166,-1.4412,-1.4615,-1.4629,-1.3769,-1.1991,0.0,0.0,0.0,0.0,-0.61,-0.5576,-0.5817,-0.5921,-0.5867,-0.5957,-0.6645,-0.7943,-0.8485,-0.9525,-1.1045,-1.1733,-1.2771,-1.4318,-1.4504,0.0,0.0,0.0,0.0,0.0,0.0,0.0,0.0,0.0,0.0,0.0,0.0,0.0,0.0,0.0,0.0,0.0,0.0,0.0,-1.0183,-1.1062,-1.1414,0.0,0.0,0.0,0.0,0.0,0.0,0.0,0.0,0.0,-0.5746,-0.4719,-0.4287,0.0,0.0,-0.55,-0.6097,-0.6444,-0.7007,-0.8209,-0.8871,0.0,-1.1016,-1.1629,-1.226,-1.3143,-1.4049,-1.5111,-1.6184,-1.6387,-1.6543,-1.699,-1.71,-1.7035,-1.7119,-1.7288,-1.7312,-1.7013,-1.6388,-1.5561,-1.4469,-1.3715,-1.3251,-0.5576,-0.6341,-0.7757,-0.8636,-0.9267,-1.0335,-1.1101,-1.1683,-1.157,-1.1583,-1.1683,-1.157,-1.1354,-1.0966,-1.0185,0.0,0.0,0.0,-0.9417,-1.0801,-1.0881,-1.184,-1.3353,-1.3467,-1.3567,-1.3741,-1.3921,-1.4155,-1.4436,-1.4442,-1.3765,-1.24,0.0,0.0,-0.8854,-0.7542,-0.6652,-0.6254,-0.6342,-0.6346,-0.6261,-0.6712,-0.7345,-0.8117,-0.8887,-0.988,-1.1175,-1.153,-1.2563,-1.4465,-1.4647,-1.5587,0.0,0.0,0.0,0.0,0.0,0.0,0.0,0.0,0.0,0.0,0.0,-1.3016,-1.176,0.0,0.0,0.0,-0.8958,-0.9765,-1.0264,-1.1014,0.0,0.0,0.0,0.0,0.0,0.0,0.0,-0.772,-0.7465,-0.7058,-0.6282,-0.5378,-0.4978,-0.5224,-0.5419,-0.5682,-0.5855,0.0,-0.6496,-0.7285,-0.7748,-0.8524,-0.9999,-1.0502,-1.1002,-1.1929,-1.2873,-1.375,-1.4353,-1.4761,-1.533,-1.5991,-1.5991,-1.5817,-1.5984,-1.5972,-1.6002,-1.6158,-1.5555,-1.4663,-1.3487,-1.2885,-1.2436,-0.4703,-0.5672,-0.6611,-0.7725,-0.8883,-0.9656,-1.0522,-1.1334,-1.1149,-1.1176,-1.1396,-1.1142,-1.0949,-1.0712,-1.0141,0.0,-0.9122,-0.8843,-0.9359,-1.0504,-1.0432,-1.1366,-1.3008,-1.2969,-1.3068,-1.318,-1.3173,-1.3327,-1.3607,-1.3539,-1.3292,-1.2784,-1.1449,-1.0439,-0.9584,-0.7605,-0.6557,-0.656,-0.6402,-0.6318,-0.6314,-0.7616,-0.8206,-0.8007,-0.9594,-1.0631,-1.0989,-1.1276,-1.2438,-1.4517,-1.49,-1.6121,-1.8455,0.0,0.0,0.0,0.0,0.0,0.0,0.0,0.0,0.0,0.0,0.0,0.0,0.0,0.0,0.0,-0.9753,0.0,-0.9863,-1.06,0.0,0.0,0.0,-1.1002,-1.1132,-1.0466,-0.9603,-0.8494,0.0,0.0,-0.6182,-0.5901,-0.585,-0.6135,-0.5904,-0.5695,-0.5769,-0.5978,-0.6194,-0.6108,-0.6607,-0.7414,-0.8548,-0.9196,-0.9976,-1.1022,-1.2023,-1.2564,-1.2755,-1.3395,-1.4264,-1.497,-1.4603,-1.4234,-1.4595,-1.4003,-1.3731,-1.4809,-1.4495,-1.3595,-1.2305,-1.1835,-1.1411,-0.4316,-0.514,-0.5942,-0.7214,-0.8826,-1.0347,-1.1149,-1.1416,-1.1349,-1.1363,-1.1423,-1.1288,-1.1129,-1.0923,-1.0791,-1.0503,-1.0155,-0.9307,-0.9338,-1.0018,-0.9275,-0.978,-1.1359,-1.134,-1.1929,-1.2846,-1.2859,-1.3013,-1.3307,-1.3313,-1.3002,-1.2312,-1.0929,-0.9887,-0.9143,-0.7476,-0.6557,-0.6335,-0.6142,-0.6084,-0.6078,-0.6981,-0.7664,-0.8158,-0.9108,-1.0045,-1.0982,-1.1269,-1.2438,-1.4533,-1.5022,-1.6088,-1.8015,-1.7638,0.0,0.0,0.0,0.0,0.0,0.0,0.0,0.0,0.0,-1.1903,-1.058,0.0,-0.9314,0.0,-0.9262,-1.0161,-1.0642,-1.0896,0.0,0.0,-1.0766,-1.0631,-1.0503,-1.0469,-0.9844,-0.8266,-0.7941,-0.7338,-0.5858,-0.5428,-0.5318,-0.5393,-0.5403,-0.5396,-0.5318,-0.522,-0.5222,-0.5287,-0.5888,-0.6489,-0.6931,-0.8021,-0.912,-0.9959,-1.0349,-1.0689,-1.1271,-1.1552,-1.1956,-1.2721,-1.2787,-1.2696,-1.2768,-1.2076,-1.1716,-1.1913,-1.1974,-1.1881,-1.129,-1.0704,-1.0303,-0.3686,-0.4485,-0.5631,-0.6657,-0.7639,-0.9338,-1.0315,-1.0655,-1.0648,-1.0655,-1.0648,-1.0648,-1.0561,-1.0414,-1.0089,-1.0004,-1.0099,-0.889,-0.873,-0.9432,-0.8732,-0.916,-1.0609,-1.076,-1.1396,-1.2545,-1.262,-1.2572,-1.2612,-1.2619,-1.2324,-1.1611,-1.0067,-0.8959,-0.8359,-0.7161,-0.6415,-0.6207,-0.6115,-0.603,-0.6023,-0.7097,-0.7706,-0.7883,-0.8971,-0.9869,-1.0474,-1.0823,-1.1888,-1.3792,-1.4342,-1.5525,-1.7332,-1.6709,-1.6259,0.0,0.0,0.0,0.0,0.0,0.0,0.0,0.0,0.0,0.0,0.0,-0.9608,-0.8827,-0.9708,-1.0367,-1.0627,-1.0737,-1.0788,-1.0755,-1.0755,-1.0802,-1.0797,-1.0466,-0.9687,-0.8322,-0.7678,-0.6792,-0.5571,-0.5191,-0.4947,-0.4948,-0.5009,-0.5057,-0.504,-0.4965,-0.4897,-0.4833,-0.5225,-0.5809,-0.6452,-0.7709,-0.8844,-0.9512,-0.9694,-0.989,-1.0315,-1.04,-1.0647,-1.1343,-1.1254,-1.1141,-1.1479,-1.0914,-1.0321,-1.022,-1.0265,-1.0315,-1.0185,-0.9784,-0.9629,-0.2976,-0.3884,-0.5434,-0.6147,-0.6206,-0.7618,-0.8661,-0.9447,-0.9505,-0.9621,-0.9686,-0.9628,-0.9563,-0.9505,-0.8903,-0.8961,-0.944,-0.81,-0.7963,-0.8859,-0.8231,-0.8668,-1.0054,-1.0205,-1.0809,-1.1781,-1.1926,-1.1801,-1.1556,-1.1697,-1.1423,-1.0771,-0.9207,-0.8122,-0.7618,-0.663,-0.612,-0.5937,-0.5961,-0.5973,-0.5969,-0.7451,-0.8006,-0.7577,-0.8974,-0.9765,-0.9832,-1.0285,-1.1234,-1.2696,-1.3348,-1.456,-1.6268,-1.5482,-1.4984,0.0,-1.4024,0.0,0.0,0.0,0.0,0.0,0.0,0.0,0.0,-0.9959,-0.9962,-0.9558,-1.0367,-1.075,-1.0338,-1.0471,-1.0661,-1.0902,-1.0935,-1.1022,-1.1149,-1.0286,-0.9262,-0.8363,-0.7122,-0.6041,-0.522,-0.4979,-0.4836,-0.4731,-0.4694,-0.4731,-0.4826,-0.4847,-0.4792,-0.4677,-0.4663,-0.5232,-0.6487,-0.7542,-0.8357,-0.9157,-0.9343,-0.9447,-0.9559,-0.9595,-0.9827,-1.0389,-1.008,-0.9874,-1.0504,-1.0045,-0.9489,-0.9284,-0.9223,-0.9218,-0.9207,-0.9207,-0.9092,-0.273,-0.3578,-0.5031,-0.5643,-0.5703,-0.6538,-0.7311,-0.7957,-0.8545,-0.9143,-0.9621,-0.9084,-0.8792,-0.8786,-0.8669,-0.8669,-0.8715,-0.7695,-0.7578,-0.8269,-0.6406,-0.6471,-0.7947,-0.7741,-0.8143,-0.9147,-0.9748,-0.9993,-0.9943,-1.0542,-1.0507,-0.9861,-0.8834,-0.7933,-0.7135,0.0,0.0,0.0,-0.5532,-0.5737,-0.5867,-0.673,-0.7325,-0.7562,-0.8371,0.0,-0.9414,-0.992,-1.0763,-1.185,-1.2428,0.0,0.0,0.0,0.0,0.0,0.0,0.0,0.0,0.0,0.0,0.0,-0.9861,-0.9917,-0.9525,-0.9712,-0.9831,-0.9816,-1.0216,-1.0332,-1.0172,-1.0421,-1.0588,-1.0698,-1.0641,-1.0575,-1.0332,-0.9575,-0.8701,-0.7614,-0.674,-0.5917,-0.5067,-0.4826,-0.4724,-0.468,-0.4582,-0.4577,-0.4551,-0.4622,-0.4597,-0.4507,-0.4518,-0.4838,-0.5652,-0.6023,-0.6739,-0.7646,-0.81,-0.8354,-0.8843,-0.8978,-0.8991,-0.9253,-0.9079,-0.8991,-0.9193,-0.9079,-0.9011,-0.8857,-0.8891,-0.8891,-0.8884,-0.8904,-0.8871,-0.2454,0.0,-0.4395,-0.5003,0.0,-0.5391,-0.5716,-0.6116,-0.7542,-0.8341,-0.8683,-0.8341,-0.7942,-0.7599,-0.7254,-0.7254,-0.7542,-0.6351,-0.6193,-0.6759,-0.5518,-0.5634,-0.6957,-0.6935,-0.7442,-0.8415,-0.9128,-0.9316,-0.9076,-0.9438,-0.9477,-0.9194,-0.8022,-0.726,-0.6749,-0.555,-0.5016,-0.5065,-0.5281,-0.5362,-0.5484,-0.6254,-0.6628,-0.6625,-0.7661,0.0,0.0,0.0,0.0,0.0,0.0,0.0,0.0,0.0,0.0,-1.1296,-1.0883,-1.0405,-0.9829,-0.9666,-0.9458,-0.9166,-0.9336,-0.9478,-0.9543,-0.9654,-0.9765,-0.9807,-0.9926,-0.9946,-0.9927,-1.004,-1.0188,-1.0127,-0.981,-0.957,-0.9257,-0.8286,-0.7385,-0.6823,-0.596,-0.527,-0.4862,-0.4674,-0.4585,-0.4575,-0.4573,-0.4463,-0.4463,-0.4463,-0.4463,-0.4463,-0.4463,-0.4732,-0.5324,-0.5483,-0.5973,-0.7283,-0.77,-0.8019,-0.8692,-0.8804,-0.8804,-0.8804,-0.8804,-0.8804,-0.8804,-0.8804,-0.8804,-0.8804,-0.8804,-0.8804,-0.8804,-0.8804,-0.8804,-0.2007,-0.2174,-0.3622,-0.4294,-0.4294,-0.446,-0.457,-0.4787,0.0,0.0,0.0,-0.7396,-0.6961,-0.6367,-0.576,-0.5814,-0.6312,-0.5222,-0.5058,-0.5664,-0.5064,-0.5307,-0.6202,-0.6382,-0.6908,-0.7729,-0.8482,-0.852,-0.8068,-0.8178,-0.8315,-0.83,-0.7069,-0.6367,-0.615,-0.5062,-0.4643,-0.4992,-0.504,-0.504,-0.5078,-0.5751,-0.592,-0.5571,-0.6753,-0.7472,-0.7628,-0.8539,-0.9272,-0.979,-1.0208,-1.049,-1.0531,-1.0389,-1.024,-1.0124,-0.982,-0.9458,-0.9159,-0.9106,-0.9061,-0.8811,-0.9025,-0.9256,-0.9653,-0.9686,-0.9666,-0.9613,-0.9653,-0.9666,-0.9613,-0.9659,-0.9628,-0.9505,-0.8968,-0.8539,-0.8311,-0.7057,-0.621,-0.5994,-0.5289,-0.465,-0.4646,-0.4545,-0.4463,-0.4519,-0.4522,-0.4463,-0.4463,-0.4463,-0.4463,-0.4463,-0.4463,-0.468,-0.5164,-0.5269,-0.5869,-0.6956,-0.7357,-0.7782,-0.8408,-0.8699,-0.8804,-0.8804,-0.8804,-0.8804,-0.8804,-0.8804,-0.8804,-0.8804,-0.8764,-0.8731,-0.8717,-0.8697,-0.8659,-0.1228,-0.1396,-0.2841,-0.3456,-0.3511,-0.4239,-0.4842,-0.5382,-0.5701,-0.6199,-0.6696,-0.6086,-0.5756,-0.5655,-0.5542,-0.5542,-0.5647,-0.5437,-0.5764,-0.6372,-0.5167,-0.4912,-0.5567,-0.5069,-0.4925,-0.5091,-0.5754,-0.6003,-0.6009,-0.6569,-0.6916,-0.681,-0.6091,-0.5382,-0.4846,-0.4625,-0.4549,-0.4558,-0.4684,-0.4749,-0.4738,-0.49,-0.5102,-0.5432,-0.5597,-0.5908,-0.646,-0.7399,-0.8009,-0.8255,-0.8978,-0.9358,-0.9298,-0.9277,-0.9143,-0.9024,-0.8983,-0.891,-0.8857,-0.8857,-0.8864,-0.8804,-0.8851,-0.9098,-0.9626,-0.9686,-0.9579,-0.9289,-0.9512,-0.9573,-0.9359,-0.9462,-0.9343,-0.8826,-0.8663,-0.8288,-0.7385,-0.6549,-0.5861,-0.5613,-0.4949,-0.4501,-0.456,-0.4532,-0.4463,-0.4463,-0.4463,-0.4457,-0.4436,-0.4463,-0.4463,-0.4463,-0.4463,-0.457,-0.4659,-0.4618,-0.5039,-0.5651,-0.6392,-0.6972,-0.77,-0.8298,-0.8626,-0.8732,-0.8692,-0.8758,-0.8764,-0.8804,-0.8705,-0.8672,-0.8532,-0.8424,-0.8357,-0.8117,-0.8138,-0.1105,-0.125,-0.2279,-0.2683,-0.2748,-0.3551,-0.427,-0.4948,-0.4948,-0.5328,-0.5928,-0.5647,-0.5269,-0.4948,-0.4948,-0.4948,-0.4952,-0.4948,-0.5171,-0.5391,-0.4794,-0.4677,-0.4886,-0.4541,-0.4348,-0.4398,-0.5083,-0.5398,-0.5456,-0.5815,-0.6199,-0.6534,-0.5869,-0.5324,-0.5058,-0.468,-0.4463,-0.4463,-0.4457,-0.4379,-0.4337,-0.433,-0.4431,-0.4636,-0.5056,-0.547,-0.581,-0.6637,-0.7128,-0.7176,-0.7943,-0.8381,-0.8328,-0.8659,-0.8871,-0.8804,-0.8804,-0.8804,-0.8804,-0.8804,-0.8804,-0.8804,-0.8804,-0.8744,-0.862,-0.8984,-0.9152,-0.8964,-0.8802,-0.8533,-0.8408,-0.8171,-0.7852,-0.7566,-0.7161,-0.6722,-0.6253,-0.5617,-0.5143,-0.4963,-0.4677,-0.4519,-0.4463,-0.4463,-0.4463,-0.4463,-0.446,-0.4406,-0.4256,-0.4323,-0.4395,-0.4429,-0.4399,-0.4351,-0.4345,-0.4348,-0.463,-0.5164,-0.5597,-0.6134,-0.6781,-0.7458,-0.7823,-0.7917,-0.808,-0.828,-0.8337,-0.8323,-0.823,-0.791,-0.8095,-0.7915,-0.7425,-0.706,-0.7296,-0.0867,-0.0944,-0.1623,-0.2065,-0.227,-0.2794,-0.3403,-0.3977,-0.3977,-0.426,-0.4718,-0.4914,-0.4835,-0.4515,-0.4294,-0.4349,-0.446,-0.4463,-0.4519,-0.4463,-0.4463,-0.4446,-0.4406,-0.4244,-0.4177,-0.4199,-0.4757,-0.5031,-0.5084,-0.5152,-0.5508,-0.5982,-0.5546,-0.5273,-0.5273,-0.4787,-0.4463,-0.445,-0.4287,-0.4086,-0.4026,-0.4053,-0.4009,-0.4029,-0.4671,-0.51,-0.5316,-0.5982,-0.6367,-0.6367,-0.7074,-0.7456,-0.7467,-0.8002,-0.8315,-0.8321,-0.8321,-0.8315,-0.8321,-0.8315,-0.8321,-0.8315,-0.8315,-0.8049,-0.7563,-0.7943,-0.8321,-0.8268,-0.7794,-0.7467,-0.7413,-0.6977,-0.6534,-0.6367,-0.5869,-0.5504,-0.5273,-0.4787,-0.4463,-0.4463,-0.4463,-0.4463,-0.4463,-0.4463,-0.4446,-0.4412,-0.4389,-0.426,-0.4077,-0.4087,-0.4199,-0.4287,-0.4267,-0.415,-0.4143,-0.4143,-0.4353,-0.4816,-0.5115,-0.5494,-0.5997,-0.6573,-0.7062,-0.7236,-0.7567,-0.7887,-0.7895,-0.7949,-0.7771,-0.7538,-0.7665,-0.7474,-0.6548,-0.6133,-0.6314,-0.0105,-0.0203,-0.0912,-0.1617,-0.2163,-0.2272,-0.2385,-0.2446,-0.2442,-0.2431,-0.266,-0.3185,-0.3892,-0.4349,-0.3732,-0.3788,-0.4398,-0.446,-0.446,-0.4401,-0.4463,-0.4395,-0.4174,-0.4197,-0.4123,-0.4006,-0.4089,-0.4202,-0.4268,-0.4309,-0.4442,-0.4666,-0.4625,-0.4567,-0.457,-0.4519,-0.446,-0.4512,-0.4182,-0.4036,-0.3979,-0.4103,-0.4107,-0.4022,-0.422,-0.4364,-0.4618,-0.5273,-0.5597,-0.5651,-0.6312,-0.6696,-0.6696,-0.6804,-0.6804,-0.6858,-0.6804,-0.6804,-0.6804,-0.6804,-0.6858,-0.6804,-0.6864,-0.6853,-0.6696,-0.675,-0.6804,-0.6799,-0.6745,-0.6696,-0.6696,-0.6588,-0.6204,-0.571,-0.5487,-0.5269,-0.4732,-0.4574,-0.4463,-0.4463,-0.4463,-0.4463,-0.4463,-0.4505,-0.4395,-0.4148,-0.4068,-0.3922,-0.3791,-0.3801,-0.3866,-0.4003,-0.3989,-0.3986,-0.3986,-0.4039,-0.4065,-0.42,-0.4656,-0.5033,-0.5339,-0.6107,-0.708,-0.6654,-0.7323,-0.7594,-0.7714,-0.7875,-0.7741,-0.7201,-0.717,-0.7141,-0.6357,-0.5699,-0.5644,0.0555,0.0488,-0.0195,-0.0878,-0.151,-0.1559,-0.1776,-0.2164,-0.2216,-0.2183,-0.2161,-0.2038,-0.2418,-0.3121,-0.2788,-0.2868,-0.3143,-0.3147,-0.314,-0.3145,-0.3144,-0.3123,-0.3023,-0.2956,-0.3024,-0.3308,-0.3351,-0.3377,-0.3348,-0.3164,-0.3074,-0.3111,-0.3121,-0.3121,-0.3123,-0.3121,-0.3123,-0.3118,-0.3028,-0.2926,-0.2921,-0.359,-0.3986,-0.4151,-0.4167,-0.4317,-0.4501,-0.4787,-0.4893,-0.4948,-0.5601,-0.5937,-0.5964,-0.6386,-0.6588,-0.6598,-0.6593,-0.6588,-0.6588,-0.6588,-0.6588,-0.6588,-0.6588,-0.6421,-0.5982,-0.5923,-0.5819,-0.5496,-0.5714,-0.5923,-0.5928,-0.5605,-0.5222,-0.4948,-0.4897,-0.4787,-0.4515,-0.4463,-0.4463,-0.4463,-0.4463,-0.446,-0.445,-0.4385,-0.4079,-0.3651,-0.3433,-0.3314,-0.2855,-0.2773,-0.2928,-0.3114,-0.2954,-0.3128,-0.3665,-0.3883,-0.3853,-0.3846,-0.4062,-0.4292,-0.4435,-0.485,-0.5475,-0.5535,-0.6112,-0.6435,-0.6281,-0.6349,-0.6304,-0.6113,-0.551,-0.511,-0.5135,-0.4624,-0.4406,0.1164,0.108,0.0656,0.0094,-0.0515,-0.0561,-0.0951,-0.1559,-0.1611,-0.162,-0.1536,-0.1043,-0.1079,-0.1566,-0.1791,-0.1987,-0.2181,-0.2174,-0.2172,-0.2181,-0.2175,-0.215,-0.2111,-0.2057,-0.2182,-0.2534,-0.2611,-0.2628,-0.2628,-0.2403,-0.22,-0.2196,-0.222,-0.2176,-0.2173,-0.2213,-0.2211,-0.222,-0.2193,-0.2123,-0.219,-0.2879,-0.3404,-0.36,-0.3623,-0.3755,-0.384,-0.3846,-0.3901,-0.3901,-0.4553,-0.4893,-0.4974,-0.5571,-0.5914,-0.5927,-0.6023,-0.6046,-0.6041,-0.6046,-0.6046,-0.6046,-0.6046,-0.5823,-0.5382,-0.5218,-0.5003,-0.468,-0.4948,-0.5218,-0.5164,-0.4787,-0.4515,-0.4463,-0.4463,-0.4463,-0.4463,-0.4463,-0.4463,-0.4463,-0.4249,-0.4053,-0.3899,-0.3626,-0.3271,-0.2805,-0.2697,-0.2594,-0.2003,-0.1927,-0.2125,-0.2375,-0.2099,-0.2395,-0.3431,-0.3543,-0.3485,-0.3646,-0.3729,-0.3788,-0.3687,-0.41,-0.4434,-0.4981,-0.5072,-0.5318,-0.5613,-0.544,-0.5173,-0.4682,-0.4227,-0.394,-0.4354,-0.378,-0.3426,0.1765,0.1751,0.17,0.1348,0.0808,0.0764,0.0451,-0.0091,-0.0091,-0.0092,-0.0095,-0.0048,-0.0049,-0.0152,-0.0759,-0.1493,-0.2107,-0.2065,-0.2063,-0.2053,-0.2118,-0.2099,-0.2011,-0.2,-0.1914,-0.1849,-0.1846,-0.1925,-0.2047,-0.209,-0.217,-0.2126,-0.208,-0.2117,-0.2052,-0.2057,-0.2162,-0.2044,-0.1943,-0.1998,-0.2102,-0.2056,-0.2077,-0.2097,-0.2261,-0.2389,-0.2397,-0.2341,-0.2343,-0.2341,-0.3113,-0.3506,-0.3555,-0.406,-0.4369,-0.433,-0.4494,-0.4625,-0.4567,-0.4567,-0.4567,-0.457,-0.4567,-0.4567,-0.4453,-0.4401,-0.4401,-0.446,-0.4346,-0.4457,-0.4457,-0.4405,-0.4349,-0.4294,-0.4405,-0.4349,-0.4391,-0.4265,-0.4457,-0.4306,-0.3776,-0.3203,-0.2492,-0.22,-0.2213,-0.2025,-0.1932,-0.1798,-0.1663,-0.1706,-0.1751,-0.1791,-0.183,-0.219,-0.323,-0.3116,-0.306,-0.3182,-0.3239,-0.3468,-0.3759,-0.3965,-0.4168,-0.4409,-0.4667,-0.4924,-0.5191,-0.5201,-0.4995,-0.4645,-0.424,-0.4066,-0.3901,-0.3496,-0.3183,0.217,0.183,0.223,0.2051,0.1518,0.1474,0.1341,0.1163,0.1162,0.1126,0.1141,0.1144,0.1152,0.112,0.0887,0.0191,-0.0744,-0.0813,-0.0813,-0.0798,-0.0812,-0.075,-0.0718,-0.0714,-0.0932,-0.1213,-0.1208,-0.1234,-0.1234,-0.0981,-0.0803,-0.0772,-0.0798,-0.0812,-0.0813,-0.0765,-0.0774,-0.0778,-0.0747,-0.0734,-0.0795,-0.0744,-0.074,-0.0785,-0.1688,-0.2176,-0.2176,-0.2176,-0.2176,-0.2174,-0.246,-0.2642,-0.2694,-0.3255,-0.3392,-0.3028,-0.3447,-0.3511,-0.3121,-0.3007,-0.301,-0.3012,-0.3065,-0.3063,-0.301,-0.301,-0.301,-0.3065,-0.3065,-0.301,-0.3121,-0.3456,-0.3566,-0.3121,-0.3065,-0.308,-0.3011,-0.3055,-0.3038,-0.3,-0.2757,-0.2427,-0.2104,-0.2012,-0.1834,-0.1378,-0.1263,-0.1075,0.0,0.0,-0.0807,-0.1029,-0.094,-0.1074,-0.2277,-0.2277,-0.223,-0.2322,-0.2415,-0.2415,-0.2586,-0.2965,-0.3196,-0.3354,-0.379,-0.3957,-0.4015,-0.4008,-0.3979,-0.3836,-0.3493,-0.3478,-0.3436,-0.3071,-0.2941,0.3328,0.302,0.3375,0.3196,0.2664,0.2664,0.2532,0.2355,0.2352,0.2355,0.2355,0.2355,0.2266,0.2093,0.2091,0.1584,0.0656,0.0584,0.0586,0.0574,0.0586,0.0582,0.0563,0.0608,0.0276,-0.0225,-0.0313,-0.0227,0.0,0.0378,0.0483,0.0297,0.0312,0.0213,0.0,0.0,0.0111,0.0277,0.0379,0.0478,0.0638,0.0698,0.0698,0.0588,-0.0274,-0.1059,-0.1452,-0.1507,-0.1509,-0.1501,-0.1729,-0.1939,-0.2159,-0.2667,-0.2722,-0.2271,-0.262,-0.2726,-0.2327,-0.2216,-0.2223,-0.2193,-0.2194,-0.2203,-0.2169,-0.2176,-0.2176,-0.2176,-0.2176,-0.2176,-0.2009,-0.2343,-0.251,-0.2227,-0.221,-0.2221,-0.2198,-0.2239,-0.2137,-0.1968,-0.1865,-0.1697,-0.1459,-0.1353,-0.1105,-0.0629,-0.0627,-0.0403,0.0,0.0,-0.009,-0.0448,-0.009,-0.0269,-0.0849,-0.0937,-0.1471,-0.1649,-0.1875,-0.1739,-0.1723,-0.2068,-0.2251,-0.2399,-0.2537,-0.2707,-0.2768,-0.273,-0.2711,-0.2655,-0.2588,-0.2575,-0.2611,-0.2681,-0.2682,0.5303,0.5211,0.5298,0.4894,0.4362,0.4322,0.4054,0.3614,0.3571,0.3655,0.3738,0.3567,0.3356,0.2923,0.2926,0.2448,0.2074,0.2005,0.1846,0.1652,0.1658,0.1675,0.1618,0.1617,0.1349,0.085,0.0851,0.1163,0.1528,0.1578,0.1374,0.1014,0.0923,0.0741,0.0,0.0,0.0489,0.0939,0.1083,0.1436,0.2073,0.2078,0.2027,0.2035,0.1974,0.1339,0.0056,0.0,0.0,-0.0112,-0.0649,-0.1334,-0.1762,-0.208,-0.2099,-0.191,-0.2092,-0.218,-0.2085,-0.2031,-0.1963,-0.1958,-0.2071,-0.1943,-0.1886,-0.1953,-0.1953,-0.1953,-0.184,-0.1729,-0.1117,-0.1061,-0.1337,-0.2,-0.1952,-0.1908,-0.2028,-0.2088,-0.1883,-0.1197,-0.0997,-0.0749,-0.0228,0.0,0.0045,0.009,0.0134,0.0134,0.0269,0.0,0.0,0.018,0.0538,0.0581,0.0492,0.0358,-0.0446,-0.1112,-0.1337,-0.1428,-0.1363,-0.1551,-0.168,-0.1806,-0.1998,-0.2133,-0.2083,-0.2057,-0.2069,-0.2039,-0.1867,-0.1969,-0.2266,-0.2481,-0.2472,0.6397,0.6397,0.6397,0.6108,0.5604,0.5562,0.5428,0.529,0.529,0.5492,0.5736,0.5455,0.5204,0.4957,0.4674,0.4378,0.4208,0.4176,0.3392,0.2094,0.1867,0.1856,0.1878,0.1828,0.1697,0.1563,0.1518,0.1607,0.1792,0.1858,0.1706,0.1672,0.1649,0.1606,0.1537,0.1519,0.1659,0.1835,0.1877,0.1977,0.2249,0.2705,0.276,0.2311,0.2654,0.25,0.1619,0.1507,0.1285,0.0783,0.0541,0.0103,-0.0535,-0.1167,-0.1169,-0.077,-0.1146,-0.1175,-0.0757,-0.0655,-0.0714,-0.0684,-0.069,-0.0702,-0.0667,-0.0671,-0.0671,-0.0615,-0.0223,0.0223,0.0335,0.0391,0.0055,-0.0595,-0.0695,-0.0728,-0.0698,-0.0719,-0.0372,0.0137,0.0274,0.0543,0.1033,0.1206,0.1117,0.1117,0.1163,0.1162,0.1206,0.1118,0.1252,0.1297,0.1474,0.1517,0.1383,0.1375,0.1099,0.0306,-0.0175,-0.0608,-0.0688,-0.0765,-0.0914,-0.1088,-0.129,-0.1359,-0.1337,-0.1315,-0.1253,-0.1457,-0.146,-0.1775,-0.2286,-0.2308,-0.2111,0.7717,0.7602,0.7931,0.7817,0.7389,0.7491,0.7491,0.7348,0.7355,0.7437,0.7445,0.7009,0.6632,0.6343,0.5856,0.5524,0.5351,0.5308,0.4591,0.3382,0.312,0.3108,0.3061,0.2841,0.2752,0.2721,0.2623,0.2552,0.2556,0.2868,0.297,0.2861,0.3108,0.3144,0.3009,0.2782,0.2777,0.3272,0.3164,0.3277,0.3828,0.4262,0.4313,0.399,0.4313,0.4258,0.3828,0.3608,0.2837,0.1774,0.1512,0.1226,0.0709,0.0286,0.024,0.0471,0.0289,0.0196,0.0629,0.0672,0.0692,0.0721,0.0729,0.08,0.0828,0.0783,0.0783,0.0895,0.1174,0.1507,0.1506,0.1434,0.1189,0.0837,0.0469,0.0456,0.0573,0.0687,0.0809,0.112,0.1208,0.1429,0.1695,0.1784,0.1784,0.1784,0.1784,0.1784,0.1784,0.1784,0.1828,0.2006,0.2268,0.2268,0.218,0.2334,0.2567,0.1894,0.1197,0.0714,0.0413,0.0286,0.016,0.0115,-0.0037,0.0,0.0,-0.0068,-0.0102,-0.0502,-0.0837,-0.087,-0.1037,-0.1442,-0.141,0.9235,0.9022,0.9828,0.9848,0.9467,0.9771,0.9694,0.9437,0.9327,0.9107,0.878,0.8218,0.7716,0.7161,0.6755,0.6252,0.5604,0.5647,0.5886,0.5763,0.5562,0.5358,0.5002,0.4604,0.447,0.4523,0.4142,0.4015,0.4163,0.467,0.4894,0.4412,0.4833,0.5035,0.4509,0.3866,0.4249,0.5124,0.4805,0.5144,0.6253,0.6529,0.647,0.6367,0.6411,0.6416,0.6086,0.5592,0.4436,0.2662,0.2424,0.2278,0.2014,0.2028,0.1877,0.1851,0.1854,0.1758,0.1806,0.1688,0.1737,0.1902,0.1884,0.2075,0.2091,0.2006,0.2062,0.2282,0.2395,0.245,0.2493,0.2439,0.2306,0.2074,0.1447,0.1253,0.1676,0.1698,0.1697,0.1784,0.1828,0.1917,0.2051,0.2095,0.2182,0.2182,0.2268,0.2446,0.2446,0.2622,0.2182,0.2534,0.3278,0.3365,0.3409,0.3581,0.3734,0.319,0.2511,0.199,0.1337,0.1081,0.1062,0.105,0.109,0.1192,0.1104,0.0835,0.0702,0.0435,0.0335,0.0403,0.0067,-0.0469,-0.0703,1.0723,1.0998,1.126,1.1004,1.0568,1.0661,1.0623,1.0444,1.0118,1.0176,1.0118,0.946,0.8958,0.878,0.8259,0.7923,0.7663,0.737,0.7674,0.8179,0.7859,0.6961,0.6132,0.5872,0.5986,0.6307,0.5898,0.5859,0.6223,0.609,0.5962,0.5848,0.611,0.6167,0.5935,0.5878,0.591,0.6244,0.619,0.619,0.6686,0.7235,0.7128,0.6696,0.7176,0.7122,0.6696,0.6426,0.5588,0.4033,0.385,0.3694,0.339,0.308,0.2965,0.2976,0.2377,0.2256,0.2773,0.2422,0.2241,0.2535,0.2602,0.2428,0.292,0.2502,0.2775,0.3427,0.3814,0.4039,0.445,0.4386,0.4111,0.3675,0.2602,0.1838,0.1887,0.1828,0.1962,0.2361,0.2495,0.2719,0.3075,0.3378,0.3635,0.3719,0.3894,0.42,0.4022,0.4065,0.3934,0.4243,0.4769,0.473,0.4774,0.4908,0.4824,0.4354,0.3789,0.3261,0.2403,0.158,0.1612,0.1657,0.1707,0.1807,0.1503,0.1203,0.1173,0.1406,0.1238,0.117,0.0569,0.0033,0.0133,1.2492,1.2378,1.2911,1.2622,1.1903,1.2058,1.1938,1.1597,1.1313,1.1062,1.0857,1.0167,0.9799,0.9713,0.945,0.9265,0.919,0.9147,0.9363,0.9649,0.9814,0.9059,0.8071,0.7762,0.7842,0.7936,0.7682,0.7576,0.7685,0.7634,0.7709,0.7878,0.812,0.8262,0.8377,0.8047,0.8047,0.8258,0.81,0.8047,0.8364,0.8495,0.8593,0.8324,0.86,0.8343,0.7994,0.8205,0.7412,0.5788,0.5303,0.5186,0.4935,0.4534,0.4346,0.4406,0.3667,0.3656,0.4126,0.3859,0.386,0.4232,0.4093,0.44,0.4854,0.447,0.4583,0.5595,0.5508,0.5575,0.5748,0.5657,0.5394,0.5033,0.4188,0.349,0.3331,0.3375,0.346,0.3679,0.3814,0.3862,0.4268,0.4613,0.486,0.5024,0.5029,0.5288,0.5411,0.5631,0.5717,0.5802,0.6137,0.621,0.6247,0.6354,0.6266,0.5795,0.4972,0.4459,0.3691,0.267,0.266,0.2725,0.2527,0.2362,0.2227,0.2197,0.2405,0.2471,0.22,0.1991,0.1621,0.129,0.1286,1.4214,1.3362,1.4505,1.4345,1.3432,1.3775,1.3411,1.2805,1.2543,1.2141,1.1502,1.0758,1.0656,1.0438,1.0743,1.0483,1.0392,1.0776,1.0858,1.1102,1.1458,1.1393,1.0602,1.017,1.0052,0.9867,0.9707,0.9432,0.9347,0.9695,0.9738,0.9694,1.025,1.0645,1.0238,0.9951,1.0163,1.0281,0.9857,0.9805,1.0136,0.9997,0.9946,1.0195,0.9894,0.9784,0.9857,1.0156,0.9634,0.7104,0.6998,0.6978,0.671,0.6438,0.6307,0.6083,0.5798,0.5655,0.6027,0.6113,0.6139,0.6479,0.6595,0.6965,0.7278,0.6951,0.6945,0.7852,0.7309,0.7105,0.7067,0.6723,0.6548,0.6478,0.6307,0.6101,0.5776,0.5561,0.5465,0.5465,0.5465,0.5465,0.5465,0.5551,0.576,0.6241,0.6343,0.6603,0.6723,0.6813,0.6765,0.6716,0.7176,0.7762,0.7795,0.7864,0.7654,0.7285,0.6278,0.5605,0.5105,0.439,0.4199,0.4038,0.3819,0.3653,0.3529,0.3575,0.3719,0.3667,0.3486,0.3464,0.3409,0.3078,0.2942,1.4877,1.4978,1.499,1.4838,1.4599,1.4527,1.4424,1.4178,1.3435,1.3319,1.3186,1.248,1.2327,1.2641,1.2661,1.2706,1.2573,1.2489,1.2335,1.2754,1.3609,1.3921,1.339,1.2689,1.2336,1.2355,1.213,1.1909,1.178,1.1358,1.1065,1.0797,1.104,1.0864,1.0906,1.099,1.0594,1.0754,1.0695,1.0746,1.0906,1.0813,1.0762,1.0956,1.0805,1.0653,1.0687,1.1173,1.1163,1.0623,1.012,0.9627,0.8962,0.8518,0.8366,0.8216,0.7639,0.765,0.8534,0.828,0.809,0.8504,0.8514,0.8475,0.9078,0.8662,0.894,0.9665,0.9482,0.8996,0.8955,0.8971,0.8603,0.8298,0.8116,0.81,0.7845,0.7134,0.6642,0.66,0.66,0.6594,0.6594,0.703,0.7245,0.7452,0.7672,0.7982,0.8064,0.8098,0.8074,0.8051,0.8472,0.9041,0.902,0.8973,0.8667,0.8385,0.7544,0.6907,0.6381,0.5929,0.5631,0.5335,0.5054,0.4922,0.4809,0.4859,0.496,0.4871,0.48,0.4872,0.4853,0.4653,0.464,1.6175,1.6092,1.5902,1.5815,1.5708,1.5478,1.5428,1.5437,1.5036,1.48,1.4727,1.4237,1.4203,1.4466,1.4743,1.4841,1.4719,1.4511,1.4313,1.4547,1.5289,1.5704,1.5564,1.5037,1.4789,1.431,1.3825,1.3705,1.3575,1.328,1.2984,1.2657,1.2561,1.2802,1.2609,1.2561,1.2522,1.2337,1.219,1.2199,1.219,1.1895,1.1935,1.2211,1.2464,1.2609,1.2706,1.2936,1.3127,1.3052,1.2783,1.1986,1.0947,1.0532,1.0436,1.0153,0.9656,0.955,1.0128,1.0134,0.9947,1.0385,1.0458,1.0963,1.1105,1.0731,1.0789,1.1527,1.1303,1.0655,1.0821,1.0579,1.0301,1.0211,0.9855,0.9857,0.9801,0.8726,0.7855,0.7929,0.7903,0.8117,0.8311,0.8528,0.8887,0.9164,0.8941,0.9213,0.9624,0.9663,0.9711,0.9779,1.0041,1.0272,1.0233,1.0056,0.963,0.9274,0.8714,0.8239,0.7853,0.7396,0.6978,0.6653,0.6323,0.6209,0.6125,0.6157,0.6182,0.6114,0.6106,0.6239,0.6336,0.6277,0.6288,1.7496,1.7018,1.703,1.6968,1.6863,1.6673,1.6746,1.6913,1.6831,1.657,1.6232,1.6141,1.616,1.6257,1.6763,1.6903,1.6767,1.6625,1.6379,1.6275,1.6783,1.6944,1.6789,1.6789,1.6524,1.5309,1.5039,1.496,1.4824,1.4778,1.4446,1.4595,1.4606,1.4261,1.4503,1.4606,1.4168,1.3758,1.37,1.3758,1.3711,1.3311,1.3375,1.3871,1.4426,1.4722,1.471,1.4891,1.4982,1.4857,1.4915,1.3936,1.2772,1.2323,1.2226,1.1727,1.1421,1.1644,1.1916,1.1911,1.194,1.2183,1.2599,1.3125,1.3287,1.2859,1.2801,1.2944,1.2867,1.2282,1.2433,1.2001,1.1787,1.1671,1.1344,1.1335,1.1354,1.0214,0.9711,0.9612,0.9594,0.9692,0.9877,1.0041,1.0482,1.0747,1.0517,1.0497,1.0914,1.1121,1.1084,1.1137,1.1333,1.1505,1.1483,1.1302,1.0863,1.0596,1.0049,0.9706,0.939,0.9062,0.8607,0.7903,0.7569,0.7473,0.7472,0.7577,0.7531,0.7405,0.7558,0.781,0.7907,0.7921,0.7924,1.7866,1.7988,1.8103,1.8114,1.8162,1.85,1.8665,1.8675,1.8395,1.8262,1.8266,1.8153,1.8135,1.8315,1.8702,1.8885,1.8708,1.8451,1.8226,1.8007,1.8154,1.7946,1.792,1.7854,1.772,1.7395,1.6701,1.5996,1.5632,1.5454,1.5443,1.4915,1.4915,1.4915,1.4926,1.4744,1.4915,1.4732,1.4675,1.4721,1.4675,1.4664,1.4767,1.5271,1.583,1.5991,1.6163,1.646,1.6392,1.56,1.5944,1.5229,1.418,1.3778,1.3538,1.3103,1.3216,1.353,1.3855,1.4052,1.4106,1.4239,1.4402,1.4413,1.4527,1.4389,1.4402,1.4413,1.4471,1.4135,1.3762,1.3468,1.2854,1.256,1.2258,1.1877,1.1895,1.1765,1.1516,1.1465,1.1339,1.1249,1.1391,1.1443,1.1637,1.1854,1.1832,1.1797,1.2023,1.2201,1.2212,1.233,1.2459,1.2626,1.271,1.2488,1.2222,1.2172,1.1772,1.1309,1.1003,1.0758,1.0261,0.9419,0.8889,0.8727,0.877,0.8905,0.9023,0.8968,0.9174,0.9401,0.9367,0.933,0.9363,1.8171,1.8728,1.8509,1.8828,1.9438,1.9583,1.9939,2.0288,2.0019,1.9964,2.0071,1.9964,1.9847,1.9955,2.0104,2.0224,2.0138,2.0051,1.9682,1.9324,1.9207,1.9059,1.8849,1.8674,1.8698,1.8493,1.784,1.7162,1.6915,1.6915,1.6621,1.6566,1.6451,1.6336,1.6219,1.6421,1.6065,1.5816,1.5847,1.5997,1.604,1.6225,1.6638,1.6847,1.7083,1.7193,1.7288,1.7424,1.725,1.6625,1.6639,1.618,1.5655,1.5372,1.5167,1.4434,1.4599,1.5116,1.5472,1.5608,1.5672,1.6009,1.6225,1.6451,1.6353,1.6255,1.5966,1.6009,1.6353,1.638,1.6239,1.556,1.5119,1.4563,1.3959,1.3531,1.3326,1.3406,1.3285,1.3039,1.2679,1.2575,1.2822,1.2879,1.2857,1.2926,1.3042,1.3107,1.3183,1.3372,1.3472,1.371,1.3864,1.4014,1.4136,1.3991,1.3794,1.3723,1.3413,1.2965,1.2487,1.2143,1.1494,1.066,1.0315,1.0122,0.9983,1.0083,1.0301,1.0481,1.0483,1.0508,1.0664,1.0733,1.0685,1.894,1.9673,1.9304,1.9798,2.0715,2.0714,2.1102,2.1695,2.1556,2.151,2.1674,2.1497,2.1332,2.1259,2.1244,2.1244,2.1244,2.115,2.0651,2.0252,2.023,2.0196,1.9834,1.9477,1.9368,1.9462,1.8902,1.8288,1.7933,1.788,1.8013,1.78,1.7973,1.7907,1.7531,1.7706,1.7491,1.7342,1.7356,1.7625,1.7798,1.8179,1.8454,1.843,1.8507,1.8569,1.8593,1.8631,1.8304,1.7805,1.759,1.7294,1.6837,1.7128,1.682,1.5839,1.5919,1.6308,1.6591,1.6718,1.6873,1.7192,1.7746,1.7973,1.7933,1.7396,1.7301,1.7477,1.7799,1.8051,1.7846,1.7749,1.7208,1.6596,1.5929,1.5467,1.4887,1.4689,1.4685,1.4377,1.3923,1.3788,1.392,1.3762,1.365,1.3756,1.3868,1.4087,1.4219,1.4626,1.484,1.5154,1.5359,1.5489,1.559,1.5684,1.554,1.5458,1.5021,1.4495,1.3961,1.3474,1.2749,1.2162,1.1947,1.1761,1.15,1.1178,1.1249,1.1356,1.1497,1.1623,1.1714,1.1777,1.177,2.082,2.118,2.1493,2.1784,2.1966,2.2481,2.2814,2.2944,2.287,2.2753,2.2514,2.2702,2.2487,2.2096,2.2084,2.2135,2.2015,2.1731,2.1475,2.1179,2.1007,2.0862,2.0748,2.0348,2.0147,2.0181,1.9773,1.8954,1.8559,1.8366,1.821,1.8249,1.8352,1.8131,1.826,1.8693,1.8641,1.8612,1.8891,1.9133,1.9169,1.9622,1.9632,1.9591,1.9713,1.9904,1.9869,1.9838,1.9588,1.9111,1.9055,1.859,1.7938,1.8122,1.8086,1.7755,1.7723,1.784,1.784,1.78,1.788,1.8025,1.821,1.8131,1.8313,1.8338,1.8207,1.8013,1.8517,1.8844,1.8877,1.8647,1.8216,1.7748,1.7214,1.6578,1.6052,1.6172,1.6113,1.5931,1.5536,1.5031,1.4819,1.4599,1.4424,1.4568,1.471,1.4943,1.5228,1.5634,1.5982,1.6242,1.6402,1.6533,1.6772,1.6898,1.691,1.6948,1.6553,1.5993,1.5452,1.4906,1.4393,1.3889,1.367,1.3299,1.2925,1.2619,1.2322,1.2368,1.2634,1.2716,1.2726,1.2772,1.2763,2.2667,2.2209,2.2247,2.2587,2.3087,2.343,2.3611,2.3587,2.3458,2.3343,2.3223,2.3171,2.3003,2.2754,2.2764,2.2781,2.273,2.2395,2.2102,2.1861,2.1535,2.1337,2.1244,2.0959,2.0781,2.0862,2.0665,2.0333,1.9677,1.9259,1.9103,1.928,1.9302,1.9396,1.9236,1.9788,1.9808,1.9813,2.002,2.0273,2.0356,2.052,2.0569,2.0385,2.0567,2.0649,2.0682,2.0682,2.0368,1.9892,1.975,1.9545,1.9201,1.928,1.9403,1.9718,1.971,1.936,1.8698,1.8612,1.8727,1.8954,1.9029,1.9126,1.9295,1.9519,1.9662,1.9768,1.9928,1.9997,1.9982,2.0007,1.9623,1.914,1.8608,1.8186,1.7741,1.7678,1.766,1.7429,1.7108,1.6514,1.6019,1.5872,1.5675,1.549,1.5775,1.6107,1.6322,1.6616,1.6921,1.719,1.7309,1.7419,1.7732,1.795,1.79,1.7907,1.79,1.7367,1.6927,1.6429,1.5882,1.5547,1.533,1.4932,1.4429,1.3913,1.354,1.3638,1.3827,1.3905,1.3915,1.3482,1.3659,2.4099,2.3333,2.3088,2.3419,2.4043,2.4043,2.4081,2.4081,2.3873,2.379,2.3717,2.35,2.3346,2.33,2.3212,2.3117,2.3124,2.283,2.2556,2.2224,2.1948,2.1777,2.1658,2.1415,2.1321,2.1715,2.1227,2.1053,2.0942,2.0636,2.0356,2.0516,2.0333,2.0369,2.052,2.0766,2.0879,2.0863,2.1101,2.129,2.1306,2.1306,2.1244,2.115,2.115,2.115,2.115,2.115,2.0811,2.0782,2.0698,2.0665,2.0587,2.0652,2.071,2.0925,2.0911,2.0518,1.9854,1.96,1.9666,1.9859,2.0,2.0074,2.0333,2.0829,2.0959,2.0748,2.0959,2.1039,2.1181,2.1197,2.0996,2.0608,2.029,1.9951,1.9569,1.9181,1.8761,1.8359,1.8071,1.7846,1.7436,1.732,1.7044,1.661,1.677,1.7166,1.7358,1.7499,1.7682,1.7885,1.7928,1.8073,1.8356,1.8642,1.8699,1.8753,1.8751,1.8569,1.802,1.7664,1.7234,1.7029,1.6837,1.6606,1.6141,1.5419,1.4782,1.4931,1.511,1.5191,1.5098,1.4648,1.4726,2.4799,2.4854,2.4667,2.4614,2.4723,2.4741,2.4636,2.4456,2.4422,2.4302,2.4114,2.3837,2.3674,2.361,2.3455,2.33,2.323,2.2873,2.2772,2.2634,2.2392,2.2315,2.2158,2.1965,2.1786,2.2012,2.1836,2.1769,2.1804,2.1747,2.1357,2.1023,2.1148,2.1023,2.1133,2.1546,2.182,2.1861,2.2084,2.213,2.213,2.2101,2.1998,2.1702,2.1595,2.1552,2.1582,2.1612,2.1698,2.1883,2.1797,2.1814,2.1707,2.1792,2.1807,2.1665,2.1728,2.1395,2.099,2.0635,2.0797,2.0862,2.0943,2.0943,2.1007,2.1007,2.1055,2.1259,2.1562,2.1668,2.1807,2.1878,2.1938,2.18,2.1494,2.1232,2.0789,2.0277,1.9833,1.9337,1.9149,1.9203,1.8829,1.8676,1.7936,1.7455,1.7392,1.7754,1.8013,1.8177,1.8316,1.8452,1.8471,1.8605,1.886,1.8998,1.9077,1.9107,1.915,1.9086,1.8854,1.8589,1.8333,1.8113,1.7874,1.7903,1.7829,1.7155,1.6598,1.6378,1.6326,1.6281,1.6455,1.6328,1.6488,2.505,2.5119,2.5149,2.5135,2.5115,2.5115,2.5,2.4818,2.4804,2.4632,2.4375,2.4248,2.4116,2.3998,2.3935,2.3816,2.3774,2.3459,2.3328,2.3212,2.3014,2.2883,2.2764,2.2669,2.266,2.2694,2.2574,2.2557,2.2693,2.2658,2.2617,2.2363,2.2101,2.2211,2.2337,2.2354,2.2512,2.2546,2.2695,2.2755,2.2616,2.2755,2.2764,2.2626,2.26,2.2583,2.2556,2.2388,2.2422,2.2456,2.2398,2.2377,2.2405,2.249,2.2439,2.2279,2.2388,2.2354,2.2079,2.1606,2.1118,2.1425,2.1674,2.1888,2.1736,2.2023,2.2163,2.2245,2.2272,2.2441,2.26,2.2721,2.2778,2.2737,2.2569,2.2317,2.2041,2.1541,2.1155,2.0766,2.0904,2.1041,2.0533,2.0009,1.9126,1.831,1.8313,1.8356,1.8589,1.8753,1.8825,1.8895,1.8912,1.903,1.9259,1.935,1.9423,1.9467,1.9495,1.9444,1.9392,1.9449,1.9226,1.9033,1.8938,1.8927,1.8846,1.8702,1.8384,1.7972,1.7545,1.7219,1.7472,1.7833,1.8039,2.5255,2.5286,2.5369,2.5368,2.5321,2.5303,2.5192,2.5022,2.4979,2.4845,2.4575,2.4545,2.4426,2.4303,2.4227,2.417,2.4054,2.3816,2.3732,2.3544,2.3323,2.3212,2.3189,2.3165,2.31,2.33,2.3369,2.3346,2.3482,2.35,2.3459,2.3356,2.3229,2.32,2.301,2.3189,2.3069,2.2972,2.3021,2.3117,2.2923,2.3045,2.3165,2.31,2.3093,2.3093,2.3028,2.2898,2.2822,2.2807,2.2721,2.2624,2.266,2.2747,2.284,2.2947,2.3045,2.3212,2.2912,2.246,2.1795,2.2156,2.2426,2.2574,2.2626,2.293,2.2855,2.283,2.3021,2.3212,2.3236,2.3117,2.3206,2.3152,2.3127,2.2954,2.3123,2.2869,2.2581,2.2272,2.2208,2.1715,2.111,2.04,1.9792,1.9033,1.886,1.891,1.9086,1.9185,1.9193,1.9253,1.9298,1.9448,1.9604,1.9612,1.9626,1.9687,1.9722,1.9779,1.9774,1.9869,1.986,1.963,1.961,1.983,1.9745,1.9487,1.9457,1.9417,1.8926,1.8405,1.8722,1.9072,1.913,2.5489,2.5484,2.5434,2.5406,2.5403,2.534,2.5184,2.5046,2.5022,2.4924,2.4771,2.4604,2.4545,2.4461,2.4357,2.4321,2.4247,2.3959,2.3798,2.3738,2.3548,2.3305,2.33,2.3369,2.3522,2.3649,2.371,2.3834,2.4094,2.4016,2.4054,2.4095,2.3941,2.3777,2.3259,2.3212,2.3212,2.3206,2.323,2.3277,2.3212,2.33,2.3346,2.3369,2.3369,2.3392,2.3369,2.3259,2.3189,2.3159,2.3087,2.3014,2.3063,2.3135,2.3189,2.3241,2.3282,2.3305,2.3236,2.3147,2.3088,2.3017,2.3153,2.3177,2.3171,2.3259,2.3356,2.3348,2.3406,2.3361,2.3287,2.331,2.3552,2.3663,2.3656,2.3715,2.3871,2.3934,2.3581,2.3425,2.2545,2.1722,2.1161,2.0606,2.0188,1.9737,1.9479,1.9467,1.9613,1.9595,1.9557,1.957,1.9613,1.9715,1.9823,1.9798,1.9831,1.9887,1.9954,2.0007,2.0022,2.005,2.0038,2.0031,2.0065,2.0118,2.0192,2.0216,2.0062,1.989,1.9985,1.9774,2.007,2.0094,1.9942,2.5579,2.5631,2.5522,2.5457,2.5453,2.5337,2.5264,2.5214,2.5173,2.5088,2.4937,2.4845,2.4766,2.4697,2.4623,2.4559,2.4526,2.4373,2.4229,2.4174,2.3943,2.3899,2.3858,2.384,2.3917,2.3996,2.4036,2.4075,2.417,2.4247,2.4303,2.4357,2.4357,2.421,2.3978,2.3855,2.3795,2.3628,2.3692,2.3774,2.3606,2.3732,2.3834,2.3816,2.3816,2.3798,2.3798,2.3656,2.3574,2.357,2.3486,2.3333,2.3356,2.3419,2.3617,2.3749,2.387,2.4137,2.421,2.4227,2.3987,2.3806,2.3717,2.3783,2.3749,2.3966,2.3987,2.397,2.4044,2.41,2.4298,2.4298,2.4402,2.4418,2.4416,2.4441,2.4508,2.4509,2.4374,2.4416,2.3909,2.3448,2.2921,2.1746,2.107,2.084,2.0632,2.0074,2.0012,1.9926,1.9859,1.9859,1.9887,1.9978,2.0022,2.0016,2.0065,2.0153,2.0198,2.0253,2.0269,2.0254,2.0254,2.0254,2.0289,2.0327,2.0487,2.055,2.0355,2.0247,2.0305,2.0278,2.0223,2.0231,2.0194,2.5638,2.5659,2.5551,2.5479,2.5459,2.5357,2.5313,2.5313,2.5303,2.5214,2.5099,2.5034,2.4949,2.4883,2.4832,2.4804,2.479,2.467,2.4591,2.4575,2.4459,2.4391,2.4392,2.4393,2.4391,2.4392,2.441,2.4409,2.4444,2.4409,2.4426,2.4478,2.4512,2.4392,2.4284,2.4172,2.4074,2.3937,2.4016,2.4036,2.3976,2.4036,2.417,2.4171,2.4209,2.4266,2.4266,2.4173,2.4061,2.3985,2.3888,2.3731,2.381,2.3947,2.4155,2.4334,2.4454,2.4636,2.4697,2.4746,2.4454,2.4192,2.432,2.4338,2.4318,2.4424,2.4482,2.4538,2.4733,2.4766,2.4799,2.4847,2.4836,2.4836,2.4879,2.4864,2.493,2.4905,2.4976,2.506,2.4741,2.4561,2.4345,2.3271,2.2131,2.1962,2.1812,2.1216,2.065,2.0579,2.0469,2.0379,2.0321,2.034,2.0338,2.0241,2.0303,2.0425,2.0539,2.0664,2.0455,2.0436,2.0455,2.0477,2.051,2.0597,2.0818,2.0879,2.0917,2.076,2.0546,2.0486,2.0365,2.0311,2.0311,2.5661,2.5581,2.5516,2.5463,2.5401,2.5346,2.5313,2.5313,2.5313,2.5303,2.5274,2.5088,2.5022,2.4986,2.4896,2.4874,2.4861,2.4832,2.4785,2.4771,2.4712,2.4712,2.4731,2.4731,2.4685,2.4746,2.4746,2.467,2.4775,2.4741,2.4666,2.4575,2.4607,2.4559,2.4476,2.4393,2.4284,2.4266,2.4266,2.4303,2.4266,2.4247,2.4339,2.4375,2.4445,2.4495,2.4545,2.4556,2.4651,2.4682,2.4697,2.4712,2.476,2.479,2.4804,2.4785,2.4785,2.485,2.4891,2.493,2.4911,2.4755,2.4793,2.4827,2.4787,2.4785,2.4815,2.4847,2.4958,2.4917,2.4891,2.4905,2.4924,2.4973,2.5062,2.513,2.5206,2.5275,2.5371,2.5201,2.4696,2.444,2.4417,2.3673,2.3108,2.3494,2.3299,2.2689,2.2146,2.1724,2.1546,2.1103,2.0982,2.0788,2.0756,2.0987,2.0848,2.1067,2.1111,2.1171,2.0918,2.0879,2.121,2.1267,2.0869,2.0941,2.1505,2.1723,2.1749,2.1512,2.1312,2.0962,2.0931,2.0422,2.0327,2.5703,2.5661,2.5601,2.5558,2.5539,2.5457,2.5391,2.5303,2.5313,2.5313,2.5303,2.5253,2.5203,2.5203,2.5171,2.5149,2.5084,2.5018,2.4949,2.493,2.4883,2.4832,2.4818,2.4832,2.4818,2.4818,2.4818,2.4847,2.4828,2.4896,2.4883,2.476,2.478,2.4766,2.4712,2.4673,2.4642,2.4626,2.4591,2.4559,2.4575,2.4559,2.4594,2.4626,2.4654,2.4716,2.4746,2.479,2.4832,2.4832,2.4818,2.4804,2.4804,2.4804,2.4814,2.4962,2.5083,2.5226,2.5244,2.5286,2.5282,2.5239,2.5255,2.5168,2.5098,2.5045,2.5101,2.5148,2.5194,2.5177,2.5168,2.5178,2.5176,2.5232,2.5305,2.5331,2.5413,2.5474,2.5556,2.5391,2.4874,2.4771,2.4722,2.4313,2.3944,2.4662,2.4766,2.4062,2.3516,2.3047,2.2476,2.2003,2.1905,2.1749,2.2068,2.2324,2.1933,2.1715,2.1767,2.1778,2.1652,2.174,2.212,2.2188,2.1948,2.2115,2.2516,2.2595,2.2571,2.252,2.2319,2.1861,2.142,2.1056,2.095,2.5703,2.566,2.5629,2.5576,2.5554,2.5507,2.5434,2.5365,2.5339,2.5339,2.5339,2.5284,2.5313,2.5284,2.5274,2.5274,2.5264,2.5192,2.513,2.5107,2.5024,2.5024,2.5019,2.4994,2.5031,2.4987,2.4987,2.5024,2.5,2.5037,2.5049,2.4904,2.4967,2.4956,2.491,2.4864,2.4917,2.491,2.4888,2.4832,2.4818,2.4818,2.4804,2.4832,2.4842,2.4883,2.491,2.4923,2.4994,2.5006,2.5006,2.5018,2.5046,2.5075,2.5109,2.5241,2.5318,2.5402,2.5415,2.5446,2.5479,2.5513,2.5517,2.5424,2.5357,2.5304,2.535,2.5385,2.5454,2.5498,2.5512,2.5507,2.5513,2.5535,2.5531,2.5528,2.5579,2.5607,2.5579,2.5526,2.5408,2.5327,2.5092,2.4687,2.4609,2.5059,2.5176,2.4785,2.4355,2.4043,2.3379,2.2752,2.279,2.2828,2.3169,2.3279,2.2818,2.2458,2.2487,2.247,2.2362,2.2435,2.2673,2.295,2.3137,2.33,2.3418,2.3398,2.3365,2.3319,2.3211,2.2803,2.2411,2.2137,2.218,2.5681,2.5627,2.5605,2.5593,2.5511,2.5531,2.5503,2.5428,2.5421,2.5413,2.5376,2.534,2.5313,2.5313,2.5313,2.5313,2.5313,2.5293,2.5264,2.5313,2.5243,2.5222,2.5233,2.5274,2.5192,2.5253,2.5264,2.5192,2.5264,2.5253,2.5163,2.5034,2.5034,2.5053,2.5053,2.5041,2.5077,2.5149,2.5024,2.491,2.4902,2.4874,2.4847,2.4883,2.4956,2.5041,2.5077,2.5182,2.5313,2.5313,2.5313,2.5311,2.5364,2.5389,2.5451,2.5473,2.5479,2.5493,2.5503,2.5543,2.5524,2.552,2.5507,2.5522,2.5506,2.5468,2.55,2.5525,2.557,2.5567,2.558,2.5559,2.5553,2.5574,2.5598,2.5599,2.564,2.5664,2.5644,2.5605,2.5586,2.5527,2.5449,2.5078,2.5,2.5391,2.543,2.5195,2.5039,2.4785,2.4336,2.3638,2.3801,2.3896,2.3826,2.3828,2.346,2.3247,2.327,2.3195,2.3121,2.3146,2.319,2.3618,2.4053,2.4119,2.4182,2.4184,2.4156,2.4137,2.3972,2.3692,2.3413,2.3212,2.3349,2.5703,2.5662,2.5682,2.5661,2.5644,2.5659,2.5655,2.5631,2.5567,2.5471,2.5348,2.5313,2.5303,2.5322,2.5363,2.5363,2.5321,2.5363,2.5329,2.5321,2.5322,2.533,2.5303,2.5312,2.5313,2.5313,2.5313,2.5303,2.5313,2.5284,2.5284,2.5224,2.5214,2.5203,2.5203,2.5184,2.5224,2.5274,2.5203,2.5126,2.5126,2.516,2.519,2.5171,2.5224,2.5205,2.5244,2.5254,2.5339,2.5371,2.5379,2.542,2.5477,2.5484,2.5493,2.5517,2.5554,2.5567,2.5576,2.5607,2.5616,2.5638,2.5641,2.5625,2.5625,2.559,2.5583,2.5618,2.5641,2.5638,2.5621,2.5586,2.5583,2.5602,2.5623,2.5663,2.5683,2.5684,2.5684,2.5703,2.5703,2.5664,2.5625,2.5586,2.5547,2.5566,2.5605,2.5527,2.5449,2.5293,2.5254,2.4788,2.4927,2.497,2.4734,2.4491,2.4161,2.4166,2.4242,2.4096,2.3906,2.4049,2.4192,2.4615,2.4966,2.4851,2.4812,2.4976,2.4947,2.4793,2.4726,2.4427,2.4523,2.4418,2.4582,2.5703,2.5703,2.5703,2.5703,2.5703,2.5703,2.5683,2.564,2.5607,2.5526,2.5406,2.5383,2.5383,2.5383,2.5428,2.5428,2.5391,2.5447,2.5428,2.5406,2.5387,2.5398,2.5383,2.5368,2.5398,2.5383,2.5346,2.5348,2.5303,2.5293,2.5284,2.5313,2.5313,2.5313,2.5313,2.5313,2.5313,2.5313,2.5293,2.5293,2.5293,2.5293,2.5303,2.5293,2.5321,2.532,2.5335,2.5352,2.5401,2.5453,2.5477,2.5508,2.5551,2.5573,2.5598,2.5603,2.5631,2.5637,2.5641,2.5644,2.5661,2.5659,2.5629,2.5576,2.5573,2.5538,2.5538,2.5568,2.562,2.5622,2.5577,2.5544,2.5542,2.5547,2.5564,2.5576,2.5609,2.5644,2.5664,2.5703,2.5684,2.5644,2.5586,2.5547,2.5527,2.5527,2.5586,2.5586,2.5586,2.5567,2.5598,2.5598,2.5531,2.5453,2.5135,2.5027,2.4957,2.5031,2.5032,2.4859,2.4647,2.4966,2.5274,2.5236,2.5236,2.5216,2.5255,2.5313,2.5313,2.512,2.5139,2.5178,2.5313,2.5303,2.5178,2.5703,2.5703,2.5703,2.5703,2.5703,2.5703,2.5662,2.5631,2.5607,2.5593,2.5539,2.5531,2.5531,2.5513,2.5522,2.5517,2.5513,2.5513,2.5513,2.5498,2.5493,2.5477,2.5477,2.5498,2.5477,2.5434,2.5398,2.5337,2.5293,2.5313,2.5313,2.5313,2.5313,2.5313,2.5313,2.5313,2.5313,2.5303,2.5313,2.5322,2.5322,2.5313,2.5312,2.5348,2.5387,2.5427,2.5434,2.5446,2.5484,2.5543,2.558,2.5598,2.5609,2.5644,2.5664,2.5684,2.5664,2.5664,2.5663,2.5637,2.5605,2.557,2.5535,2.5508,2.5508,2.5513,2.5513,2.5513,2.5551,2.5564,2.5527,2.5503,2.5502,2.5504,2.5498,2.5503,2.5554,2.5595,2.5631,2.5662,2.5634,2.5595,2.5561,2.5516,2.5503,2.5508,2.5503,2.5498,2.5479,2.5493,2.5522,2.5503,2.5471,2.5391,2.5348,2.5312,2.5254,2.5245,2.5178,2.5265,2.5313,2.5313,2.5313,2.5293,2.5293,2.5313,2.5313,2.5313,2.5313,2.5313,2.5313,2.5313,2.5313,2.5303,2.5262,2.5703,2.5703,2.5703,2.5703,2.5703,2.5703,2.5703,2.5684,2.5684,2.5681,2.5664,2.5644,2.5607,2.5517,2.558,2.5584,2.5547,2.5561,2.5543,2.5517,2.5535,2.5526,2.5526,2.5543,2.5463,2.5434,2.5379,2.5321,2.5321,2.5322,2.5332,2.5399,2.5313,2.5322,2.5341,2.5341,2.5322,2.535,2.5468,2.5538,2.5519,2.548,2.5383,2.5401,2.5434,2.5457,2.5479,2.5484,2.5539,2.5593,2.5644,2.5664,2.5664,2.5684,2.5684,2.5703,2.5703,2.5684,2.5658,2.5625,2.557,2.552,2.5479,2.5459,2.5459,2.5471,2.5447,2.5383,2.5441,2.5482,2.5465,2.5434,2.5432,2.5467,2.5479,2.5488,2.5517,2.5526,2.5543,2.5551,2.5547,2.5531,2.5522,2.5479,2.5468,2.5471,2.5466,2.546,2.5415,2.5439,2.5444,2.5425,2.5406,2.5413,2.5383,2.5331,2.5284,2.5293,2.5313,2.5313,2.5313,2.5313,2.5313,2.5313,2.5313,2.5313,2.5313,2.5313,2.5313,2.5313,2.5313,2.5313,2.5284,2.5233,2.5157]}]]